GFSSW_prec_cloud_003.txt.gz
Cloud_Cover
100 100 100 100 98 65 44 71 74 3 6 5 100 100 30 30 68 90 95 5 4 4 0 0 0 0 0 0 0 0 0 0 0 0 0 0 0 0 0 0 0 0 0 0 0
100 100 100 100 100 100 44 14 5 25 5 6 73 71 94 100 94 86 40 90 5 5 3 0 0 0 0 0 0 0 8 0 0 0 0 0 0 0 0 0 0 0 0 0 0
100 100 100 100 100 100 58 6 2 0 5 5 71 100 87 100 100 100 100 100 100 26 74 5 5 0 0 0 0 0 0 0 0 0 0 0 0 0 0 0 0 0 0 0 0
100 100 100 100 100 100 99 65 0 1 24 6 5 92 100 100 100 100 100 100 100 98 100 5 5 4 0 0 0 0 0 0 0 0 0 0 0 0 0 0 0 0 0 0 0
100 100 100 100 100 100 33 5 5 2 3 73 23 32 100 100 96 100 100 100 100 100 100 59 23 35 5 0 2 12 0 0 0 0 0 0 0 0 0 0 0 0 0 0 0
98 100 100 100 100 100 100 5 25 10 5 25 98 89 100 98 77 39 94 100 100 100 100 100 34 39 5 5 5 25 13 0 0 0 0 0 0 0 0 0 0 0 0 0 0
100 98 100 80 94 100 100 68 100 94 10 100 100 100 100 76 100 94 54 37 100 100 100 100 99 6 6 10 95 100 6 0 0 0 0 0 0 0 0 0 0 0 0 0 0
100 100 100 100 100 100 100 100 100 100 84 100 100 100 100 100 100 100 58 88 85 100 100 100 100 61 40 9 30 100 81 5 0 0 0 0 1 0 0 0 0 0 0 0 0
100 100 100 100 100 100 100 100 100 100 38 99 100 100 100 99 95 100 97 67 100 100 100 100 100 70 19 73 64 100 100 95 5 2 2 1 1 0 0 0 0 0 0 0 0
100 98 97 100 100 100 100 100 100 100 87 100 100 100 100 86 96 90 97 100 100 100 100 100 100 100 100 100 42 98 100 100 82 34 5 3 1 0 0 0 0 0 0 0 0
100 100 99 100 100 100 100 100 100 96 100 31 61 31 5 26 97 100 100 100 100 100 100 100 100 100 100 100 99 12 30 75 100 65 52 5 0 0 0 0 0 0 0 0 0
7 21 20 76 100 100 100 100 100 90 100 28 100 74 100 100 100 100 100 100 100 100 100 100 100 100 100 94 87 15 6 34 96 98 20 16 0 0 3 0 0 0 0 0 0
98 76 70 10 100 100 100 100 100 100 37 94 100 100 100 100 100 100 100 100 100 100 100 100 100 100 100 100 100 100 100 96 89 48 5 5 4 2 4 5 0 0 0 0 0
79 100 97 30 38 89 100 100 100 100 30 73 100 100 100 100 100 100 100 100 100 100 100 100 100 100 100 100 95 94 16 11 5 64 77 4 3 0 0 5 4 0 0 0 0
82 100 86 100 71 91 100 100 100 100 48 41 65 100 100 100 100 100 100 100 98 99 100 97 83 24 100 21 5 16 5 5 5 45 71 46 91 0 33 58 7 4 4 0 0
100 92 100 79 40 100 100 100 100 100 52 56 76 100 100 100 100 100 100 100 90 54 88 82 99 57 36 5 32 75 76 97 66 42 94 5 49 0 9 97 100 9 5 2 0
100 71 100 100 85 100 100 100 100 100 98 94 87 100 100 100 100 100 100 100 100 100 100 100 93 81 26 41 5 20 100 100 100 100 41 4 22 0 0 0 15 13 5 5 1
100 100 29 73 100 100 100 100 100 85 98 100 100 100 100 98 100 100 100 100 100 100 100 82 10 84 23 30 9 6 94 99 100 100 89 92 6 0 0 3 5 100 37 5 2
100 66 35 97 81 100 100 100 98 100 100 100 100 100 100 100 100 100 100 100 100 100 64 99 62 5 5 5 9 96 98 28 100 100 100 26 0 0 0 0 5 70 100 30 0
96 58 100 18 99 100 100 100 97 100 100 100 100 100 100 100 100 100 100 100 100 100 100 76 95 84 46 16 49 16 82 94 100 100 95 6 1 0 0 0 0 100 100 100 1
100 100 99 100 100 100 100 100 100 100 100 100 100 100 100 100 100 100 100 100 100 100 41 100 97 63 97 71 11 97 100 100 100 100 100 53 7 0 0 0 0 37 100 100 1
100 100 100 100 100 100 100 87 100 100 100 100 100 100 100 100 100 100 100 100 89 97 81 61 98 82 22 51 100 100 100 100 100 100 100 87 2 50 25 0 4 40 100 100 12
100 100 100 100 100 100 98 76 100 100 100 100 100 100 100 100 100 100 100 78 63 100 100 97 99 74 82 83 100 100 100 100 100 100 54 97 95 100 22 1 4 88 84 100 15
100 100 100 100 100 70 78 94 100 100 100 100 100 100 100 100 100 100 100 98 100 98 49 54 90 48 27 100 100 100 100 100 100 100 28 100 92 100 100 71 78 89 99 88 5
100 100 100 100 100 81 100 100 100 100 100 100 100 100 100 100 100 100 100 100 94 94 86 100 100 100 93 100 100 100 100 100 100 71 86 97 99 89 100 100 100 86 98 11 1
100 100 100 100 100 100 100 100 76 98 96 100 100 100 100 100 100 100 100 100 100 100 74 100 100 100 100 100 100 100 100 100 100 48 53 98 88 92 95 100 97 100 98 1 100
100 100 100 100 100 100 100 96 28 76 100 100 100 100 100 100 100 100 100 100 100 100 100 100 100 100 100 99 100 100 100 100 96 100 57 99 100 100 100 100 100 100 100 76 95

GFSSW_prec_cloud_006.txt.gz
Cloud_Cover
100 100 100 99 98 100 100 100 83 40 1 1 9 93 10 96 100 100 100 100 100 100 100 5 9 79 30 5 5 4 0 0 0 0 0 0 0 0 0 0 0 0 0 0 0
100 100 100 97 100 100 100 100 100 100 6 4 6 100 31 23 99 100 100 100 100 100 100 5 5 67 22 36 6 5 5 0 0 0 0 0 0 0 0 0 0 0 0 0 0
100 100 100 100 100 100 100 100 100 100 85 5 5 96 39 49 98 76 100 100 100 100 100 50 5 5 22 5 2 5 2 0 0 0 0 0 0 0 0 0 0 0 0 0 0
100 100 100 100 100 100 100 100 100 100 88 62 11 8 99 100 96 90 100 100 100 100 76 100 76 5 54 64 21 5 0 0 0 0 0 0 0 0 0 0 0 0 0 0 0
100 100 100 100 100 100 100 100 100 100 100 100 13 11 77 94 100 19 14 100 100 100 100 94 98 94 10 73 28 5 5 0 0 0 0 0 0 0 0 0 0 0 0 0 0
52 99 100 100 100 100 100 100 100 100 100 100 100 99 6 94 59 8 29 71 86 100 100 100 100 100 99 50 79 19 5 5 5 5 5 0 0 0 0 0 0 0 0 0 0
100 100 100 100 100 100 100 100 100 100 100 100 100 28 5 5 69 74 14 86 74 98 100 100 100 100 100 100 62 59 15 5 5 5 78 5 0 0 0 0 0 0 0 0 0
65 100 100 90 100 100 100 100 74 100 100 100 84 5 5 5 12 100 90 84 100 80 96 100 100 100 100 100 100 43 40 36 5 5 13 39 5 0 0 0 0 0 0 0 0
77 100 100 91 100 100 100 100 100 100 90 83 85 15 37 64 44 100 81 100 98 93 71 70 97 100 100 100 100 100 8 6 12 5 34 99 18 6 0 0 0 0 0 0 0
15 7 19 81 38 100 100 100 100 100 100 100 100 38 100 99 92 100 100 100 100 100 100 68 65 68 100 100 100 100 94 100 39 25 30 26 100 100 5 3 0 0 0 0 0
0 2 5 5 5 100 100 100 100 100 100 100 100 100 99 100 100 100 100 100 100 100 100 94 99 92 21 55 100 100 100 67 100 100 8 7 54 100 100 100 100 30 0 0 0
37 5 65 90 3 89 100 100 100 100 100 100 100 100 100 100 100 100 100 100 100 100 100 100 100 100 100 99 74 100 100 100 100 99 76 6 7 78 100 100 100 40 6 0 0
100 50 97 100 92 68 97 100 100 100 100 100 100 97 84 100 100 100 100 100 100 100 100 100 100 100 100 100 100 100 47 50 44 5 5 5 3 5 11 97 100 100 87 24 5
100 100 100 93 6 11 38 100 100 100 100 100 100 94 71 93 100 100 100 100 100 100 100 100 100 100 100 100 76 7 8 10 36 72 46 43 14 5 7 92 52 88 100 96 5
76 99 100 100 100 32 96 100 100 100 100 100 98 87 100 28 97 96 100 100 100 100 100 100 36 39 99 100 96 78 100 100 99 88 95 14 97 0 1 11 94 5 6 40 6
100 100 32 96 62 74 100 100 100 100 100 100 100 100 100 78 100 100 100 100 100 100 100 96 15 26 30 41 56 27 68 100 100 100 95 0 24 1 0 0 3 0 1 5 5
100 100 100 91 96 60 100 100 100 100 100 100 100 100 100 100 97 100 100 100 100 100 96 99 80 18 28 90 42 64 100 79 93 100 3 8 79 0 4 0 0 4 3 0 0
100 100 99 100 9 83 100 100 100 100 96 100 100 100 100 100 100 100 100 100 98 73 83 84 90 90 92 34 42 60 59 23 2 28 70 99 33 0 0 0 0 4 0 0 0
100 84 99 70 10 84 100 100 100 90 100 100 100 100 100 100 100 100 100 100 98 99 100 100 100 100 87 5 32 98 94 19 100 73 100 42 8 0 0 0 6 100 20 0 0
100 72 61 29 84 100 100 100 100 98 100 100 100 100 100 100 82 100 76 83 76 61 100 100 100 79 33 20 9 48 95 86 93 95 100 99 4 0 10 90 100 100 100 1 0
100 100 86 91 100 100 100 100 100 100 100 100 100 100 56 37 50 99 100 100 100 100 100 96 60 79 64 80 11 95 100 95 98 100 100 100 61 85 76 100 100 100 100 1 0
100 100 49 100 100 100 100 100 100 100 100 100 100 100 84 99 100 100 100 100 100 100 90 28 97 87 45 10 24 59 98 100 100 100 100 100 84 100 100 100 100 100 83 0 3
100 100 88 100 100 100 100 100 100 100 100 100 100 89 100 100 100 99 100 100 100 63 24 68 97 57 98 29 74 100 98 100 100 100 95 100 100 100 100 100 100 97 11 1 5
100 100 100 100 100 100 100 100 100 100 100 100 100 100 100 100 100 100 100 100 71 75 100 85 92 46 95 100 100 100 98 100 100 100 87 90 100 100 55 5 5 3 1 87 5
100 100 100 100 100 100 99 100 100 100 100 100 100 100 100 100 100 100 100 95 100 100 94 79 100 81 48 62 100 100 100 100 100 48 100 100 100 99 90 14 5 0 13 8 5
100 100 70 100 99 93 65 94 100 100 100 100 100 100 100 100 100 100 100 52 100 98 99 100 79 96 100 96 100 100 100 100 100 100 100 99 100 100 100 100 49 12 98 86 98
100 100 100 100 100 98 74 82 99 100 100 100 100 100 100 100 80 100 100 100 100 100 100 100 100 100 79 79 100 100 100 100 100 100 100 100 70 100 100 100 100 98 100 100 99

GFSSW_prec_cloud_009.txt.gz
Cloud_Cover
100 100 100 100 100 100 100 100 100 100 100 12 0 0 8 7 6 100 100 100 100 100 100 100 100 100 100 66 45 5 65 99 6 5 4 1 0 0 0 0 0 0 0 0 0
100 100 100 100 100 100 100 100 100 100 100 100 28 4 59 65 48 36 100 100 100 100 100 100 100 100 100 85 28 5 5 56 5 1 0 5 4 0 0 0 0 0 0 0 0
12 88 100 100 100 100 100 100 100 100 100 100 79 28 95 8 70 50 34 100 100 100 100 100 100 100 100 100 18 5 6 5 5 3 4 0 0 0 0 0 0 0 0 0 0
21 6 100 100 100 100 100 100 100 78 100 100 100 96 98 55 97 51 9 6 100 100 100 100 100 100 100 100 50 5 67 8 5 5 5 3 1 0 0 0 0 0 0 0 0
5 5 100 61 100 100 100 100 100 100 100 100 100 100 80 100 98 77 20 23 15 96 100 100 100 100 100 100 88 6 11 54 16 5 1 2 0 0 1 0 0 0 0 0 0
6 26 8 100 64 100 100 100 100 100 100 100 100 100 100 94 100 100 92 5 26 34 100 100 100 100 100 100 100 32 11 5 72 72 5 3 0 4 1 0 0 0 0 0 0
5 7 99 7 6 65 100 100 100 100 100 100 100 100 89 100 50 78 62 92 5 39 100 51 100 100 100 100 100 43 11 6 5 51 60 5 5 5 0 0 0 0 0 0 0
0 5 6 55 35 16 99 100 100 100 100 100 100 100 100 100 100 100 7 21 45 64 71 45 82 100 100 100 100 72 53 32 13 24 79 23 9 5 5 5 5 0 0 0 0
0 4 5 5 8 10 97 99 100 100 100 100 100 100 100 100 100 100 90 50 50 82 100 91 76 98 100 100 100 96 99 100 100 83 48 20 59 5 5 5 27 3 2 0 0
0 0 4 4 5 5 63 100 100 100 100 100 100 100 100 100 100 100 100 96 9 8 65 57 54 72 88 100 100 100 100 100 100 100 100 57 21 57 5 5 6 99 83 3 0
5 3 3 0 5 5 83 46 100 100 100 100 100 100 100 97 100 100 8 28 80 32 6 100 88 100 43 76 100 100 100 100 100 100 100 100 96 63 18 5 5 5 6 97 6
14 50 50 96 96 71 13 100 100 100 100 100 100 100 100 100 100 46 21 26 99 100 87 100 100 100 100 70 69 86 82 93 100 100 100 100 100 100 91 13 55 22 38 100 100
29 100 97 100 100 98 14 100 100 100 100 100 100 100 100 88 23 16 5 37 89 100 100 100 100 100 100 59 24 8 49 54 8 28 81 97 93 100 98 99 96 94 62 72 100
69 89 91 100 48 92 32 100 100 100 100 100 100 100 100 100 98 93 34 88 100 100 100 100 100 100 100 100 95 38 41 13 5 25 5 10 6 30 47 96 99 80 95 6 6
100 99 59 6 66 100 100 100 100 100 100 100 100 100 100 98 100 100 50 100 100 100 100 100 100 100 100 100 100 99 75 13 64 80 77 56 46 70 29 97 56 43 9 8 2
100 100 100 100 88 98 100 100 100 100 100 100 100 100 100 100 99 94 100 98 100 100 100 100 100 100 100 100 100 100 98 95 70 94 61 95 4 0 82 58 40 26 4 4 5
100 100 100 100 30 90 99 100 100 100 100 100 94 100 100 100 100 100 100 100 100 100 100 100 100 100 100 100 100 100 99 59 79 99 5 4 2 0 41 0 0 0 0 0 0
39 96 97 93 82 54 100 100 100 80 100 100 100 100 100 100 100 100 100 100 99 100 100 86 99 100 100 100 82 100 100 54 1 1 0 0 18 0 0 0 0 0 0 0 0
86 53 82 100 100 99 100 100 100 94 78 100 100 99 100 100 100 96 100 100 98 93 74 75 45 24 5 6 18 83 91 62 100 87 88 0 0 0 0 2 0 0 0 0 1
74 56 93 83 86 96 100 100 100 100 100 100 97 100 100 100 100 99 100 40 89 42 44 87 37 98 93 15 20 87 100 81 95 82 98 12 48 5 19 65 24 2 0 1 1
98 77 95 57 88 100 100 100 100 100 100 100 100 100 100 100 100 96 66 43 70 88 100 92 59 84 88 100 95 94 99 75 71 90 100 93 39 89 100 100 100 45 11 6 35
61 100 86 30 100 100 100 100 100 100 100 100 100 100 83 92 71 80 65 55 89 100 100 100 100 100 86 81 39 62 74 97 100 76 100 100 69 12 53 96 98 12 5 97 100
100 100 86 70 100 100 100 100 97 100 100 100 100 100 100 61 36 71 90 100 100 100 100 99 70 58 51 22 60 95 96 100 100 100 100 100 100 46 100 100 94 66 94 100 85
82 100 100 92 100 100 100 100 100 100 100 100 100 100 100 91 13 44 31 73 100 100 90 78 80 73 10 11 100 98 100 100 100 100 90 100 100 100 100 100 100 97 100 45 95
100 94 82 100 99 100 100 100 100 100 100 100 100 100 100 100 56 14 94 100 100 100 80 96 98 74 38 35 61 100 98 100 100 100 100 100 100 100 100 100 96 92 100 100 100
100 98 100 94 100 100 100 100 100 100 100 100 100 100 100 81 100 100 100 100 100 70 100 99 77 87 100 54 73 98 98 100 100 100 100 100 100 100 100 100 100 100 100 100 100
97 99 100 63 37 75 56 79 100 100 100 100 100 100 100 98 100 100 100 100 96 100 100 100 99 100 99 68 50 88 100 100 100 100 100 100 100 100 100 100 100 100 100 100 100

GFSSW_prec_cloud_012.txt.gz
Cloud_Cover
0 3 95 100 100 100 35 100 100 100 100 100 99 4 9 2 1 97 100 100 100 100 100 100 100 100 100 69 90 77 5 35 5 5 5 1 4 4 2 4 0 0 0 0 0
1 5 3 100 100 100 100 89 100 100 100 98 100 100 7 0 67 71 87 100 100 100 100 100 100 100 100 100 100 86 49 86 8 3 5 2 4 5 4 0 3 0 0 0 0
0 2 5 5 95 100 100 100 100 100 100 100 100 100 100 30 70 51 0 4 63 100 100 100 100 100 100 100 100 100 100 100 59 5 5 5 5 5 0 10 3 0 0 0 4
5 2 4 5 83 100 100 100 100 100 100 100 100 100 100 100 99 27 89 2 0 63 100 100 100 100 100 100 100 100 100 100 100 17 7 5 3 1 2 5 8 4 0 0 4
5 5 5 1 5 58 100 100 100 100 100 100 100 100 100 100 96 31 20 20 1 14 21 100 100 100 100 100 100 100 100 100 84 64 92 5 5 6 3 5 1 3 1 0 0
27 76 18 5 3 5 24 100 100 100 100 100 100 100 100 96 100 100 58 5 8 82 63 100 100 100 100 100 100 100 100 100 100 100 39 5 5 7 6 0 3 4 2 0 0
5 78 100 98 75 45 6 100 100 100 100 100 100 100 100 100 100 100 56 65 26 48 52 100 100 100 100 100 100 100 100 100 100 100 85 5 5 5 5 3 5 0 0 0 0
99 5 4 0 69 3 58 34 100 100 100 100 100 100 100 100 100 100 100 100 99 35 88 99 59 33 100 100 100 100 100 100 100 100 100 14 5 5 8 77 8 0 4 0 0
30 4 17 2 0 1 5 5 100 96 100 100 100 100 100 100 100 100 100 100 99 100 100 100 99 89 100 100 100 100 100 100 100 100 100 92 5 5 5 6 76 5 5 5 5
53 5 5 2 1 0 2 5 100 100 100 100 99 100 100 100 100 100 100 100 100 100 100 92 100 41 5 5 55 99 100 100 100 100 100 100 26 5 5 5 5 8 5 5 5
5 9 100 73 5 5 48 4 91 100 100 100 100 100 100 100 100 100 100 100 100 100 100 57 64 8 8 5 5 5 57 96 100 100 100 96 10 5 5 5 44 5 13 70 81
24 80 97 100 100 98 95 22 100 100 100 100 100 100 100 100 100 100 100 100 100 100 100 100 100 55 11 65 30 35 5 5 5 94 100 100 100 68 31 6 38 100 100 100 44
43 61 80 16 100 50 76 12 100 100 100 100 100 100 100 100 100 100 100 100 100 100 100 99 89 93 90 7 7 52 26 5 5 5 92 90 93 96 99 100 100 100 100 100 100
17 100 100 100 28 100 51 25 100 100 100 100 100 100 100 100 100 100 100 100 100 100 100 100 94 58 46 21 92 98 62 11 5 5 5 5 5 97 100 100 100 100 100 100 100
56 100 100 100 20 82 94 100 100 100 100 100 100 100 100 79 100 100 100 100 100 100 96 85 78 16 5 98 100 100 100 100 19 5 6 84 6 93 100 100 100 64 5 5 5
5 24 100 100 60 52 56 100 100 100 100 100 100 100 34 98 100 100 100 99 100 98 100 73 28 43 46 100 100 100 100 100 79 27 44 51 19 12 99 100 100 14 2 0 1
52 100 88 95 100 14 98 100 100 100 100 100 100 100 99 100 100 100 100 100 30 72 79 87 100 100 100 100 100 100 100 100 100 99 100 82 25 99 100 99 59 4 4 4 0
5 51 89 97 99 36 100 100 100 100 100 84 100 100 100 100 100 100 100 60 32 53 99 100 100 100 100 100 100 100 100 100 100 100 100 100 96 100 92 15 0 0 0 0 0
97 59 81 100 100 97 100 100 100 100 81 100 100 100 100 100 100 100 100 100 95 99 65 100 100 100 100 100 100 100 100 100 100 100 100 81 100 98 4 1 0 0 0 0 0
100 67 88 100 94 100 100 100 100 100 100 99 99 93 99 100 100 100 100 100 98 100 99 99 97 100 98 100 100 100 100 100 98 83 75 47 4 0 0 0 7 0 0 0 3
56 99 89 63 100 100 100 100 100 100 100 100 83 96 100 100 100 100 100 62 89 90 94 97 85 74 58 83 96 100 100 100 76 49 22 5 4 98 0 8 99 5 5 5 5
99 100 55 87 100 100 100 100 100 100 82 100 100 100 91 66 82 99 74 97 30 82 32 94 100 77 38 100 100 100 87 74 100 16 69 19 40 17 4 96 100 50 99 65 55
100 100 50 75 100 99 100 100 100 99 100 100 100 100 100 100 100 100 93 31 25 6 62 75 100 90 100 100 100 91 15 86 70 92 95 100 40 100 68 100 100 100 94 100 100
93 84 92 100 99 77 100 100 100 100 100 100 100 100 100 100 100 90 14 5 6 89 100 100 100 68 61 80 25 57 10 92 100 100 47 100 7 100 100 100 100 100 100 100 96
82 47 85 71 100 100 100 100 100 100 100 100 100 100 100 100 76 70 100 13 97 100 100 99 83 7 5 5 5 7 100 93 100 90 100 98 87 100 100 100 100 100 100 97 78
91 100 99 90 82 100 100 95 94 97 73 100 100 100 100 100 100 100 58 86 100 100 100 16 66 70 100 44 6 94 100 90 100 100 100 100 100 100 97 100 99 92 19 30 87
100 100 99 5 11 98 37 63 84 84 86 100 100 100 100 100 95 82 68 100 100 100 100 90 94 99 100 46 94 99 100 100 100 100 100 100 100 100 98 39 100 87 28 55 100

GFSSW_prec_cloud_015.txt.gz
Cloud_Cover
20 5 6 15 96 100 100 100 100 100 100 100 100 100 100 1 8 49 100 100 100 100 100 100 100 100 100 99 77 98 33 81 100 100 93 2 1 0 5 5 5 0 3 0 0
20 4 5 4 10 99 100 100 100 100 100 100 100 100 100 32 78 92 1 91 100 100 100 100 100 100 100 100 60 76 100 100 100 100 100 15 4 0 5 5 2 5 0 0 0
53 92 39 6 4 16 100 100 100 100 86 100 100 100 100 100 85 4 0 13 100 100 100 100 100 100 100 97 100 87 100 100 100 57 38 85 11 5 0 2 5 5 0 0 1
7 22 71 87 36 17 66 100 100 100 100 100 100 100 100 100 100 50 2 0 3 96 100 100 100 100 100 100 98 77 92 100 100 26 5 60 25 5 4 4 1 2 0 3 0
5 15 71 100 98 35 100 5 100 100 100 100 100 100 100 100 100 100 30 4 2 0 68 100 100 100 100 100 100 89 98 100 100 100 85 65 42 5 5 4 8 5 2 0 0
92 97 14 5 67 100 100 100 70 100 100 100 100 100 100 100 100 100 100 47 31 4 5 56 100 100 100 100 100 100 100 100 100 100 100 100 98 5 27 15 5 5 51 22 5
100 100 100 6 50 8 53 3 31 100 100 100 100 100 100 100 100 100 100 100 100 46 11 47 86 100 100 100 100 100 100 100 100 100 100 100 92 51 87 5 5 5 1 7 4
100 100 100 80 1 0 2 0 4 2 100 100 100 100 99 100 100 100 100 100 100 100 51 96 98 78 12 98 100 100 100 100 100 100 100 100 100 100 24 5 5 5 34 5 5
100 100 41 5 4 0 0 0 0 3 76 100 100 100 100 100 100 100 100 100 100 100 100 70 82 75 100 95 72 100 100 100 100 100 100 100 100 100 100 14 46 6 5 5 5
58 5 95 100 100 27 29 2 5 9 99 100 100 100 95 99 100 100 100 100 100 100 91 100 100 98 72 98 53 6 65 100 100 100 100 100 100 100 100 100 100 58 5 5 73
0 2 5 10 100 100 14 20 46 82 80 100 94 100 100 100 100 100 100 100 100 100 100 100 100 100 5 5 32 5 10 56 100 100 100 100 100 100 100 100 100 100 98 65 9
0 2 5 34 24 96 78 62 36 98 87 100 100 100 100 100 100 100 100 100 100 100 100 100 100 98 100 99 87 52 5 3 2 68 100 100 100 100 100 100 100 100 100 100 94
2 5 8 89 88 12 85 62 65 100 100 100 100 100 100 100 100 100 100 100 100 100 100 100 100 100 99 98 88 5 5 4 1 1 8 87 100 100 100 100 100 100 100 92 5
19 32 97 100 74 5 23 58 90 100 100 100 100 100 100 100 100 100 100 100 100 100 100 100 100 100 100 100 93 5 5 26 5 2 0 0 5 99 100 100 100 100 100 100 100
95 100 100 100 100 10 88 100 100 100 100 100 100 100 99 100 100 100 100 100 100 100 100 100 100 100 100 100 100 98 9 8 61 5 2 2 2 5 10 74 84 91 94 92 35
78 100 100 100 99 43 12 99 100 100 100 100 97 78 98 100 100 100 100 100 100 100 100 100 100 100 100 100 100 100 48 5 5 4 33 22 23 3 100 100 100 5 4 6 54
100 100 95 80 100 94 92 100 100 100 100 100 100 97 100 100 100 100 100 100 100 100 100 100 100 100 100 100 100 81 63 30 18 81 49 100 99 100 100 100 100 100 76 59 38
100 89 10 68 92 100 100 100 100 100 100 100 100 100 100 100 75 100 100 100 100 100 100 100 100 99 99 86 67 5 2 5 14 87 100 96 98 100 100 100 11 12 9 56 42
17 15 100 100 100 100 100 100 100 100 100 100 100 100 100 99 51 99 100 100 100 100 100 100 96 99 98 20 5 6 36 90 100 100 100 100 100 100 100 100 100 100 80 11 4
72 59 100 91 43 100 100 100 100 100 100 100 78 100 100 100 99 100 100 100 100 100 97 76 67 35 5 8 95 100 100 100 100 100 100 100 100 100 88 89 24 2 0 0 0
20 38 88 100 100 100 100 100 100 100 100 88 75 98 100 100 100 100 100 100 100 100 100 100 100 64 79 94 100 100 100 100 100 100 96 82 81 5 0 0 3 5 4 8 62
12 99 97 100 100 100 100 100 100 100 94 60 53 79 61 82 85 71 73 100 100 100 100 100 100 69 98 100 100 100 49 59 78 19 6 33 18 0 0 4 42 98 81 90 100
8 61 100 100 100 100 100 100 100 100 92 100 94 73 85 49 48 96 100 100 100 100 96 97 88 99 100 99 100 71 52 11 46 94 19 100 16 5 5 73 88 61 55 95 100
15 5 93 78 100 93 100 99 93 100 98 86 75 88 94 97 100 100 100 100 94 100 100 85 96 81 100 100 73 52 5 43 99 99 95 19 12 76 100 100 74 5 15 72 72
34 56 47 55 39 96 99 100 92 24 95 99 100 100 100 100 100 100 100 83 81 94 100 95 63 100 100 69 37 5 10 100 99 82 100 20 55 100 100 100 100 62 7 56 30
94 94 83 10 11 55 27 14 6 79 100 100 100 100 100 100 100 100 100 100 78 19 71 90 87 91 90 6 5 46 51 100 100 95 85 93 94 100 100 100 78 100 65 60 62
93 100 100 5 5 9 27 42 7 100 96 100 100 100 100 100 100 100 82 24 26 97 92 94 81 68 11 37 8 51 100 100 100 83 100 95 90 99 51 65 68 100 99 77 65

GFSSW_prec_cloud_018.txt.gz
Cloud_Cover
100 97 100 52 4 2 87 100 100 100 100 100 100 100 100 28 1 24 84 100 100 100 100 100 100 100 100 92 73 45 5 89 100 100 100 49 1 0 5 6 5 55 11 5 16
80 100 100 100 100 100 24 100 100 100 100 100 100 100 100 100 70 94 4 100 100 100 100 100 100 100 100 100 100 26 86 100 100 100 100 14 3 0 3 16 10 2 5 5 5
61 23 66 14 100 100 100 90 98 100 100 100 100 100 100 100 99 24 4 33 100 100 100 100 100 100 100 100 100 87 100 100 100 100 100 97 9 5 1 5 60 3 5 5 5
74 64 28 99 38 100 100 100 100 5 100 100 100 100 100 100 100 100 8 5 58 100 100 100 100 100 100 100 100 100 100 100 100 100 100 100 100 11 6 5 5 6 0 5 5
41 8 42 94 15 5 88 70 84 36 99 100 100 100 100 100 100 100 100 38 1 14 100 100 100 100 100 100 100 100 100 100 100 100 100 100 100 100 80 8 11 43 5 4 5
22 97 100 94 100 57 18 49 1 0 4 100 100 100 100 100 100 100 100 100 31 0 92 100 100 100 100 100 100 100 100 100 100 100 100 100 100 100 99 6 5 5 5 0 5
100 100 100 100 100 91 3 0 0 0 0 98 100 100 100 100 100 100 100 100 100 8 0 0 88 100 100 100 100 100 100 100 100 100 98 94 100 100 100 98 51 5 5 5 5
5 4 5 89 25 5 0 3 0 0 1 50 100 100 100 100 100 100 100 100 100 100 81 23 8 5 100 100 100 100 100 100 100 100 100 61 100 100 100 92 47 74 67 50 12
2 5 0 0 0 3 0 0 0 0 0 87 100 100 100 100 100 100 100 100 100 100 100 100 78 22 21 100 100 100 100 100 100 100 100 100 100 100 100 100 100 100 100 80 16
5 2 5 5 4 5 29 5 0 8 0 30 100 100 100 100 100 100 100 100 100 100 100 100 94 92 68 16 88 100 100 100 100 100 100 100 100 100 100 100 100 100 100 100 100
5 4 5 5 5 5 10 12 9 72 70 32 100 100 100 100 100 100 100 100 100 100 100 99 100 100 88 5 27 100 82 100 100 100 100 100 100 100 100 100 100 100 100 100 100
83 93 51 79 85 6 6 8 78 100 36 99 100 100 100 100 100 100 100 100 100 100 100 100 100 100 99 100 55 94 83 32 91 100 100 100 100 100 100 100 100 100 100 100 100
100 100 100 100 89 70 82 13 46 100 86 100 100 100 100 100 100 100 100 100 100 100 100 100 100 100 99 26 36 5 5 5 5 37 53 31 100 100 100 100 100 100 100 100 100
100 100 100 100 97 60 22 80 93 92 80 100 100 100 100 100 100 100 100 100 100 100 100 100 100 100 100 100 10 6 64 5 5 2 3 0 4 36 76 100 100 100 100 100 100
100 100 100 100 100 100 40 6 100 92 60 71 100 100 100 100 100 100 100 100 100 100 100 100 100 100 100 96 29 35 53 22 5 9 5 5 5 98 5 5 6 29 72 100 100
100 94 87 100 95 100 24 85 60 74 100 100 100 100 100 100 100 89 100 100 100 100 100 100 100 86 89 100 100 100 95 92 78 86 23 10 2 96 100 62 2 3 5 1 4
98 21 26 91 94 100 13 82 92 100 100 100 100 100 100 100 100 100 100 100 100 100 100 100 100 100 100 100 100 100 100 20 77 100 28 6 4 5 49 22 22 3 1 0 2
42 95 91 93 100 72 75 100 100 100 100 99 91 97 100 100 100 100 100 100 100 100 100 100 100 74 97 100 100 100 100 90 100 100 100 98 92 91 62 6 3 44 81 63 57
64 21 100 46 48 100 100 100 100 100 100 96 100 99 98 98 100 100 100 100 100 100 100 100 100 100 100 100 100 100 86 100 100 100 96 24 5 38 34 23 5 5 4 5 8
4 10 92 100 100 96 100 100 100 100 100 93 98 91 100 100 100 100 100 100 100 100 100 100 100 100 100 100 100 100 100 100 90 26 12 5 12 32 1 14 66 66 5 4 2
4 100 100 100 100 100 100 100 100 100 88 97 79 100 100 100 100 100 100 100 100 100 100 100 100 100 100 100 100 100 88 9 5 5 51 70 93 99 100 94 11 25 5 5 5
5 14 99 100 90 100 100 100 100 99 76 27 61 59 86 96 100 95 69 99 100 100 100 100 100 100 100 68 10 5 5 7 38 5 70 100 98 100 10 5 75 94 40 18 23
7 5 4 99 90 100 100 100 98 20 30 16 72 100 100 68 81 77 100 100 100 100 100 100 100 100 61 58 14 11 97 55 70 86 64 85 30 5 24 83 17 31 30 56 75
10 5 5 98 52 72 69 62 20 23 57 69 68 71 90 100 100 100 100 100 100 100 100 100 100 100 100 100 84 100 72 70 69 81 58 43 5 5 5 38 64 98 94 5 5
18 41 100 67 35 97 91 98 5 5 8 38 79 94 100 100 100 100 100 100 100 100 100 100 100 100 100 100 69 82 64 46 7 100 100 5 71 72 7 92 100 92 90 98 38
88 96 100 37 7 5 5 5 5 38 42 55 91 97 100 100 100 100 100 100 100 100 100 100 100 100 100 100 48 68 5 61 100 96 80 55 22 81 100 100 100 100 100 100 100
18 52 77 8 5 5 5 5 5 5 22 59 26 80 100 100 100 100 100 100 100 72 52 93 100 100 100 56 40 6 8 100 77 5 20 33 40 100 100 95 100 100 100 100 100

GFSSW_prec_cloud_021.txt.gz
Cloud_Cover
27 60 97 52 96 100 100 13 95 100 88 85 43 100 100 100 96 94 100 100 100 100 100 100 100 100 100 100 100 91 77 100 100 100 100 14 0 0 96 100 100 100 100 100 100
98 89 71 5 7 70 92 95 2 51 75 76 63 100 75 100 100 78 17 56 100 100 100 100 100 100 100 100 100 100 100 100 100 100 100 12 1 3 4 76 97 98 68 70 86
12 5 5 11 97 100 98 89 100 79 53 78 99 100 100 100 100 100 100 3 10 100 100 100 100 100 100 100 100 100 100 100 100 100 100 13 1 0 5 5 36 29 5 1 5
4 4 45 13 98 100 100 81 98 89 5 6 99 43 100 100 100 100 100 88 2 5 100 100 100 100 100 100 100 100 100 100 100 100 100 55 5 5 1 5 5 8 23 0 4
4 17 3 62 97 100 100 97 5 3 1 0 100 95 100 100 100 100 100 100 33 5 34 100 100 100 100 100 100 100 100 100 100 100 100 100 54 7 10 5 5 54 11 4 5
5 5 5 5 5 18 95 68 5 0 0 0 100 100 100 95 100 100 100 100 100 15 14 7 99 100 100 100 100 100 100 100 100 100 100 100 100 100 99 18 5 5 5 5 4
18 5 5 5 4 0 6 8 5 0 0 5 100 100 100 100 100 100 100 100 100 100 5 13 5 100 100 100 100 100 100 100 100 100 100 100 100 100 100 13 10 70 99 100 99
10 6 5 0 0 1 0 0 5 8 0 0 87 100 100 100 100 100 100 100 100 100 91 5 61 61 100 100 100 100 100 100 100 100 100 100 100 100 100 87 9 10 100 100 100
78 100 100 100 5 5 1 4 2 0 15 91 57 100 100 100 100 100 100 100 100 100 100 98 26 20 98 100 100 100 100 100 100 100 100 100 100 100 100 100 97 100 100 100 100
94 100 100 75 34 14 5 5 3 8 16 0 82 100 100 100 100 100 100 100 100 100 100 100 88 7 29 100 100 100 100 100 100 100 100 100 100 100 100 100 100 100 100 100 100
100 100 100 100 100 91 5 5 5 4 60 16 28 100 100 100 100 100 100 100 100 100 100 100 100 100 60 38 88 100 100 100 100 100 100 100 100 100 100 100 100 100 100 100 100
100 100 100 100 100 100 74 12 87 89 23 57 100 68 100 100 100 100 100 100 100 100 100 100 100 100 100 87 39 99 100 100 100 100 100 100 100 100 100 100 100 100 100 100 100
100 100 100 100 100 100 100 33 68 79 76 50 100 100 100 100 100 100 100 100 100 100 100 100 100 100 100 100 98 88 31 9 49 95 100 100 100 100 100 100 100 100 100 100 100
100 100 100 100 100 100 73 57 75 52 26 58 100 100 100 100 100 100 100 100 100 100 100 100 100 100 100 98 87 19 97 55 5 5 100 100 100 100 100 100 100 100 100 100 100
100 100 100 100 100 100 34 6 99 69 36 99 100 98 100 98 100 100 100 100 100 100 100 100 100 100 100 100 98 100 100 99 17 5 4 23 20 100 100 100 100 100 100 100 100
56 6 49 89 88 99 16 5 82 66 97 100 100 100 89 98 100 100 100 100 100 100 100 100 100 100 93 63 98 14 34 14 30 12 30 35 5 98 94 6 4 24 29 27 17
5 13 5 18 33 49 12 5 76 80 100 100 100 87 100 100 100 100 100 100 100 100 100 100 100 100 100 100 94 100 96 92 24 7 62 11 10 98 93 100 29 1 0 0 0
82 5 21 1 5 5 22 85 95 100 100 100 98 73 100 100 100 100 100 100 100 100 100 100 100 100 100 100 100 100 100 100 84 100 8 60 41 100 54 43 6 5 5 3 3
27 48 25 10 69 100 100 100 100 100 100 100 100 100 100 93 100 95 100 100 100 100 100 100 100 100 100 100 100 100 100 40 100 100 73 100 100 98 7 5 3 5 80 54 5
32 3 5 35 100 67 89 100 100 100 98 44 100 100 100 100 100 100 100 100 100 100 100 100 100 100 100 100 100 100 100 68 68 43 56 100 100 23 5 27 69 7 5 5 3
58 70 96 100 82 60 100 100 100 100 90 100 100 100 100 100 100 100 87 86 100 100 100 100 100 100 100 100 100 100 100 90 5 56 90 100 100 78 51 70 22 5 5 5 5
0 4 94 13 57 100 100 100 83 82 52 6 42 57 98 94 89 100 100 100 100 100 100 100 100 100 100 100 100 100 100 97 99 100 100 100 73 21 57 20 71 43 5 5 5
0 6 5 100 95 74 59 40 80 87 5 88 100 93 95 100 100 100 100 100 100 100 100 100 100 100 100 100 100 100 100 100 100 96 10 96 61 100 100 90 30 89 24 31 10
8 4 5 48 100 98 86 5 5 5 5 26 77 61 100 100 100 99 100 100 100 100 100 100 100 100 100 100 100 100 86 29 38 74 36 100 100 100 77 59 99 98 98 10 95
12 78 96 80 90 100 45 5 5 5 5 45 74 78 21 47 100 100 100 100 100 100 100 100 100 100 100 100 98 92 94 52 89 85 100 100 72 75 100 100 100 100 100 95 100
25 88 96 44 5 5 5 5 5 5 5 46 18 100 71 38 61 100 100 100 100 100 100 100 100 100 100 100 100 100 100 100 100 100 100 50 68 100 100 100 80 100 100 81 49
19 80 74 4 5 5 5 5 5 5 5 24 96 99 67 44 86 100 100 100 100 100 100 100 100 100 100 100 100 100 100 100 91 100 28 14 28 69 75 72 100 74 98 91 90

GFSSW_prec_cloud_024.txt.gz
Cloud_Cover
46 37 67 50 71 51 15 100 59 65 48 100 38 76 100 88 90 100 100 100 100 100 100 100 100 100 100 100 93 14 5 45 100 100 100 23 3 2 100 100 100 100 100 100 100
100 12 5 5 5 27 72 93 96 3 21 53 100 22 100 100 45 100 100 100 100 100 100 100 100 100 100 100 100 77 59 100 100 100 100 5 5 1 4 38 95 100 100 100 100
12 9 5 8 2 5 21 100 100 5 0 3 60 70 99 100 98 100 100 100 100 100 100 100 100 100 100 100 100 100 100 100 100 100 100 54 5 3 2 3 3 8 88 99 100
58 96 66 23 49 4 3 5 100 80 7 0 1 92 66 100 90 100 100 100 100 100 100 100 100 100 100 100 100 100 100 100 100 100 100 58 5 5 1 10 5 5 5 5 4
100 49 19 51 8 13 5 44 100 100 11 0 16 100 100 100 100 94 100 100 100 100 100 100 100 100 100 100 100 100 100 100 100 100 100 94 7 5 14 5 5 55 5 4 22
57 60 55 2 94 100 2 2 4 100 15 8 32 99 100 100 100 100 100 100 100 100 95 100 100 100 100 100 100 100 100 100 100 100 100 100 96 22 92 5 5 7 5 5 9
85 84 100 57 100 100 5 4 2 17 34 100 97 30 100 94 100 100 100 100 100 100 100 49 100 100 100 100 100 100 100 100 100 100 100 100 100 100 98 5 5 5 33 82 73
100 98 100 100 100 100 77 72 0 5 10 98 100 40 100 99 100 100 100 100 100 100 100 98 55 100 100 100 100 100 100 100 100 100 100 100 100 100 100 100 82 5 57 96 100
100 100 100 100 100 100 98 100 21 2 4 100 53 66 90 49 100 100 100 100 100 100 100 100 79 71 100 100 100 100 100 100 100 100 100 100 100 100 100 100 76 100 97 100 100
100 100 100 100 100 100 100 100 63 1 0 2 26 100 86 82 100 93 100 100 100 100 100 100 100 97 72 94 100 100 100 100 100 98 95 38 100 100 100 100 100 100 100 100 100
100 99 97 97 100 100 88 93 5 4 56 3 40 100 100 98 100 100 100 100 100 100 100 100 100 100 98 30 5 25 100 100 100 100 100 100 100 100 100 100 100 100 100 100 100
99 100 100 100 100 99 53 89 93 70 38 91 93 100 100 100 100 100 100 100 100 100 100 100 100 100 100 71 9 5 32 100 100 100 100 100 100 100 100 100 100 100 100 100 100
100 96 100 71 98 100 91 60 27 43 9 78 97 93 100 100 100 98 100 100 100 100 100 100 100 100 100 100 100 94 97 28 100 100 100 100 100 100 100 100 100 100 100 100 100
45 100 99 92 90 70 54 57 38 27 6 61 100 100 100 100 100 100 100 100 100 100 100 100 100 100 100 100 100 100 97 7 37 100 100 100 100 100 100 100 100 100 100 100 100
5 5 85 98 65 100 60 78 13 29 5 100 100 100 100 100 100 100 100 100 100 100 100 100 100 100 100 100 100 100 100 92 18 53 94 100 100 100 100 100 100 100 100 100 100
6 5 4 10 33 100 16 44 24 12 94 98 100 100 95 100 100 100 100 86 100 100 100 100 100 100 100 100 100 100 100 98 88 14 98 99 81 100 100 100 100 100 96 71 63
20 4 5 4 43 50 4 5 17 58 98 100 100 99 21 100 100 68 100 100 67 100 100 100 100 100 89 100 97 100 57 95 100 99 99 74 70 86 97 7 5 8 29 92 94
5 28 3 8 4 5 13 30 29 63 82 100 97 90 98 97 100 100 100 85 100 100 100 100 100 100 100 99 95 74 76 100 100 74 95 100 100 35 92 42 5 5 5 0 1
5 8 32 14 11 11 96 100 98 100 100 96 76 73 100 100 100 100 78 100 100 100 100 100 100 100 100 100 100 100 100 72 66 45 60 82 99 100 12 8 5 5 5 5 5
1 0 5 86 96 39 43 100 100 100 50 96 100 100 100 100 100 100 100 100 100 100 100 100 100 100 100 100 100 100 100 100 92 98 97 100 100 69 5 5 5 5 5 5 6
4 5 55 5 5 42 100 100 100 100 53 10 20 71 100 100 97 100 100 100 100 100 100 100 100 100 100 100 100 100 100 100 100 100 100 100 81 6 5 62 67 7 20 73 84
5 5 18 5 34 100 100 100 98 24 5 10 5 20 39 41 76 100 100 100 100 100 100 100 100 100 100 100 100 100 100 100 100 100 100 58 93 41 5 5 71 100 96 45 5
0 5 5 5 100 100 67 19 23 5 5 6 29 43 86 100 88 100 100 100 100 100 100 100 99 100 100 100 100 100 100 100 100 100 100 100 97 8 23 94 100 98 66 100 100
5 13 4 5 99 100 71 5 5 5 5 5 23 69 85 99 100 100 100 98 100 100 100 100 100 100 100 100 100 100 100 100 63 99 64 32 30 100 100 100 98 81 100 97 13
16 93 94 74 5 48 24 12 5 5 5 25 65 34 68 47 33 100 100 100 100 100 100 100 100 100 100 100 95 100 100 100 100 73 99 100 93 98 100 100 100 94 100 96 10
49 63 96 28 5 3 4 5 5 5 5 5 19 66 72 99 72 86 55 11 97 81 100 100 100 100 100 100 100 100 100 100 100 65 67 100 100 100 99 100 100 100 98 100 28
50 99 96 6 2 0 4 4 5 5 5 16 24 90 46 85 100 94 84 90 61 98 100 100 100 100 100 100 76 58 100 98 85 99 100 100 100 100 100 100 99 81 71 99 99

GFSSW_prec_cloud_027.txt.gz
Cloud_Cover
30 100 57 17 5 9 5 93 71 34 5 6 48 51 69 100 100 34 100 100 100 100 100 100 100 100 100 100 88 72 12 51 100 100 98 4 5 73 100 100 100 100 100 100 57
96 52 72 99 71 83 6 5 71 90 14 5 0 52 16 91 100 88 69 100 100 100 100 100 100 100 100 100 93 6 26 98 100 100 100 10 4 5 9 98 100 100 100 100 100
34 89 74 100 95 100 84 8 10 44 67 77 6 14 100 71 99 81 100 100 100 100 100 100 100 100 100 100 100 97 94 100 100 100 100 62 5 5 5 5 47 100 100 100 100
92 92 81 99 100 92 60 9 71 100 57 100 78 11 94 100 100 100 46 59 100 100 100 100 100 100 100 100 100 100 100 100 100 100 100 39 5 5 5 8 4 5 5 61 92
96 77 79 73 91 29 100 100 100 93 37 100 78 79 27 100 99 64 100 93 100 100 100 100 100 100 100 100 100 100 100 100 100 100 100 99 6 5 17 5 69 5 5 5 1
7 42 100 100 99 100 100 100 100 100 0 90 83 99 16 97 73 98 100 83 57 100 100 100 100 100 100 100 100 100 100 100 100 100 100 100 71 5 79 5 26 21 5 5 5
65 98 100 100 94 98 100 100 100 100 2 8 100 100 70 46 89 99 100 97 98 100 100 100 100 100 100 100 100 100 100 100 100 100 100 100 100 98 28 5 5 13 26 31 99
68 100 100 100 100 100 100 100 100 84 2 59 100 92 52 9 98 100 100 100 100 100 100 100 100 100 100 100 98 94 100 100 100 100 100 100 100 100 85 13 24 54 98 100 100
30 74 100 100 100 100 100 100 84 100 6 99 4 64 3 100 43 74 100 100 100 100 100 100 100 82 100 100 100 42 96 100 100 100 100 92 100 100 100 100 100 100 100 98 97
44 100 97 99 97 97 96 100 78 15 49 6 6 61 18 23 59 5 100 100 100 100 100 100 100 100 99 100 100 100 100 100 100 100 100 99 100 100 100 100 100 100 99 95 100
88 100 100 89 48 98 77 59 41 5 4 0 3 99 21 5 97 100 100 100 100 100 100 100 100 100 100 99 100 100 100 100 100 100 100 100 100 100 100 100 100 100 81 8 85
16 34 100 100 35 39 100 55 20 25 11 2 4 100 98 76 100 100 73 100 100 100 100 100 100 100 100 100 100 100 100 100 100 100 95 77 100 100 100 100 88 77 76 61 34
7 16 100 93 19 47 43 5 6 5 76 54 100 100 100 100 100 100 100 100 100 100 100 100 100 100 100 100 96 100 100 100 100 100 100 93 92 100 100 99 54 70 97 96 94
17 5 98 18 14 76 7 33 5 11 16 100 100 100 100 100 100 100 100 100 100 100 100 100 100 100 100 100 100 100 100 100 100 100 100 100 100 100 100 100 98 63 99 100 100
58 5 5 5 5 18 7 28 5 5 8 37 100 100 100 100 100 100 100 100 100 100 100 100 100 100 100 100 100 100 78 100 100 100 100 100 100 100 100 100 100 100 99 98 75
0 4 11 5 28 76 50 41 5 5 88 90 100 99 99 100 97 100 100 100 100 100 100 100 100 100 100 100 100 100 100 54 100 100 100 100 100 100 100 100 100 100 100 100 100
1 1 0 0 76 19 5 5 5 58 80 100 100 99 99 86 100 100 100 100 100 100 100 100 100 100 100 99 100 100 100 100 100 52 100 98 82 78 100 100 100 100 100 100 100
1 5 5 72 10 7 5 5 16 94 100 100 97 67 100 78 98 100 99 84 100 100 100 100 100 100 100 97 100 99 92 99 100 100 100 100 100 80 78 56 98 100 90 100 100
0 0 5 3 100 100 34 36 88 98 100 80 64 84 100 100 100 83 52 100 80 100 100 100 100 94 96 88 92 100 14 98 100 90 99 97 100 100 99 15 18 20 31 5 5
3 5 5 5 5 25 44 100 100 100 85 18 35 100 94 100 100 92 100 92 99 94 100 100 92 86 57 100 100 100 71 18 33 63 48 100 100 62 44 100 95 48 5 5 24
1 1 5 5 5 68 98 100 87 26 5 5 6 21 15 44 100 100 96 96 100 100 100 100 100 99 100 75 98 100 98 81 100 100 78 43 22 44 81 43 53 10 51 61 5
0 5 5 5 70 36 99 98 57 5 5 5 37 49 86 100 100 100 100 100 100 100 100 100 100 100 100 79 79 100 100 100 56 98 100 98 100 89 92 28 14 8 14 6 5
0 0 5 5 86 100 100 98 45 5 5 5 5 25 11 10 82 100 100 100 100 100 100 98 100 100 100 100 100 98 100 100 100 100 100 100 57 80 99 99 24 13 32 92 89
5 10 3 5 5 20 6 5 5 5 5 5 15 5 5 63 52 91 100 100 100 100 100 100 100 100 100 100 100 100 100 100 100 100 100 85 98 100 85 73 48 100 94 89 100
12 96 97 71 5 5 5 5 5 5 5 5 5 5 5 18 10 49 100 100 100 100 100 100 100 100 100 100 100 100 100 100 100 100 100 100 100 100 100 100 100 100 100 99 100
92 91 96 52 5 5 2 5 5 5 1 5 5 5 5 5 6 8 61 83 94 100 100 100 97 100 100 100 100 100 100 100 100 100 100 100 100 100 100 100 100 95 5 7 27
100 99 96 15 5 5 4 3 4 5 5 4 54 100 32 5 5 5 5 55 96 100 100 100 100 100 100 100 100 100 100 98 81 6 71 100 100 100 100 96 100 99 5 5 5

GFSSW_prec_cloud_030.txt.gz
Cloud_Cover
100 100 100 96 41 32 35 78 74 70 100 27 5 17 48 30 93 100 100 36 72 100 100 100 100 100 100 99 88 80 92 93 100 100 100 37 51 85 100 100 100 99 83 60 6
100 100 45 25 79 86 93 100 72 62 100 78 5 1 5 6 14 98 100 73 64 100 100 100 100 100 100 98 84 68 20 100 100 100 100 82 51 56 20 96 100 100 100 49 31
14 6 33 66 96 99 100 100 97 98 78 10 39 5 0 0 58 97 100 100 43 100 100 100 100 100 100 100 100 77 89 96 100 100 100 17 5 21 56 52 85 100 100 100 99
99 52 71 100 100 98 15 97 97 82 98 63 13 5 0 26 56 6 69 100 53 57 96 100 100 100 100 100 100 100 84 69 100 100 100 70 5 27 79 7 86 77 74 100 100
41 100 96 100 100 91 96 100 100 100 100 74 24 58 5 16 8 100 87 100 100 5 99 100 100 100 100 100 100 100 100 100 100 100 100 66 5 5 74 54 57 92 72 17 92
38 70 49 92 100 100 100 100 100 100 100 45 87 21 98 25 9 92 100 99 100 7 100 100 100 100 100 100 100 100 100 100 100 100 100 76 6 5 12 5 57 68 67 41 5
5 5 20 40 100 100 100 100 100 100 53 99 32 6 76 5 14 98 100 100 63 5 100 100 100 100 100 100 100 100 100 100 100 100 100 94 16 5 5 5 15 47 6 14 5
100 100 97 60 36 99 100 100 100 100 72 43 51 14 95 0 80 98 100 100 46 15 99 100 100 100 100 100 100 100 99 100 100 100 100 100 100 17 30 8 82 100 100 78 19
18 46 100 100 100 29 96 100 100 100 18 81 23 93 15 3 71 100 100 90 97 100 87 100 100 100 100 100 100 100 96 100 100 100 100 91 90 98 93 10 21 100 100 100 100
5 17 100 100 100 34 90 42 13 25 49 100 92 71 3 14 60 99 70 95 100 100 100 100 100 100 100 100 100 100 100 100 100 100 100 100 100 100 100 100 99 100 100 100 100
33 5 100 100 100 40 24 100 37 7 84 84 63 86 15 44 5 79 99 93 100 94 100 100 100 100 97 100 100 100 100 100 100 100 100 100 100 100 100 100 100 100 100 100 100
97 8 63 28 5 16 38 5 7 41 22 5 42 100 100 60 100 99 100 100 93 85 100 100 100 100 100 99 100 100 100 100 100 91 39 93 100 100 100 100 100 100 24 98 80
97 5 5 5 5 5 5 14 6 13 77 96 100 100 77 64 54 66 86 100 100 100 100 100 100 100 100 99 100 100 100 100 100 100 100 63 97 100 100 100 100 69 78 58 5
0 5 4 5 5 5 18 43 8 12 98 100 100 100 96 99 95 99 100 100 100 100 100 100 100 100 100 100 100 92 100 100 100 100 100 100 80 100 100 99 99 70 77 98 51
0 0 0 0 5 36 62 100 100 79 96 100 100 100 100 99 94 100 100 100 100 100 100 100 100 100 100 100 100 98 100 100 100 100 100 100 100 100 87 92 100 81 75 61 99
0 0 0 0 5 20 5 6 59 70 93 100 100 100 100 100 100 100 100 100 100 100 100 100 100 100 100 98 100 100 96 100 100 100 100 100 100 100 100 100 86 9 6 22 40
0 0 0 0 5 5 5 4 31 66 93 100 100 100 99 100 100 100 100 100 100 100 100 100 100 100 100 100 100 100 100 84 97 100 100 100 100 100 92 95 91 94 100 100 100
64 5 5 0 5 5 5 7 35 100 100 82 100 100 100 100 100 100 100 100 100 100 100 100 100 100 100 100 100 100 99 64 6 100 100 100 100 100 100 100 100 100 100 100 100
0 5 5 5 5 6 17 61 95 100 100 100 90 54 94 100 99 100 58 98 99 100 100 100 98 100 100 100 100 100 99 69 100 24 100 100 100 100 100 100 100 100 100 100 100
0 1 0 5 5 30 61 100 92 98 17 8 5 25 89 88 12 22 33 100 100 100 100 100 99 83 100 100 100 100 93 56 100 91 100 100 100 100 100 100 100 100 100 100 91
0 0 4 5 9 14 100 85 100 80 5 5 9 16 70 97 54 91 100 100 100 100 100 100 99 92 84 98 85 91 100 100 100 100 100 100 100 94 100 100 100 100 100 77 68
0 0 0 1 9 23 100 100 65 6 5 5 38 46 47 67 25 30 77 94 100 100 100 100 100 100 100 97 68 100 94 99 100 100 92 11 11 84 100 100 40 98 100 5 5
0 0 1 0 2 5 5 37 66 5 5 5 5 5 6 6 46 100 93 24 58 95 100 100 100 100 100 38 91 97 100 100 100 89 24 8 56 100 93 6 12 5 36 91 98
2 16 0 0 10 4 4 4 2 0 0 4 5 5 15 66 61 13 100 94 98 91 93 100 100 100 100 100 36 22 70 100 100 100 100 86 94 100 93 90 86 100 100 97 100
30 91 90 15 5 3 5 2 0 3 4 4 5 4 5 51 23 96 100 100 100 100 100 100 100 98 100 100 100 99 100 100 100 86 100 100 100 100 100 100 100 95 99 100 100
92 97 89 45 5 4 3 5 5 2 0 5 5 5 5 13 30 61 67 100 100 100 100 100 100 100 100 93 100 100 100 100 100 100 67 100 94 100 100 98 98 100 100 100 100
87 98 96 8 4 5 3 3 5 5 5 5 8 25 5 53 5 5 81 71 98 100 100 100 100 100 100 100 100 100 100 100 100 100 100 100 100 100 100 100 100 100 100 100 42

GFSSW_prec_cloud_033.txt.gz
Cloud_Cover
90 31 70 30 7 78 60 83 77 100 100 100 95 14 13 94 99 100 100 72 4 95 100 100 100 100 100 100 100 99 99 100 100 100 100 100 100 100 100 96 26 28 7 76 5
10 23 29 76 66 48 59 97 99 100 98 100 100 98 48 24 23 30 30 100 5 11 100 100 100 100 100 100 100 100 38 100 100 100 100 100 100 100 100 100 100 60 67 95 33
18 16 92 85 91 100 100 100 99 100 78 58 100 100 100 94 6 2 99 100 21 9 80 100 100 100 100 100 100 100 98 100 100 100 100 100 100 100 100 100 100 100 100 100 82
12 33 5 9 96 100 41 100 100 100 82 81 100 5 98 100 87 5 5 50 50 10 72 100 100 100 100 100 100 100 100 100 100 100 100 71 61 100 100 100 100 100 100 100 100
62 73 31 5 72 52 82 97 100 100 89 100 77 9 5 16 26 5 5 42 86 52 1 67 100 100 100 100 100 100 100 100 100 100 100 100 37 84 100 100 100 100 100 100 100
22 100 100 99 5 100 100 100 100 100 100 100 82 23 5 50 5 1 98 97 100 89 90 8 95 100 100 100 100 100 100 100 100 100 100 100 68 7 73 79 100 100 100 100 100
6 11 79 100 100 89 89 100 100 100 100 100 94 90 80 11 20 2 99 94 98 100 54 83 36 100 100 100 100 100 100 100 100 100 100 100 100 92 45 91 99 100 77 78 97
79 13 7 100 100 90 49 100 100 100 74 54 77 46 49 17 0 2 72 99 100 100 54 100 62 65 100 100 100 100 100 100 100 100 100 100 100 100 86 51 99 62 53 55 82
76 4 61 87 100 100 5 95 100 100 100 20 43 48 25 26 0 23 70 82 100 100 71 94 60 60 100 100 100 96 100 100 100 100 100 100 100 100 100 100 100 86 51 49 57
5 4 5 88 71 20 5 5 7 5 15 97 85 64 2 3 3 10 80 47 65 79 100 95 50 17 100 99 100 93 100 100 100 100 100 100 100 100 100 99 36 90 82 86 93
5 18 7 5 5 5 25 94 72 77 45 62 83 91 18 100 100 100 100 100 100 97 82 76 76 36 15 48 100 100 100 100 100 100 100 100 100 100 100 100 100 100 78 100 100
0 0 5 5 2 2 8 92 25 54 57 100 92 83 100 100 100 100 100 100 100 80 83 42 60 79 100 100 73 100 100 100 100 92 100 100 100 100 100 100 100 100 100 100 99
3 4 0 0 0 3 8 39 38 89 98 84 96 83 100 100 100 100 100 100 98 99 86 100 94 100 100 96 77 100 100 100 100 100 99 100 100 100 100 100 100 100 100 100 92
0 0 1 0 24 78 99 100 99 97 100 96 99 96 100 100 100 90 100 96 100 68 99 100 63 100 100 100 100 100 100 100 100 100 99 54 100 100 100 100 100 100 100 100 66
5 0 0 5 5 19 75 13 64 97 100 100 100 71 100 100 100 100 100 100 100 97 100 100 83 95 100 100 63 98 100 100 100 100 100 100 99 92 100 100 100 100 100 100 97
97 0 3 22 2 5 4 99 62 100 100 100 100 100 100 100 100 100 100 100 100 100 100 100 100 100 100 100 91 41 100 100 100 100 100 100 100 6 67 81 98 100 100 76 82
100 50 5 5 30 5 5 40 92 76 96 100 100 100 100 100 100 100 100 100 100 100 100 100 100 100 100 100 99 96 100 100 100 100 100 100 100 32 90 9 100 71 64 47 7
68 12 0 6 5 0 86 96 53 100 79 78 95 100 90 100 100 100 100 100 100 100 100 100 100 100 100 100 95 100 100 83 100 100 100 100 100 100 100 100 80 74 33 47 50
0 0 0 9 5 84 98 72 88 100 38 86 74 91 100 100 100 100 100 100 100 100 100 100 100 100 100 100 99 96 100 94 100 99 100 100 100 100 100 100 100 100 70 99 99
0 1 5 5 26 100 25 78 72 98 65 68 96 100 100 35 79 87 85 77 100 100 100 100 100 100 100 100 90 87 97 95 89 100 73 34 98 100 100 100 100 100 100 100 100
0 10 4 5 83 68 79 64 26 5 8 32 47 79 70 57 47 72 70 91 97 64 100 100 77 100 100 100 100 100 100 100 98 100 100 46 4 99 100 100 100 100 100 100 100
0 86 0 0 18 5 15 100 97 5 5 5 18 96 92 60 99 100 100 98 89 100 100 100 100 100 100 100 100 100 100 100 100 99 100 97 2 71 100 100 100 100 100 100 100
1 0 0 0 56 8 5 8 12 5 5 5 17 12 5 23 64 54 5 88 100 100 100 100 100 100 89 34 80 100 100 100 100 100 100 15 26 92 53 100 100 100 100 100 100
23 54 8 1 4 11 5 4 5 0 0 0 2 5 5 6 4 6 9 52 42 99 100 100 100 100 91 89 75 100 100 100 100 100 100 42 95 100 100 100 100 100 100 100 100
42 97 94 79 13 26 10 3 5 5 5 3 6 5 5 8 5 45 37 51 31 64 40 60 100 100 100 58 5 16 92 98 100 81 70 92 100 100 100 92 49 100 100 100 100
99 99 80 53 5 5 6 11 5 4 5 7 44 5 5 5 7 21 64 100 100 80 100 100 100 100 100 100 100 100 54 10 85 100 100 100 100 100 100 100 100 100 85 54 100
47 98 97 22 10 10 45 49 43 3 2 3 13 59 21 12 5 12 59 68 100 100 72 94 100 93 74 97 100 100 100 91 80 80 100 100 100 100 100 100 100 100 100 100 100

GFSSW_prec_cloud_036.txt.gz
Cloud_Cover
99 12 6 94 96 100 98 64 100 99 94 84 100 100 100 100 100 92 100 95 66 27 100 100 100 100 100 100 100 100 100 100 100 100 100 100 100 6 12 5 52 8 2 98 100
57 87 80 76 75 100 98 79 94 98 100 98 97 100 100 100 100 11 65 79 7 35 100 100 100 100 100 100 100 100 91 86 100 100 100 100 100 100 16 5 33 0 0 30 10
21 5 60 47 5 57 100 98 80 7 98 100 78 78 96 100 100 33 37 73 5 95 8 100 100 100 100 100 100 100 55 100 100 100 100 100 100 100 99 10 26 5 0 5 5
22 30 92 78 100 90 20 91 5 5 55 99 96 100 100 100 100 100 100 99 64 33 5 37 100 100 100 100 100 100 100 100 100 100 100 100 100 100 100 100 78 5 32 82 5
82 4 12 20 100 71 20 100 99 12 95 96 100 100 100 84 100 62 100 100 65 100 34 1 64 96 100 100 100 100 100 100 100 100 90 99 100 100 100 100 100 98 100 14 6
100 98 10 12 100 99 28 100 100 93 100 97 100 100 60 91 100 92 100 100 100 91 26 41 36 88 100 100 100 100 100 100 100 100 100 100 100 99 100 100 100 100 100 100 99
100 100 4 31 100 69 12 86 100 100 100 100 100 95 12 8 100 100 100 100 98 77 97 58 42 67 100 100 100 100 100 100 98 100 100 100 88 53 96 100 100 100 100 100 100
75 1 1 5 61 93 63 8 100 100 100 100 77 96 98 16 22 100 100 100 100 53 91 100 82 88 100 100 100 100 100 100 100 100 100 100 100 100 96 99 100 100 100 100 100
20 13 13 1 1 4 5 5 78 94 100 32 13 40 79 16 1 60 100 100 100 100 100 100 96 78 83 100 100 100 100 85 100 100 100 100 100 100 100 93 96 100 88 100 100
3 0 0 0 0 5 21 3 1 56 6 16 52 74 3 8 13 0 58 100 100 100 100 100 100 46 77 37 98 100 100 100 100 100 100 100 100 100 100 100 100 100 100 99 100
0 0 0 31 0 0 2 26 79 53 9 86 68 5 25 84 59 0 66 48 100 100 100 100 100 6 1 0 5 97 100 100 100 100 100 100 100 100 100 100 100 100 100 100 100
0 0 0 5 63 51 14 62 96 81 52 4 7 7 12 54 69 6 14 100 100 100 100 99 86 18 5 4 2 100 100 100 100 100 100 100 100 100 100 100 100 100 100 100 100
51 0 0 0 15 100 100 100 65 97 100 100 100 100 100 76 84 36 53 100 100 100 70 62 51 54 5 5 1 90 100 100 100 100 100 100 100 100 100 100 100 100 100 100 100
100 79 0 0 5 14 79 100 100 95 100 100 100 100 100 100 100 100 100 100 100 100 83 100 100 83 99 93 15 98 100 100 100 100 100 100 99 100 100 100 96 99 100 100 100
100 98 17 5 5 43 5 37 74 71 97 100 100 100 100 100 100 100 100 98 56 100 100 98 88 59 98 81 100 100 72 100 100 100 100 100 100 100 100 100 100 100 87 92 100
100 100 9 5 42 7 5 5 75 94 87 100 89 100 100 100 100 100 100 100 100 96 100 100 80 90 98 98 100 99 90 99 100 100 96 100 100 100 100 100 100 100 100 68 51
100 100 39 5 77 2 5 47 99 32 78 91 97 99 80 100 100 100 100 100 100 100 100 100 99 100 88 100 92 100 96 100 100 100 100 100 100 100 100 34 99 100 100 100 100
5 8 9 5 14 6 88 95 34 99 100 83 100 100 97 100 100 100 100 100 100 100 100 100 100 100 90 98 100 100 100 100 97 98 100 100 100 100 100 100 100 58 100 100 99
1 0 0 5 0 79 96 89 67 97 33 98 100 100 100 100 99 100 100 100 100 100 100 100 100 100 100 100 100 99 25 31 72 100 87 69 9 100 100 100 100 100 83 74 87
9 2 0 5 4 74 32 62 38 8 33 41 58 39 93 96 100 100 97 100 100 100 100 100 100 100 100 100 100 96 90 78 73 94 100 100 95 50 100 100 100 100 100 100 98
3 32 0 5 17 61 54 58 5 5 2 73 86 70 6 60 91 62 21 74 100 100 100 100 96 100 100 100 95 98 100 84 100 90 100 100 98 81 100 100 100 100 100 100 100
1 99 0 0 20 6 5 4 2 2 4 5 7 12 68 14 67 99 100 100 100 100 100 100 100 99 97 93 97 98 93 100 100 100 100 100 100 100 100 100 100 100 100 100 100
0 1 3 4 100 23 3 1 0 4 4 5 72 86 95 32 82 98 94 96 100 100 100 100 100 100 96 100 100 100 100 100 100 100 100 100 63 100 100 100 100 100 100 100 100
46 90 80 3 67 99 22 16 17 0 3 4 7 37 56 28 42 92 100 93 84 100 100 98 100 100 100 79 100 100 100 100 100 100 100 100 59 9 96 100 100 100 100 100 100
72 100 94 87 19 24 44 54 71 67 6 5 8 5 72 73 5 5 6 25 43 39 100 100 92 100 100 91 78 24 100 100 100 100 100 91 15 32 53 100 100 44 40 47 100
99 99 87 99 6 5 6 97 54 21 4 34 45 38 5 100 70 68 18 5 5 5 7 67 100 100 100 100 83 17 84 100 100 100 100 100 100 100 100 99 91 5 50 60 100
15 97 97 95 100 15 100 92 92 5 16 5 26 35 15 30 5 16 70 54 9 33 49 5 20 64 38 99 100 97 100 100 100 100 100 100 100 100 100 100 90 86 100 100 100

GFSSW_prec_cloud_039.txt.gz
Cloud_Cover
25 4 12 52 64 96 72 48 100 80 11 92 65 100 100 100 100 100 78 68 59 2 90 37 100 83 100 100 100 100 100 100 100 100 100 100 84 100 84 5 2 1 7 87 100
35 11 11 41 100 100 89 89 100 98 100 92 98 80 100 100 100 100 76 100 16 19 49 97 100 64 100 100 100 100 100 100 100 100 100 100 100 100 92 5 5 5 5 9 78
100 93 2 4 25 100 100 87 68 67 94 8 100 48 99 100 100 100 100 100 76 36 15 100 100 100 100 100 100 100 100 100 100 100 100 100 100 100 99 57 7 5 5 5 8
100 83 12 5 24 100 100 64 100 62 29 5 100 100 100 98 100 100 100 100 100 76 100 100 100 100 28 100 100 100 100 100 100 100 100 100 100 100 100 100 20 16 6 63 5
100 95 86 0 3 98 97 5 39 100 44 99 99 99 100 84 100 98 100 100 100 100 46 17 100 100 62 100 100 100 100 100 100 100 100 100 100 100 100 100 100 76 95 97 11
49 69 0 5 5 5 48 14 55 27 13 100 100 100 100 100 51 100 100 100 100 100 64 4 1 94 97 100 100 100 100 100 100 100 100 100 100 100 100 100 100 100 100 94 64
94 7 3 0 0 4 5 10 67 84 98 85 85 100 100 100 43 93 100 100 100 100 98 51 1 91 100 87 100 100 100 100 100 100 100 100 100 96 88 100 100 100 100 100 100
50 75 1 2 0 0 0 2 5 95 100 96 89 100 100 100 76 81 100 100 100 100 100 100 17 30 100 66 100 100 100 100 100 100 100 100 100 100 100 100 100 100 100 100 100
0 30 1 100 86 1 0 0 1 14 74 86 7 99 82 39 45 98 100 100 100 100 100 100 78 4 36 95 85 100 100 100 100 100 100 100 76 98 97 84 100 100 100 100 100
0 0 8 98 100 47 0 2 2 16 2 5 34 57 7 9 4 3 100 100 100 100 100 100 32 5 46 81 83 100 100 100 100 100 100 99 93 68 80 27 100 100 100 100 100
52 0 4 80 95 99 86 4 50 4 5 44 5 4 5 5 7 3 100 100 100 100 100 100 100 5 4 36 92 87 100 100 100 100 100 100 100 100 19 95 97 100 100 100 100
99 23 6 3 98 98 10 10 84 88 73 13 3 0 3 10 5 3 45 100 100 100 100 100 100 98 6 5 5 99 100 100 100 100 99 100 100 96 5 69 88 98 99 100 100
99 100 83 1 7 95 7 5 65 90 100 100 94 90 19 8 39 6 31 96 100 100 100 100 96 99 27 5 4 5 96 100 100 100 100 100 100 100 53 91 100 99 89 100 100
48 100 100 10 6 5 15 88 46 100 100 100 100 100 100 86 62 7 7 34 100 100 100 100 100 49 5 5 5 5 5 57 100 100 100 100 100 100 62 23 63 11 98 62 61
36 100 100 38 5 2 5 5 41 42 82 100 100 100 100 100 99 87 33 75 100 100 100 100 100 48 28 2 5 9 9 64 67 100 100 100 98 100 100 14 18 30 56 68 29
0 100 96 5 4 62 12 5 66 87 95 100 100 100 100 100 100 100 100 100 100 100 100 100 100 100 97 30 81 57 8 5 44 92 100 100 10 100 98 100 63 7 5 8 5
0 100 87 2 29 53 7 82 80 45 92 95 100 100 100 100 100 100 100 100 100 100 100 100 100 100 87 52 34 98 98 52 72 98 100 100 72 100 100 100 84 24 5 54 97
0 1 0 0 5 3 88 91 34 93 99 99 100 100 100 100 100 100 100 100 71 12 100 88 100 68 64 68 13 48 28 12 15 54 86 100 99 100 100 100 100 99 49 36 84
0 0 0 0 3 26 97 10 99 65 61 88 100 100 100 100 100 100 100 100 99 74 57 97 100 100 74 80 5 12 84 68 51 9 19 17 16 100 100 100 100 100 100 100 71
15 0 0 2 5 13 46 38 13 86 97 93 88 82 100 100 100 92 98 100 99 70 89 85 97 100 100 87 94 76 92 100 100 82 55 81 32 100 100 100 100 100 100 100 100
8 5 0 1 8 59 12 9 0 1 2 34 62 72 82 100 100 89 64 100 94 100 100 90 100 100 100 100 100 100 98 96 100 79 26 97 57 100 100 100 100 100 100 100 100
21 44 0 5 20 12 5 0 2 0 0 2 5 5 96 80 100 99 36 96 98 100 100 100 100 100 100 100 100 100 100 100 100 82 68 5 94 100 100 100 100 100 100 100 100
62 4 4 84 12 2 0 0 2 5 5 4 4 4 5 62 80 94 100 100 100 100 100 99 94 93 99 100 100 100 100 93 100 100 100 29 70 100 100 100 100 100 100 100 100
66 71 86 7 100 54 11 4 5 3 0 3 4 4 6 11 40 100 89 100 100 100 100 100 100 100 100 64 92 100 100 100 100 100 100 100 39 100 100 100 100 100 100 100 100
18 99 97 99 79 68 93 91 81 83 5 0 5 5 32 23 5 5 16 14 49 39 96 100 100 100 49 94 14 100 100 100 100 100 100 98 100 100 100 100 100 100 100 100 100
64 73 100 36 9 20 8 100 100 46 41 28 100 5 60 31 5 5 4 5 5 23 73 50 16 100 100 100 46 19 100 100 100 100 100 100 46 100 100 100 100 100 100 100 100
5 21 99 99 85 68 100 100 98 5 17 77 96 23 36 36 81 5 5 5 5 5 5 5 5 5 53 26 87 100 100 93 100 100 100 100 100 100 100 100 100 100 100 100 100

GFSSW_prec_cloud_042.txt.gz
Cloud_Cover
100 100 100 19 3 2 99 98 100 100 100 62 95 83 100 100 100 100 100 100 100 14 0 0 4 98 27 100 100 100 100 100 94 100 100 100 99 100 100 15 5 5 19 0 53
100 100 100 65 0 30 100 100 100 100 100 98 61 98 79 100 100 100 100 100 100 92 4 0 3 95 78 98 100 100 68 100 100 100 100 100 100 100 100 96 5 6 95 5 5
100 100 100 10 0 56 98 100 100 100 91 100 96 53 50 93 100 100 100 100 100 100 8 4 0 99 62 100 100 100 100 100 100 100 100 100 100 100 100 100 28 13 7 5 5
94 17 1 3 0 5 80 100 51 91 93 89 43 30 98 99 100 100 100 100 100 100 99 5 1 94 74 30 100 100 100 100 100 100 100 100 100 100 100 100 100 37 16 5 24
94 51 5 16 5 4 5 5 5 100 100 5 6 74 100 98 100 100 100 100 100 100 100 5 34 37 48 0 75 100 100 100 100 100 100 100 100 100 48 100 100 63 5 22 18
0 8 1 3 1 0 5 7 52 95 100 5 100 99 100 95 56 100 100 100 100 100 100 54 3 0 100 14 26 100 100 100 100 100 100 100 100 100 87 100 100 100 64 53 64
2 8 5 5 1 0 2 5 6 79 14 5 95 100 96 100 100 83 100 100 100 100 100 89 86 1 46 12 27 100 100 100 100 100 100 100 100 100 95 100 100 100 100 100 100
0 0 6 17 46 0 0 0 4 5 18 48 76 100 94 100 100 100 100 100 100 100 100 100 40 48 0 2 75 88 100 100 100 100 100 100 100 100 98 100 100 100 100 100 100
23 0 5 16 20 2 2 1 0 0 2 4 5 98 95 99 78 71 100 100 100 100 100 100 100 100 0 4 47 7 100 100 100 100 100 100 100 100 100 100 98 100 100 100 100
93 27 5 5 5 5 58 2 24 14 0 2 3 5 22 73 78 100 100 100 100 100 100 100 78 92 4 5 56 3 100 100 100 100 100 100 100 100 98 38 66 100 100 100 100
100 14 37 1 4 4 72 77 36 94 95 4 4 5 4 5 100 100 100 100 100 100 100 100 59 27 5 10 67 82 73 100 100 100 100 100 100 100 87 10 17 98 100 100 100
1 100 100 56 0 5 5 78 100 57 100 100 14 0 0 10 99 100 100 100 100 100 100 100 87 22 33 18 92 100 26 100 100 100 100 100 100 100 52 5 22 27 52 90 100
100 100 100 100 10 4 5 8 100 100 91 100 100 21 5 9 56 100 100 100 100 100 100 100 100 8 98 10 5 100 48 100 100 100 100 100 100 100 99 16 5 48 54 53 95
15 94 100 100 5 5 5 5 32 91 100 100 100 100 23 5 100 100 100 100 100 100 100 100 100 49 100 92 5 5 7 100 100 100 100 100 100 100 100 96 6 5 5 32 100
4 100 100 99 6 5 5 5 6 68 100 100 100 99 99 64 89 92 100 100 100 100 100 100 53 78 63 100 7 5 5 17 100 100 100 100 100 100 100 15 37 5 5 61 98
0 100 96 1 72 9 9 6 88 79 72 100 100 100 99 100 69 100 79 71 100 100 100 100 100 98 100 100 70 13 5 8 24 99 100 100 100 100 59 25 49 34 28 22 5
0 93 84 0 4 8 46 27 40 49 76 78 100 100 100 100 98 100 94 100 100 100 100 100 100 100 100 73 67 11 6 90 100 99 100 100 100 100 100 57 46 64 43 5 5
0 0 1 0 5 5 86 91 18 56 100 87 100 100 100 100 100 100 100 100 100 100 100 100 100 87 5 41 37 75 9 5 15 54 5 92 46 100 100 100 69 100 100 88 5
0 0 4 5 5 22 100 5 5 10 5 82 100 99 100 100 100 100 100 100 83 100 100 100 100 100 61 72 15 56 5 4 4 0 5 0 1 100 100 100 100 100 80 100 100
5 0 5 5 29 99 37 27 3 5 5 19 88 100 100 100 100 100 100 100 96 64 93 100 91 100 100 100 88 5 7 42 64 20 5 0 0 4 97 100 100 100 100 70 44
1 2 2 5 48 98 5 6 4 5 3 57 6 66 100 92 58 85 53 100 85 85 33 5 19 100 94 100 68 63 94 84 78 9 5 3 0 4 4 100 100 100 99 55 100
6 19 5 48 89 39 5 5 5 5 5 5 24 6 39 99 100 100 100 45 26 75 74 86 99 100 100 99 96 74 84 63 95 60 57 5 1 0 45 100 100 100 100 100 100
74 3 10 30 16 0 0 0 4 4 2 4 4 5 5 68 76 66 85 100 100 100 100 77 85 95 100 100 100 100 100 99 100 100 64 54 41 15 95 100 100 100 100 100 100
24 18 5 58 19 5 5 5 5 4 0 0 0 5 5 25 100 74 43 33 84 73 91 100 91 99 88 77 99 100 100 86 84 70 98 26 69 100 100 100 100 100 100 100 100
1 60 71 45 99 98 71 5 41 80 5 2 0 5 5 5 5 45 87 86 63 100 100 30 84 98 99 70 54 9 63 87 99 100 52 100 80 100 100 100 100 100 100 100 100
5 64 10 100 100 51 95 98 91 98 5 5 22 6 5 5 5 5 5 5 6 20 58 97 100 100 100 98 88 40 69 100 100 100 100 78 83 100 100 100 100 97 99 100 100
0 10 69 87 93 91 82 95 100 67 12 17 75 24 36 5 5 5 5 5 5 5 14 78 100 100 100 94 100 44 88 46 100 100 100 96 100 100 100 100 100 100 100 100 100

GFSSW_prec_cloud_045.txt.gz
Cloud_Cover
100 34 87 100 47 0 3 100 100 100 100 100 100 6 5 100 100 100 57 100 100 100 83 2 0 83 88 95 100 100 100 94 100 100 99 61 45 100 100 100 96 100 96 51 5
78 63 100 100 1 3 0 100 100 100 100 100 99 13 37 100 100 100 100 100 100 100 92 38 0 91 91 98 100 100 100 100 100 100 100 100 89 89 100 100 100 100 55 100 6
96 100 100 85 55 0 5 100 100 99 96 100 57 81 5 99 81 100 100 100 100 100 100 90 5 90 100 100 100 100 100 100 100 100 100 100 100 100 100 100 100 100 99 94 53
0 39 71 83 29 0 0 2 26 5 100 99 54 77 78 100 97 100 100 97 100 100 100 39 7 28 100 100 88 100 100 100 100 100 100 100 100 96 100 100 100 100 100 100 78
86 0 0 0 0 3 0 1 5 5 61 46 8 100 100 100 53 100 100 100 100 100 100 67 44 0 100 94 100 100 100 100 100 100 100 100 100 100 100 100 100 100 100 100 100
2 17 0 0 0 1 5 5 5 5 68 77 73 100 100 100 99 100 100 100 100 100 100 87 81 37 100 9 80 100 100 100 100 100 100 100 100 100 85 100 100 100 100 100 100
67 0 19 0 0 0 3 5 5 5 5 6 12 99 100 100 65 75 100 100 100 100 100 98 55 16 18 0 49 100 100 100 100 100 100 100 100 100 100 100 100 100 100 100 100
100 78 0 3 0 0 5 5 5 2 0 1 4 94 87 90 100 100 100 100 100 100 100 100 100 100 1 0 0 93 100 100 100 100 100 100 100 100 100 77 100 100 100 100 100
100 93 81 0 4 1 5 82 5 69 1 0 7 100 32 94 100 100 100 100 100 100 100 100 100 71 6 1 7 4 14 100 100 100 100 100 100 100 100 97 100 100 100 100 100
49 100 97 0 4 0 4 100 5 100 66 0 0 5 72 100 100 97 91 100 100 100 100 100 100 7 63 3 31 4 30 89 100 100 100 100 100 100 100 100 100 100 100 100 100
76 100 100 76 2 5 2 34 45 60 100 4 4 4 4 17 35 97 75 100 100 100 100 100 46 59 5 2 1 0 9 100 100 100 100 100 100 100 100 100 100 97 100 100 100
99 88 100 100 14 5 4 5 22 23 96 67 0 0 1 21 14 100 74 100 100 100 100 100 76 18 41 56 78 0 5 27 100 100 100 100 100 100 100 100 100 100 74 83 87
100 47 100 100 24 4 5 5 78 99 76 100 16 4 4 4 24 100 68 100 100 100 100 100 87 32 38 26 100 7 0 4 68 95 100 100 100 100 100 100 100 71 19 8 84
100 94 100 100 19 3 5 28 78 29 93 99 99 25 5 44 53 100 68 100 100 100 100 100 98 88 79 15 100 82 4 4 12 100 100 100 100 100 100 100 100 98 80 5 9
63 3 100 100 5 5 5 5 15 52 98 98 100 39 6 94 57 53 100 100 100 100 100 100 100 100 100 15 78 60 5 5 71 86 83 100 100 100 100 100 100 97 46 43 5
0 6 100 46 98 5 5 6 100 62 74 100 100 99 34 99 100 100 93 100 100 100 100 100 100 100 100 77 14 51 74 84 97 10 6 100 100 100 100 100 100 100 100 15 1
0 58 96 2 7 9 95 23 73 40 74 100 100 100 35 100 87 100 100 100 100 100 100 100 100 100 100 12 42 52 99 99 94 96 36 95 100 100 100 100 100 100 98 35 1
10 1 50 5 5 10 39 80 23 36 100 100 100 100 100 100 100 100 100 100 100 100 100 100 100 100 89 67 59 81 100 49 23 56 57 6 97 100 100 100 100 100 100 97 26
0 0 19 22 42 94 100 5 4 5 5 100 100 100 100 97 100 98 100 100 100 100 72 100 100 100 100 100 92 18 58 51 5 3 39 34 92 100 100 100 100 100 48 46 86
0 2 5 5 100 100 68 13 8 5 70 100 100 100 100 100 100 100 71 100 100 100 100 100 100 100 99 97 89 65 80 43 16 5 5 0 4 9 100 100 100 100 100 97 64
2 8 7 7 95 96 13 22 5 5 5 35 91 86 84 100 100 100 17 52 100 100 100 100 100 100 92 32 20 25 91 7 21 5 5 4 0 0 100 100 100 100 100 100 100
0 45 17 45 100 99 6 5 5 5 5 5 5 76 22 100 100 100 82 93 79 100 100 100 100 100 100 95 94 32 15 92 7 7 18 5 1 0 1 92 100 100 100 100 100
48 17 78 100 43 5 5 5 5 4 4 5 5 5 30 97 21 25 100 97 99 96 99 87 100 100 100 100 99 100 100 98 45 70 35 88 11 95 48 6 40 94 100 100 100
2 4 39 87 39 5 5 5 5 4 0 0 0 5 5 23 45 49 85 96 100 100 82 78 58 100 94 88 73 84 100 74 60 82 53 10 13 48 62 36 37 76 88 100 100
4 33 24 52 7 5 5 5 29 74 5 3 5 5 5 5 27 68 43 92 81 83 100 100 100 100 100 100 100 97 70 91 84 100 46 100 26 100 32 19 93 5 15 80 100
1 3 5 5 82 64 48 98 65 100 50 7 6 6 5 5 5 5 5 5 40 100 100 69 99 100 100 100 76 12 100 95 99 44 100 92 98 100 89 53 98 100 100 100 57
0 4 13 32 80 98 81 52 30 100 27 88 100 85 84 7 5 5 5 5 28 17 69 94 100 96 38 51 6 21 94 88 100 100 100 92 100 100 100 89 87 80 21 83 100

GFSSW_prec_cloud_048.txt.gz
Cloud_Cover
86 100 100 95 6 12 0 1 22 99 87 100 96 100 51 7 95 100 100 100 100 100 100 100 6 76 95 85 100 100 100 100 100 100 100 92 100 100 100 100 100 100 100 98 100
99 68 98 100 94 7 1 1 5 5 48 100 100 100 100 82 82 100 100 100 100 100 99 100 34 96 100 100 100 100 100 79 100 100 100 100 100 100 100 99 53 100 100 94 100
100 44 96 0 0 2 99 4 0 2 5 61 95 98 100 54 54 95 100 100 100 100 100 100 74 8 55 80 94 100 38 32 100 100 100 100 100 100 100 100 99 100 100 100 100
1 100 85 0 0 68 0 1 0 0 0 3 5 5 57 96 68 84 100 100 100 100 100 99 91 8 0 27 100 100 100 96 100 100 100 100 100 100 100 100 100 100 100 100 100
100 19 100 12 0 14 4 5 5 4 5 35 1 16 25 70 56 100 100 100 100 100 100 97 39 14 1 2 10 100 100 98 100 100 100 100 100 76 100 100 100 100 100 100 100
90 98 11 100 71 0 5 2 0 4 0 0 13 100 100 95 100 100 100 100 100 100 100 100 94 98 3 100 6 17 100 100 100 100 100 100 100 100 100 97 100 100 100 100 100
99 27 95 1 44 0 4 2 0 5 0 7 3 33 100 100 100 100 100 100 100 98 100 100 100 62 5 46 96 100 100 100 100 100 100 100 100 100 100 95 90 100 100 100 100
73 100 77 100 1 0 2 5 0 5 4 0 1 48 88 98 100 100 99 100 100 100 100 100 100 99 59 51 30 100 100 100 100 100 100 100 100 100 100 92 100 100 100 100 100
100 98 100 39 68 4 0 54 4 13 54 0 2 70 36 100 99 100 100 100 100 100 92 100 100 87 98 6 70 96 48 100 100 100 100 100 100 100 100 100 93 100 100 100 100
100 100 100 100 5 10 0 17 5 9 9 7 0 2 6 88 90 85 87 100 100 100 100 100 100 100 89 4 39 47 8 57 100 100 100 100 100 100 100 100 100 100 100 100 100
100 100 100 100 100 8 5 2 52 12 49 32 4 4 80 100 98 88 100 100 100 100 100 100 100 81 38 76 5 5 8 100 100 100 100 100 100 100 100 100 100 91 100 100 100
100 100 100 100 100 30 5 5 60 42 100 81 1 0 5 94 31 64 95 100 100 100 100 100 100 100 97 47 5 16 0 31 100 100 100 100 100 100 100 100 100 100 93 100 100
100 100 100 100 100 11 5 5 42 92 88 98 5 3 2 6 4 5 84 100 100 100 100 100 100 100 84 47 20 94 4 1 19 100 100 100 100 100 100 100 100 100 99 99 100
100 100 47 100 16 5 5 5 31 97 100 100 48 23 5 6 9 49 99 100 100 100 100 100 100 71 83 77 14 69 5 0 0 10 100 100 100 100 100 100 100 100 100 82 100
100 100 100 100 5 5 5 5 5 70 99 100 94 5 5 31 49 16 100 100 100 100 100 100 100 100 100 90 47 98 12 4 45 71 81 64 88 100 100 100 100 100 100 100 100
100 100 100 96 99 5 8 5 73 58 93 100 59 25 18 5 16 100 100 100 100 100 100 100 94 72 82 79 99 100 7 9 59 90 84 26 99 100 99 100 100 100 100 100 77
100 86 100 5 29 9 58 18 65 64 96 100 100 5 26 7 94 60 100 100 100 100 100 100 100 93 53 86 22 35 12 60 22 39 14 5 10 100 100 100 100 100 100 100 100
69 89 96 18 5 57 30 88 30 56 100 100 100 41 87 84 26 74 86 100 100 100 100 100 100 74 32 85 84 99 24 5 23 52 8 1 4 99 100 100 100 100 100 100 100
0 9 75 100 100 100 87 5 5 5 84 100 99 100 91 81 62 95 89 100 100 100 100 100 100 100 89 100 67 87 100 100 64 5 5 1 0 0 96 100 100 100 100 100 100
0 4 24 29 100 100 55 13 8 6 21 100 100 100 100 100 56 98 96 100 100 100 73 65 99 100 100 95 94 49 53 38 39 5 5 0 0 0 0 73 100 100 100 100 100
0 78 15 100 100 96 44 56 8 20 10 96 94 100 73 74 95 100 100 100 100 100 100 98 62 100 100 100 92 85 62 26 8 5 5 2 0 0 0 5 100 100 100 100 100
0 88 29 100 100 100 35 5 5 5 5 23 97 95 99 99 76 8 99 100 100 100 100 100 88 100 100 100 72 92 7 5 5 7 24 5 8 0 0 0 4 98 100 100 100
3 89 100 100 82 5 5 5 5 5 5 5 75 23 8 97 99 67 5 100 100 100 100 100 100 99 100 84 53 99 100 96 47 72 6 25 4 5 0 0 4 4 15 99 100
5 7 85 100 88 5 5 5 5 5 3 5 5 63 5 10 65 100 100 100 86 100 100 100 100 100 100 100 100 82 80 91 71 96 62 10 3 29 94 98 100 18 0 1 51
3 34 8 41 32 5 5 5 6 58 5 5 5 5 5 5 5 5 46 100 100 100 97 100 100 100 100 100 100 96 53 53 32 69 57 88 5 99 74 64 5 5 5 5 5
0 5 5 5 5 8 18 6 12 67 35 8 5 6 5 5 5 5 5 6 59 92 100 100 99 86 82 100 100 90 100 85 84 100 100 100 60 100 80 8 61 5 5 10 16
1 5 10 5 5 77 99 40 31 8 8 99 100 96 86 11 11 12 5 5 5 10 82 18 28 84 100 99 60 100 100 81 86 100 43 92 100 99 32 52 14 5 5 55 83

GFSSW_prec_cloud_051.txt.gz
Cloud_Cover
92 93 66 0 0 0 42 28 0 0 4 32 62 100 100 97 100 5 98 79 100 100 100 100 48 91 100 81 23 100 92 74 100 100 100 100 100 100 100 100 100 100 100 100 100
0 38 2 13 0 43 100 66 2 0 0 2 87 100 100 100 100 18 92 100 100 100 100 100 100 7 100 100 96 50 85 94 100 100 100 100 100 100 100 100 100 100 100 100 100
100 78 90 9 43 31 48 19 0 0 0 0 3 70 100 100 99 13 100 100 100 100 100 100 100 75 16 74 100 100 96 74 98 100 100 100 100 100 100 100 100 100 100 100 100
30 99 52 100 36 0 5 5 6 2 0 0 0 0 86 96 28 34 70 100 100 100 100 100 80 71 4 4 85 100 87 96 100 100 100 100 100 100 100 100 100 100 100 100 100
46 86 98 6 100 1 0 11 1 0 0 0 0 0 0 63 9 39 98 100 100 100 100 100 92 91 7 1 16 72 100 100 100 98 100 100 100 100 100 100 100 100 100 100 100
100 65 19 100 26 64 8 1 4 2 4 0 0 5 44 63 4 5 100 100 100 100 100 100 93 74 35 1 4 100 100 100 100 100 100 100 100 100 100 100 100 100 100 100 100
100 100 59 0 99 0 9 5 5 5 5 0 0 8 69 62 27 5 99 100 100 100 100 100 100 100 45 4 0 93 100 100 100 100 100 100 100 95 100 100 100 100 100 100 100
100 100 100 100 63 50 0 5 5 5 5 5 0 6 94 96 91 67 96 100 100 100 100 100 100 100 100 50 4 5 14 99 100 100 100 99 88 100 100 100 90 100 100 100 100
100 100 100 100 44 2 5 2 5 25 5 5 0 1 59 69 94 97 100 75 100 100 100 100 100 100 100 76 70 6 58 77 100 100 100 100 98 100 100 76 100 100 100 100 100
100 100 100 100 100 10 5 2 23 67 17 5 0 0 21 95 100 99 84 86 100 100 100 100 100 91 100 23 96 28 69 100 100 100 100 81 100 100 100 100 100 90 100 100 100
100 100 100 100 100 86 6 5 70 90 33 75 0 0 7 100 100 100 56 100 100 88 100 100 100 98 42 95 40 5 85 38 100 100 95 100 100 100 100 100 99 44 100 100 100
100 100 100 100 100 100 13 5 97 80 87 99 0 0 5 88 100 99 100 100 100 71 100 100 100 100 100 100 97 30 5 5 20 15 68 100 100 100 79 100 100 71 100 100 100
100 100 100 100 100 28 5 5 82 100 79 87 4 2 28 55 15 90 100 100 99 100 100 100 92 100 100 100 100 14 14 74 2 14 89 73 99 92 70 100 98 67 53 89 100
100 100 100 100 12 5 5 5 33 90 89 97 49 24 5 5 13 5 100 100 100 99 100 100 100 100 100 100 97 98 84 67 22 4 38 100 5 91 45 100 86 100 58 94 100
100 100 100 96 5 5 5 17 31 83 96 100 79 5 5 20 11 8 100 99 100 100 100 100 100 100 100 97 79 93 5 73 6 5 5 46 35 100 100 100 100 100 100 100 100
100 100 100 96 96 5 53 6 80 55 100 100 35 22 37 7 78 73 100 100 100 100 100 100 100 100 100 100 66 12 5 35 81 91 65 5 51 100 100 100 100 100 100 100 100
100 100 57 7 28 15 66 19 83 68 100 100 81 5 5 95 100 100 100 100 100 100 100 100 100 100 100 94 78 80 55 77 85 88 65 5 8 38 100 100 66 100 100 100 100
76 99 6 26 41 99 82 81 53 90 100 100 18 5 72 97 97 100 100 100 100 100 100 100 100 47 18 55 86 100 62 5 32 55 5 5 2 0 100 100 100 100 100 100 100
0 4 96 99 100 100 87 6 84 97 100 100 17 96 8 5 67 100 100 100 100 100 100 100 100 63 13 74 100 99 89 5 7 5 8 0 0 0 74 100 100 100 90 100 100
1 2 6 96 100 98 70 30 94 100 100 100 91 78 6 5 61 100 100 100 100 100 100 100 94 93 100 95 94 85 29 13 5 24 40 0 0 0 0 96 100 84 31 33 85
5 18 17 100 97 99 91 64 74 98 99 100 100 100 33 4 25 100 100 100 100 100 100 99 57 100 100 76 43 58 35 87 70 55 5 5 4 0 0 2 40 100 100 100 100
5 71 79 100 99 100 83 5 21 75 74 98 100 100 86 65 64 100 100 100 100 98 52 25 84 100 100 98 50 64 30 97 5 12 5 86 98 5 5 3 5 0 61 100 100
5 73 90 100 88 13 5 5 5 5 48 100 100 96 100 100 76 84 100 100 100 95 100 86 27 93 100 100 100 96 100 100 88 95 70 16 30 13 97 12 4 0 0 52 100
4 35 100 100 100 89 5 7 5 5 5 78 78 99 100 100 100 100 50 100 100 100 100 100 100 100 100 97 71 87 73 15 9 65 61 59 97 100 45 5 0 5 2 2 0
4 1 6 91 76 5 5 5 6 5 5 2 5 5 24 99 87 73 56 100 100 100 100 100 100 100 100 100 100 100 52 81 100 98 63 97 20 100 100 76 5 5 5 2 2
0 5 5 5 19 8 30 60 12 5 6 6 5 5 5 78 78 100 100 74 68 99 70 100 100 100 100 100 100 100 100 67 19 26 57 27 16 100 36 5 5 5 3 5 0
5 25 5 5 27 67 87 49 96 68 27 22 33 45 22 8 5 5 5 38 94 100 73 91 99 95 100 99 100 100 100 64 84 99 19 95 100 14 8 54 4 8 22 20 12

GFSSW_prec_cloud_054.txt.gz
Cloud_Cover
100 99 100 90 1 63 100 52 0 2 5 1 5 11 100 100 99 88 6 100 77 100 100 100 60 99 100 42 28 90 61 100 100 100 100 100 100 100 98 100 96 100 36 98 100
8 100 100 99 0 2 27 3 2 0 0 0 0 14 81 100 85 99 8 100 93 70 100 100 68 98 100 98 34 88 16 62 96 100 100 100 100 100 100 100 84 98 100 100 100
1 79 95 79 90 0 16 0 8 1 0 0 0 0 5 100 87 76 6 85 100 100 100 100 100 99 90 100 99 9 30 59 14 100 100 100 100 100 100 100 78 100 100 100 100
78 0 75 76 3 31 4 0 1 0 0 0 0 0 0 5 84 51 40 87 100 100 100 100 100 94 99 97 100 5 11 90 100 99 100 100 100 100 100 100 100 100 100 94 100
88 98 1 93 97 15 4 0 1 0 2 0 0 0 5 7 44 27 100 100 100 100 91 100 100 100 100 96 100 31 75 80 64 78 100 100 100 100 100 100 100 100 99 100 100
99 95 85 26 63 55 0 0 1 5 5 3 0 0 28 58 11 68 100 100 100 100 100 100 100 100 100 100 47 100 100 100 78 100 82 100 100 100 100 100 100 100 100 100 100
100 100 100 73 30 46 13 0 2 5 34 5 0 5 12 35 5 5 88 100 100 100 100 100 100 100 100 100 91 44 100 97 100 100 92 100 100 100 100 100 100 100 100 100 100
100 100 100 100 10 5 19 1 5 5 31 5 0 3 8 42 62 22 40 100 100 100 100 100 100 100 100 100 99 4 100 100 100 100 95 100 82 100 100 100 100 100 100 100 100
100 100 100 100 100 97 1 5 5 44 28 5 0 0 31 56 97 100 100 97 100 84 100 100 100 100 100 100 100 15 100 100 100 100 100 100 100 99 100 100 100 100 100 100 100
100 100 100 100 100 100 2 5 6 95 59 5 0 1 6 90 100 98 94 100 100 100 100 100 100 96 100 100 27 4 57 100 100 100 100 100 95 86 99 98 97 100 100 100 100
100 100 100 100 84 100 10 5 14 88 81 4 1 0 3 37 100 97 100 100 100 89 100 100 100 100 70 100 100 74 52 64 95 100 100 100 100 100 95 100 60 94 100 96 100
100 100 100 100 95 100 5 5 27 68 89 2 0 0 4 84 81 100 100 100 100 100 96 100 100 100 95 100 100 100 40 14 100 100 100 100 100 100 98 61 91 99 78 92 100
100 100 100 100 78 34 6 5 5 63 71 5 4 4 97 60 90 83 96 95 100 100 100 100 100 100 100 100 100 100 100 36 93 100 100 81 62 97 52 100 60 100 100 100 100
100 100 100 100 51 9 5 5 5 5 55 31 4 21 64 88 100 100 100 100 100 98 100 100 100 100 100 63 100 100 100 100 66 7 15 63 99 100 100 100 12 6 100 100 100
100 100 100 96 9 5 5 5 5 10 98 54 84 6 5 49 100 100 100 100 100 74 93 100 100 100 100 100 100 100 100 100 100 5 4 38 5 100 97 100 91 88 42 94 100
100 100 99 73 72 5 5 5 18 61 82 94 31 17 18 20 91 100 100 100 96 100 100 100 100 100 100 100 100 100 96 81 60 53 46 15 8 93 100 100 100 100 52 5 86
100 100 22 10 43 6 5 10 80 90 100 67 58 26 11 62 98 100 100 94 100 93 100 100 100 100 96 100 100 100 100 80 96 87 45 5 5 0 62 72 100 100 100 34 62
100 79 11 56 66 59 9 22 56 88 100 67 5 76 67 93 100 100 100 100 89 100 100 100 100 100 100 100 100 100 96 13 82 73 67 5 13 0 0 3 33 100 100 65 74
27 5 49 95 100 96 84 56 77 94 95 73 5 5 60 65 100 100 100 100 100 100 100 99 100 98 100 31 100 100 23 11 44 27 95 8 0 0 3 2 5 57 100 86 76
18 6 30 98 100 78 34 48 84 98 69 85 78 24 5 100 85 88 100 100 100 100 100 100 100 100 100 96 83 100 100 100 55 25 34 1 4 4 0 5 5 93 51 100 93
5 27 23 88 52 83 96 83 83 82 100 100 100 98 51 76 100 100 78 100 100 98 93 100 86 99 66 84 68 100 95 94 90 20 18 80 38 21 1 0 3 1 59 100 100
5 48 59 43 95 59 95 26 50 78 58 84 93 99 21 5 100 100 92 100 95 94 82 53 92 98 100 100 100 100 68 68 83 31 5 53 100 73 6 2 1 0 0 6 100
22 90 87 80 62 34 6 8 18 11 70 30 64 99 63 6 97 100 100 52 51 90 30 21 94 92 100 82 91 100 100 100 94 99 98 100 100 89 100 100 48 4 5 4 0
6 83 98 100 95 72 6 5 5 5 78 85 46 88 100 51 19 100 100 100 100 100 82 14 9 98 71 86 61 61 27 38 17 44 100 96 100 100 100 100 14 5 5 5 5
5 1 92 94 47 6 5 5 5 5 5 5 89 54 57 100 64 100 100 70 70 55 16 96 100 91 44 74 76 75 26 17 8 27 19 99 12 100 100 93 13 0 5 5 5
5 3 100 5 5 6 5 5 5 3 5 5 5 5 5 5 74 5 100 100 100 100 100 100 100 100 100 100 100 100 100 100 100 98 9 67 64 100 5 5 18 5 0 1 5
5 7 72 5 12 60 11 40 82 5 5 5 5 5 6 15 10 14 67 78 6 34 94 96 100 100 100 100 100 100 100 89 96 64 7 40 85 79 43 50 7 4 0 0 0

GFSSW_prec_cloud_057.txt.gz
Cloud_Cover
5 25 77 100 6 1 4 0 32 0 0 0 0 0 5 21 28 100 100 100 98 97 100 97 100 86 100 94 89 100 100 31 93 100 100 100 100 100 100 89 100 100 100 100 100
5 5 92 77 1 2 0 15 34 0 0 0 0 0 4 6 100 100 100 84 78 100 100 100 90 93 98 89 70 79 84 39 68 100 97 100 100 100 100 99 100 100 100 100 100
80 62 3 6 48 10 0 1 0 0 0 0 0 0 0 1 66 100 100 99 57 100 100 99 97 72 100 100 54 98 68 100 100 100 100 100 100 100 100 100 92 90 100 100 100
6 100 32 0 81 13 1 15 4 0 0 1 0 0 0 6 90 100 100 36 46 100 95 100 100 94 97 99 84 100 59 89 100 86 100 100 100 100 100 100 100 86 100 100 100
70 100 98 0 0 55 25 0 3 0 5 5 4 0 6 26 54 99 100 54 14 100 100 56 100 75 66 100 69 100 100 100 76 97 100 100 100 100 100 100 100 100 100 100 100
99 100 100 29 0 0 52 0 0 8 5 21 5 1 55 56 40 17 100 62 18 100 100 90 100 100 98 93 100 100 100 100 96 100 98 100 100 100 100 100 100 100 100 100 100
100 100 100 98 58 0 3 56 0 5 5 23 5 0 32 100 37 43 99 93 86 100 100 97 100 100 100 100 100 100 100 100 100 68 100 66 100 100 100 100 100 100 100 100 100
34 90 99 100 90 2 26 0 1 5 66 24 1 1 66 5 19 37 52 100 99 100 100 100 100 95 100 100 98 100 100 91 100 94 82 9 84 100 100 100 100 100 100 100 100
36 57 98 88 100 0 49 0 5 5 92 62 1 2 97 28 54 28 6 100 100 100 100 100 99 100 100 100 100 100 100 100 70 91 66 5 43 100 100 99 100 100 100 100 100
61 29 100 63 100 2 67 2 5 24 77 4 3 26 52 87 99 96 100 96 100 100 100 100 100 100 100 100 100 97 100 93 36 39 77 16 31 16 77 100 100 100 100 100 100
59 100 100 98 100 1 42 7 48 39 84 4 16 4 5 93 100 82 62 100 100 100 100 100 100 100 20 100 100 100 100 100 96 18 60 40 100 100 69 100 100 100 100 100 100
5 95 84 99 78 93 53 26 5 28 57 5 0 2 5 78 100 100 100 100 100 100 100 100 100 100 100 100 77 100 99 10 99 93 100 100 100 100 95 22 99 100 100 100 100
5 73 98 100 100 78 47 5 5 52 95 56 2 4 35 100 100 100 100 100 100 100 67 100 100 100 100 100 100 100 100 88 71 100 100 100 97 92 97 53 90 100 100 100 100
5 98 99 100 55 66 5 5 5 27 87 51 70 16 6 64 100 100 100 100 100 100 87 100 100 98 100 100 100 100 100 100 100 100 100 100 100 100 100 99 70 81 100 100 100
6 100 100 100 90 39 9 5 5 28 100 45 64 0 65 53 90 100 100 94 100 67 98 100 100 98 100 100 100 100 100 100 96 100 100 100 93 100 100 100 100 77 99 99 100
80 100 67 51 98 55 5 5 40 98 97 84 43 24 55 89 100 100 100 100 100 78 100 100 100 100 100 100 100 100 100 100 76 94 100 100 95 100 100 100 100 100 90 99 60
55 95 100 100 100 5 5 81 98 100 87 49 48 73 99 92 100 100 100 100 44 96 100 100 100 100 100 100 100 100 100 100 100 98 76 10 69 100 100 100 100 89 100 100 13
93 83 23 63 5 5 82 96 88 68 94 29 56 39 98 100 78 75 100 99 72 42 100 100 100 100 100 100 100 100 100 100 100 100 100 86 25 100 100 100 97 99 96 100 55
38 98 93 90 6 30 100 100 95 95 59 5 14 96 96 88 100 98 100 79 75 56 100 100 100 100 97 100 100 100 100 100 100 94 27 28 5 17 5 2 0 0 5 5 5
98 100 82 86 7 79 99 61 87 95 52 29 90 48 96 92 96 100 100 99 69 72 100 100 100 99 98 85 100 100 100 100 100 100 98 5 5 5 1 0 0 0 0 0 3
100 100 71 6 82 93 98 88 55 78 62 92 97 44 91 83 100 100 89 100 100 100 100 98 96 98 100 87 100 100 100 100 100 86 80 12 25 5 0 0 0 0 0 0 0
95 100 61 25 95 94 100 69 11 37 97 94 100 99 98 5 69 100 100 100 84 100 98 99 88 61 100 100 100 100 100 100 100 100 98 20 12 24 2 0 0 0 0 0 0
100 62 60 88 97 95 11 24 24 54 31 97 42 72 17 75 74 100 100 45 97 92 100 100 99 99 100 100 84 52 56 98 100 100 69 88 65 72 14 14 0 0 0 0 0
100 92 77 96 95 93 44 45 22 5 5 5 31 8 32 70 80 92 98 31 70 89 91 87 100 100 100 100 100 100 100 100 100 100 100 100 100 100 100 83 4 0 4 1 2
100 35 45 91 32 62 34 23 64 32 5 5 5 14 49 71 92 100 95 97 47 13 75 78 94 100 100 100 100 100 100 100 100 100 76 100 100 98 76 76 5 5 5 5 5
87 53 64 93 14 36 5 48 58 5 30 5 19 5 5 72 27 100 87 99 36 20 34 66 100 58 59 97 79 100 100 96 100 77 76 66 53 6 16 61 5 4 3 1 5
98 96 68 17 17 73 25 5 5 5 5 17 5 14 8 44 9 8 53 90 97 96 82 43 25 89 100 88 91 92 88 47 16 11 27 44 66 9 7 5 5 3 2 0 0

GFSSW_prec_cloud_060.txt.gz
Cloud_Cover
47 6 5 4 48 19 0 2 1 0 0 0 0 0 0 0 5 21 100 100 98 80 10 100 99 45 100 100 100 99 95 16 5 99 100 61 75 100 100 50 100 100 100 100 100
36 33 27 4 29 68 12 0 14 1 0 0 0 0 0 0 5 35 100 100 99 92 82 100 98 49 100 100 100 93 100 7 4 71 100 79 100 100 100 98 100 100 100 100 100
37 39 98 8 1 30 82 0 0 1 0 0 0 0 0 0 8 48 100 98 99 54 86 97 100 90 100 100 100 97 100 22 71 94 75 100 61 100 100 100 100 100 100 100 100
90 89 12 48 5 0 82 57 0 0 0 0 0 0 0 7 73 61 100 100 100 98 100 100 100 98 100 100 100 100 100 100 93 94 20 100 100 100 100 100 100 100 100 100 100
100 49 43 5 5 0 10 82 0 11 10 0 5 1 0 24 72 13 100 100 100 100 100 99 100 68 100 100 100 100 100 100 98 76 68 97 100 100 99 100 100 100 100 100 100
76 17 5 5 16 0 0 3 63 0 10 5 5 0 58 47 72 33 99 100 100 99 100 99 100 82 100 100 100 100 100 100 100 82 100 100 100 100 72 100 100 100 100 100 100
74 6 5 75 98 18 1 3 12 0 5 5 5 0 34 52 72 100 68 100 100 82 100 100 100 100 100 100 100 100 100 100 100 100 74 100 100 100 100 100 100 100 100 100 100
21 5 20 80 70 73 2 1 0 5 5 5 2 0 28 19 5 20 89 100 100 85 100 100 100 100 67 100 100 100 73 100 100 100 89 67 27 100 100 100 100 100 100 100 100
74 5 10 64 89 76 5 0 2 5 5 5 1 21 92 5 9 5 14 100 91 70 100 100 83 86 100 72 90 98 90 100 100 100 100 73 5 31 100 100 100 100 100 100 100
88 44 70 100 83 25 3 0 5 5 5 3 4 56 31 45 48 96 12 100 19 88 100 100 100 91 100 100 55 85 81 100 100 100 97 94 73 82 96 100 100 100 100 100 100
99 75 79 100 100 44 2 0 55 36 40 15 30 4 5 7 68 69 55 53 100 100 100 100 94 49 58 100 100 81 100 100 100 100 89 100 100 45 7 100 100 100 100 100 100
78 94 70 29 9 5 64 42 11 5 54 0 1 2 44 94 100 100 21 97 100 100 100 100 100 59 100 100 100 100 100 100 100 100 89 91 80 6 5 3 99 100 100 100 100
92 100 35 5 71 14 25 81 5 5 95 43 3 6 4 100 98 100 97 100 100 100 100 100 100 100 100 100 100 100 100 100 100 100 88 61 24 5 17 5 57 100 100 100 100
99 100 16 100 53 78 40 6 5 5 94 37 36 25 15 100 100 100 100 100 100 100 100 100 100 80 100 100 100 100 100 100 100 100 96 80 81 25 16 33 85 92 100 100 100
100 100 16 89 98 75 57 5 5 11 100 52 4 0 4 91 97 100 100 100 100 100 100 100 100 100 100 100 100 100 100 100 100 100 100 67 94 8 38 100 100 91 55 100 100
86 100 94 13 100 83 5 5 65 100 99 16 3 8 78 97 100 100 100 100 100 100 100 100 100 100 100 98 55 12 98 33 99 100 94 100 73 97 66 100 100 100 100 100 100
100 100 92 98 98 5 5 62 99 99 94 38 14 36 74 82 77 100 96 100 100 100 100 100 100 100 93 83 100 99 100 71 66 77 46 6 36 100 84 100 100 100 100 100 97
100 100 71 100 8 5 22 94 100 93 80 11 27 38 55 33 100 84 94 86 100 77 100 100 100 100 100 100 100 100 100 100 99 99 100 100 100 100 100 100 100 99 90 100 99
100 100 100 6 5 35 97 100 95 98 7 42 81 98 18 6 91 100 100 62 74 80 77 100 100 100 100 73 100 99 100 100 43 37 100 100 100 100 100 100 100 98 89 76 89
100 100 100 5 5 52 100 66 95 76 3 43 89 65 82 88 71 90 71 51 86 17 54 100 100 96 99 94 100 100 100 100 97 100 100 100 100 100 100 100 100 47 13 56 32
100 100 98 15 27 94 100 94 97 68 5 32 5 90 30 99 94 31 93 47 6 100 91 99 87 100 75 98 100 100 100 100 100 100 100 100 98 93 100 100 100 69 10 0 5
100 100 96 56 87 81 99 59 100 100 100 81 5 35 96 5 9 12 58 72 55 26 76 74 100 97 100 96 92 100 100 100 100 100 100 100 95 99 7 6 5 5 5 0 0
100 100 100 62 60 92 23 8 100 99 100 100 14 5 5 73 72 99 88 100 100 72 80 100 99 79 100 100 86 100 100 100 100 100 100 100 100 100 14 5 2 0 0 0 0
100 100 100 70 66 100 37 28 5 24 28 80 23 45 98 96 100 100 100 92 75 69 72 83 85 99 100 100 81 74 100 100 100 100 100 100 100 78 13 12 4 5 5 1 0
100 100 96 73 39 94 94 14 5 5 14 21 6 25 82 63 100 100 100 98 16 13 51 97 98 95 95 100 100 100 39 89 100 100 100 100 100 100 67 69 29 12 6 4 0
100 100 88 5 5 84 53 5 76 5 25 5 62 5 5 87 86 99 74 93 77 18 35 57 100 100 100 100 100 100 100 100 93 93 100 100 100 100 100 96 98 100 28 3 0
97 100 82 5 59 20 8 15 26 3 5 7 50 8 4 0 2 16 8 21 95 48 27 22 44 74 100 88 84 99 100 100 79 92 100 100 100 100 86 27 5 5 12 18 0

GFSSW_prec_cloud_063.txt.gz
Cloud_Cover
81 8 64 5 4 0 88 68 0 0 21 0 34 2 0 0 0 0 6 5 95 100 28 47 100 65 20 82 100 100 100 5 5 33 100 61 100 100 70 100 100 100 100 100 98
80 86 26 35 5 4 0 50 3 0 0 0 0 0 0 1 0 1 0 89 100 100 86 88 87 68 47 100 100 100 100 14 59 100 98 95 100 100 84 100 100 100 100 100 100
90 100 25 5 5 0 2 29 31 0 0 0 0 0 0 0 0 2 5 100 100 100 82 6 100 86 75 100 100 97 100 100 100 99 9 100 100 100 100 100 100 100 100 100 100
98 100 80 6 5 38 0 4 44 3 22 0 0 0 0 0 15 1 5 100 100 100 100 64 99 72 91 100 100 100 99 100 100 100 87 88 100 100 100 100 100 100 100 100 100
100 100 90 5 5 22 0 5 4 37 0 2 0 0 0 17 12 5 5 100 100 100 100 91 74 100 100 27 100 100 100 100 99 100 100 75 100 81 91 100 100 100 100 100 92
100 98 89 5 6 92 38 5 1 51 0 2 5 1 4 14 51 89 6 100 100 94 100 100 99 94 100 96 100 100 100 100 100 100 100 93 54 100 100 100 100 100 100 100 100
100 96 6 26 32 88 62 4 22 9 0 5 5 0 0 0 41 72 15 88 100 100 100 100 100 92 100 99 100 100 100 100 100 100 99 86 63 99 100 100 100 100 100 100 100
100 100 55 64 13 78 40 0 0 0 2 5 4 0 1 5 5 5 5 98 100 100 100 100 98 71 100 47 98 100 100 100 100 100 100 100 10 8 100 100 100 100 100 100 100
100 100 100 100 100 18 5 0 0 4 5 5 0 5 30 11 8 5 5 100 100 84 100 97 100 100 100 98 100 100 100 100 100 100 100 96 45 100 92 100 100 100 100 100 100
100 100 83 100 99 46 5 0 0 5 5 4 4 10 8 4 6 46 36 59 100 63 100 100 100 100 100 92 100 100 100 100 100 100 100 100 100 100 80 100 100 100 100 100 100
100 98 100 100 91 5 5 1 4 5 5 0 2 4 4 37 99 84 62 66 100 91 100 100 100 100 100 77 100 100 100 100 100 100 100 100 100 100 23 100 100 100 100 100 100
100 100 100 100 74 23 3 4 5 5 5 4 0 2 5 99 100 83 22 100 100 100 100 100 95 98 100 100 100 100 100 100 100 100 100 100 100 100 77 16 49 100 100 100 100
100 100 100 100 99 31 1 4 5 5 8 20 3 3 4 100 95 100 26 100 100 100 100 74 99 100 90 97 100 100 100 100 100 100 100 98 100 28 100 80 5 48 100 100 100
100 100 100 100 100 100 10 5 5 5 80 5 5 32 36 100 98 100 100 100 100 100 100 100 100 81 68 98 77 89 100 100 100 100 100 76 95 100 45 62 6 6 100 100 100
100 100 100 100 100 88 19 5 5 6 54 4 0 2 100 100 100 100 100 100 100 100 99 100 100 100 97 89 86 10 12 100 100 95 99 100 23 46 6 5 5 5 0 60 100
100 100 100 100 100 76 3 5 7 31 20 6 0 4 99 73 100 100 100 100 100 100 100 100 98 100 100 95 100 97 20 100 100 100 100 66 100 42 14 5 5 0 3 2 43
100 100 100 100 100 60 0 5 81 6 47 3 4 12 14 73 99 100 100 100 99 100 100 100 100 100 100 100 100 99 100 100 100 99 100 100 92 6 4 2 4 1 5 96 20
100 100 100 100 100 21 5 73 16 11 14 3 5 9 6 12 76 61 99 100 100 100 100 100 100 53 100 47 23 59 100 100 100 96 46 100 100 90 95 100 99 22 5 76 100
100 100 100 100 100 14 31 86 88 19 4 5 5 5 5 18 21 97 96 100 100 100 100 100 100 70 92 100 60 5 6 100 100 100 100 100 100 100 100 6 5 50 32 54 100
100 100 100 100 99 18 71 89 93 3 5 17 18 5 32 7 53 35 65 96 100 98 100 98 97 70 54 95 100 86 24 29 100 100 100 100 100 100 74 35 6 6 100 24 90
100 100 100 100 30 95 98 100 98 3 1 5 5 5 5 32 58 64 50 62 51 62 38 92 89 100 55 62 100 100 98 100 80 100 97 60 64 68 100 99 50 13 99 100 100
100 100 100 54 52 100 100 100 98 50 8 2 5 5 5 40 29 32 97 11 5 16 23 84 100 98 59 20 100 100 100 100 100 100 100 100 100 100 100 100 62 14 64 100 100
100 100 100 100 75 97 89 100 100 100 12 5 5 3 5 9 13 95 82 48 97 6 6 100 94 84 96 30 97 100 100 100 100 100 100 100 100 100 100 80 63 5 54 100 100
100 100 100 100 73 71 5 19 91 100 100 6 2 5 5 21 5 79 68 73 96 39 100 63 76 70 100 100 99 100 94 100 100 100 100 100 100 100 36 5 10 44 82 82 99
100 100 86 97 92 81 54 8 5 19 37 78 33 11 27 19 54 95 99 100 67 21 8 6 89 42 94 100 92 72 81 100 100 100 100 100 100 100 100 100 100 100 90 7 5
100 100 100 96 83 73 93 100 5 5 5 81 62 35 6 5 5 40 100 86 15 6 5 5 93 100 100 100 62 100 100 100 100 100 100 100 100 100 100 100 100 100 97 98 5
100 99 84 100 100 14 5 74 38 5 42 5 57 5 5 5 4 9 64 18 23 5 26 33 76 87 95 84 100 100 100 100 100 100 100 100 100 100 100 100 90 100 100 58 5

GFSSW_prec_cloud_066.txt.gz
Cloud_Cover
100 99 74 100 49 10 5 5 41 8 0 0 0 8 0 0 0 0 11 0 0 8 4 0 82 18 58 57 100 100 100 93 4 5 72 100 100 100 100 100 100 100 100 100 100
100 98 100 74 48 5 5 11 51 20 1 0 0 0 0 0 0 0 0 4 51 100 32 98 86 79 82 20 100 100 100 87 5 5 8 100 100 100 100 100 100 100 100 92 100
100 100 99 98 24 6 5 30 5 75 5 23 0 0 0 0 2 0 0 5 95 100 100 100 100 100 94 2 58 100 98 100 91 100 5 100 100 100 100 100 100 100 100 100 100
100 100 100 100 97 66 38 5 5 30 8 0 4 0 0 0 1 0 2 10 85 100 100 100 100 100 88 18 77 100 79 100 99 98 66 91 100 100 100 100 100 100 100 100 100
100 100 100 100 83 78 77 46 5 90 11 0 2 0 0 25 0 2 5 1 99 100 100 100 100 100 97 8 27 100 100 100 90 94 100 100 100 100 100 100 100 100 100 100 100
100 100 100 100 68 100 8 90 5 12 16 0 0 4 4 45 3 11 5 0 100 96 100 100 100 100 100 16 97 100 100 100 100 100 100 100 96 24 100 100 100 100 100 100 100
100 100 94 100 100 100 50 36 5 3 16 0 3 5 0 0 0 5 5 5 100 100 100 100 100 100 100 63 94 100 100 100 100 100 100 100 100 99 33 100 100 100 100 100 100
100 100 100 100 100 95 37 5 4 1 5 3 4 0 10 0 5 5 5 5 100 100 100 100 100 96 100 73 100 100 100 100 100 100 100 100 97 8 80 97 100 100 100 100 100
100 100 100 100 100 90 23 5 2 0 5 3 0 5 1 3 2 5 5 40 100 100 100 100 100 99 100 99 100 100 100 100 100 100 100 100 100 57 72 94 100 100 100 100 100
100 100 100 100 100 100 7 5 4 0 3 3 1 3 2 5 5 59 7 9 100 100 89 100 100 99 100 98 100 100 100 100 100 100 100 100 100 100 78 100 100 100 100 100 100
100 100 100 100 100 100 13 5 4 5 0 0 0 0 4 6 59 99 15 5 100 100 100 100 100 100 100 97 46 100 100 100 100 100 100 100 100 100 97 42 100 100 100 100 100
100 100 100 100 100 100 13 5 0 0 0 0 1 0 5 84 94 91 35 76 100 100 100 100 100 90 91 100 100 100 100 100 100 100 100 100 100 100 89 97 65 100 100 100 100
100 100 100 100 100 100 14 5 3 0 5 5 5 4 90 90 100 63 46 96 99 100 100 98 100 100 100 96 100 100 100 100 100 100 100 100 100 100 74 72 50 74 100 100 100
100 100 100 100 100 78 5 5 5 0 6 1 2 15 67 94 94 100 100 99 100 100 100 100 99 100 100 89 61 100 100 100 100 100 100 100 100 100 90 100 80 100 98 100 94
100 100 100 100 100 16 5 5 38 2 4 0 0 46 100 77 85 100 100 100 100 100 100 100 100 100 83 18 100 100 100 100 100 100 100 100 100 100 93 84 40 89 54 92 100
100 100 100 100 100 5 5 13 5 5 2 7 2 27 97 100 100 100 100 100 100 100 100 100 94 99 98 48 90 100 100 100 100 100 100 100 100 93 74 96 39 5 5 5 70
100 100 100 100 69 5 5 5 5 7 6 2 3 5 100 98 94 100 100 100 42 100 100 100 100 100 94 23 34 100 100 100 100 100 100 94 80 100 98 10 33 63 13 5 0
100 100 100 100 44 6 5 46 7 5 5 0 5 5 24 51 39 100 100 100 97 96 100 100 100 100 87 91 61 100 86 100 100 100 100 100 48 10 85 83 16 100 94 5 1
100 100 100 100 98 53 14 10 5 5 0 0 5 5 59 5 100 100 100 100 100 76 92 97 100 100 92 92 80 100 94 100 100 100 100 100 82 9 14 38 100 10 32 5 0
100 100 100 100 94 80 62 5 5 0 0 5 5 5 5 6 97 90 99 98 100 98 92 35 93 85 14 48 66 74 97 97 100 95 86 98 100 100 11 61 10 5 0 3 0
100 100 100 100 100 88 71 63 5 0 0 2 5 5 5 78 100 100 100 100 76 92 76 90 100 100 95 75 68 5 90 100 100 100 99 100 100 100 100 100 76 16 5 5 4
100 100 100 100 87 91 65 100 5 0 0 4 5 5 7 100 78 73 83 93 94 100 63 63 22 74 17 18 100 100 54 36 84 100 96 100 100 100 100 51 7 5 5 5 5
100 100 100 100 100 100 94 88 5 4 2 5 5 1 5 5 37 86 7 5 7 51 49 5 16 36 21 22 96 100 100 100 39 96 100 60 100 92 90 100 32 8 56 100 61
100 100 100 100 94 88 100 94 89 5 4 5 5 5 1 5 5 80 93 40 5 1 4 5 5 6 85 15 90 100 100 73 45 72 100 100 100 100 80 87 75 100 98 58 96
100 100 100 100 88 70 30 85 100 6 4 2 5 5 5 5 4 62 100 100 79 5 5 4 46 62 99 5 51 46 100 100 100 100 99 100 100 100 100 100 100 100 100 62 43
100 100 100 100 67 29 40 6 5 5 4 5 4 5 5 3 2 5 99 100 100 38 5 54 5 5 5 71 17 29 100 100 100 100 100 100 97 100 100 100 100 100 100 83 58
100 100 100 100 100 18 58 86 16 5 8 8 10 5 5 5 5 5 5 5 5 5 5 5 5 5 6 44 41 91 75 25 65 100 100 100 89 61 100 77 6 95 100 99 95

GFSSW_prec_cloud_069.txt.gz
Cloud_Cover
92 100 100 100 100 98 85 100 62 94 19 5 0 0 0 0 0 0 4 0 0 1 13 14 0 0 5 50 72 98 100 100 100 58 100 63 74 100 100 100 100 100 100 100 100
100 100 99 100 100 79 100 100 75 5 66 5 19 5 0 0 0 0 0 16 45 3 97 33 5 0 5 29 10 85 100 100 100 80 100 100 93 100 100 100 100 100 100 100 100
100 100 100 100 68 98 100 100 5 5 32 8 1 5 0 1 1 0 0 5 5 6 33 9 6 12 5 78 84 4 92 97 100 100 100 100 100 100 100 100 100 100 100 100 100
100 100 100 100 100 100 99 100 27 5 10 8 2 7 0 0 0 0 0 0 0 0 44 100 89 39 53 96 11 4 76 100 100 100 100 100 100 100 100 100 100 100 100 100 100
100 100 100 100 63 100 100 100 29 18 100 5 3 2 0 5 3 0 2 1 4 0 65 100 100 100 100 100 72 5 52 100 100 95 100 100 94 100 100 100 100 100 100 100 100
100 100 100 100 100 100 100 86 5 5 14 40 5 0 5 55 0 0 0 3 5 0 100 94 100 100 100 100 48 0 98 93 100 100 100 100 84 100 100 100 100 100 100 100 100
100 100 100 100 100 100 100 36 5 5 5 4 5 4 0 1 0 5 5 5 2 4 100 100 100 100 100 100 19 0 98 100 100 100 100 100 93 100 100 100 100 100 100 100 100
100 100 100 100 100 100 100 95 5 5 8 5 3 0 28 0 1 4 5 5 2 96 100 99 100 100 100 100 41 32 100 100 100 100 100 100 55 100 100 100 100 100 100 100 100
100 100 100 100 100 100 100 66 16 5 14 17 18 4 9 0 1 4 5 5 7 99 100 100 100 100 100 92 92 100 100 99 100 100 98 100 100 61 100 100 100 100 100 100 100
100 100 100 100 100 100 100 100 39 5 5 0 0 14 0 0 3 5 5 56 34 100 100 100 100 100 100 95 95 97 100 100 100 100 100 100 99 100 100 100 100 100 100 100 100
100 100 100 100 100 100 100 100 48 5 0 0 0 0 0 4 68 98 64 5 8 100 100 100 100 82 100 100 100 100 100 100 100 100 100 100 100 100 85 100 100 100 100 100 100
100 100 100 100 100 100 100 99 20 5 1 0 1 0 4 93 90 63 6 57 85 100 100 100 100 93 100 100 100 100 100 100 100 100 100 100 100 100 36 100 100 100 100 100 100
100 100 100 100 100 100 100 96 5 5 5 0 4 5 5 76 38 52 40 64 94 100 100 99 100 57 100 100 100 100 90 100 100 100 100 100 100 100 100 100 100 100 100 100 100
100 100 100 100 100 100 100 77 5 5 5 0 0 19 54 53 100 98 100 100 94 100 100 100 100 98 100 100 100 100 100 100 100 100 100 100 100 100 100 100 100 100 100 100 100
100 100 100 100 100 100 100 88 5 5 3 0 0 5 76 100 97 100 100 100 100 100 82 100 100 99 100 100 100 100 97 100 100 100 100 100 100 100 100 98 100 98 100 100 100
100 100 100 100 100 100 100 54 25 10 0 3 0 24 84 100 100 100 100 100 100 100 100 100 100 100 100 100 100 100 100 100 100 100 100 100 78 100 100 100 100 100 68 100 100
100 100 100 100 100 100 100 46 53 7 4 0 1 54 80 70 100 100 100 100 100 100 90 100 100 100 100 85 100 100 100 100 100 100 100 100 100 100 100 100 100 97 57 54 99
100 100 100 100 100 100 100 100 94 5 5 0 5 5 8 88 90 100 100 99 87 100 100 100 100 100 57 49 79 100 100 100 100 100 100 100 100 100 100 100 100 100 62 4 2
100 100 100 100 100 100 100 100 100 4 0 0 3 5 5 65 60 94 99 100 100 100 100 100 100 100 50 5 100 74 100 100 100 100 100 100 100 100 100 100 100 100 67 5 0
100 100 100 100 100 100 100 100 80 0 0 0 4 6 14 5 10 79 24 69 100 100 100 100 100 98 52 25 100 100 98 95 100 100 99 100 100 100 100 100 95 91 16 4 2
100 100 100 100 100 100 100 100 5 0 0 0 3 5 5 5 86 72 6 77 100 100 100 100 96 86 99 83 62 62 97 95 98 98 100 100 100 100 80 70 100 52 6 5 5
100 100 100 100 100 100 100 83 3 0 0 0 5 5 5 7 5 5 98 40 96 88 53 6 15 59 57 13 5 5 6 7 97 100 100 100 100 100 29 30 15 7 8 4 5
100 100 100 100 100 100 100 59 3 0 0 1 5 5 5 5 71 13 5 57 5 5 5 34 48 34 12 99 57 63 10 5 46 91 99 99 49 96 99 95 64 11 3 16 56
100 100 100 100 100 100 100 33 2 4 0 4 5 5 5 5 11 85 5 5 5 3 0 2 2 5 5 5 8 9 17 5 9 73 92 76 37 5 5 6 5 10 38 100 13
100 100 100 100 100 100 94 40 5 5 4 5 5 5 5 5 5 95 5 5 4 1 0 1 4 5 5 5 5 15 63 87 85 8 5 45 73 52 7 23 24 99 100 100 91
100 100 100 100 100 100 92 99 89 5 5 5 5 5 2 2 4 6 100 5 5 5 0 0 8 5 5 5 5 5 5 6 84 50 63 5 5 86 100 100 100 100 100 84 15
100 100 100 100 100 93 52 5 9 5 2 1 0 1 5 5 4 5 32 24 5 5 5 0 4 5 5 5 5 5 0 4 5 3 43 64 64 9 82 100 100 79 42 13 31

GFSSW_prec_cloud_072.txt.gz
Cloud_Cover
100 100 100 100 100 98 100 72 98 96 100 100 6 10 5 5 5 5 1 0 0 6 14 8 0 0 0 10 1 0 93 98 6 98 99 100 100 100 33 75 100 100 100 100 100
100 100 100 100 100 100 100 77 98 81 97 88 48 18 7 5 5 5 0 2 24 0 1 26 38 5 33 6 23 5 33 5 4 96 100 100 100 100 100 69 100 100 100 100 100
100 100 100 100 100 97 100 58 46 100 99 81 50 5 5 5 11 0 0 1 1 4 0 0 5 5 48 20 26 13 14 2 5 100 100 100 100 100 99 65 100 100 100 100 100
100 100 100 100 100 100 100 33 88 100 100 24 14 5 4 5 4 0 0 0 0 0 0 5 95 76 93 36 0 81 1 4 61 100 100 99 100 48 100 66 100 100 100 100 100
52 100 100 100 100 100 94 22 75 100 90 6 25 7 4 33 7 0 0 0 3 0 0 5 15 76 67 6 4 93 10 3 99 100 100 100 100 100 58 52 100 100 100 100 100
98 100 100 100 100 100 100 99 100 100 78 43 27 5 5 35 0 0 0 0 0 2 1 4 5 96 100 77 50 92 94 21 100 100 100 100 100 100 74 23 100 100 100 100 100
98 100 100 100 100 100 100 100 100 100 94 19 53 48 13 0 0 0 1 5 4 0 5 4 48 100 100 99 98 100 84 46 100 100 100 100 100 100 95 64 100 100 100 100 100
39 100 100 100 100 100 100 100 100 100 95 100 6 5 28 0 0 0 5 0 2 5 5 41 100 100 100 100 100 100 96 100 100 100 100 100 100 100 92 100 99 100 100 100 100
100 100 100 100 100 100 100 100 100 100 100 82 39 49 18 0 0 0 0 1 5 5 24 100 100 100 100 98 100 100 89 100 100 100 100 100 100 100 100 100 100 100 100 100 100
79 100 100 100 100 100 100 100 100 100 100 14 82 38 0 0 0 5 15 7 16 5 100 99 99 100 100 100 100 99 100 100 100 100 100 100 100 94 92 100 100 100 100 100 100
100 100 100 100 100 100 100 100 98 96 97 88 5 0 0 5 42 20 58 5 5 31 96 100 100 100 100 100 80 47 74 100 100 100 100 100 100 83 89 100 100 100 100 100 100
100 100 100 100 100 100 100 100 100 100 93 92 4 0 5 65 48 58 15 45 6 99 96 100 100 100 100 100 98 100 100 100 100 100 100 100 100 97 100 100 100 100 100 100 100
100 100 100 100 100 100 100 100 100 100 100 5 1 4 5 69 10 96 83 78 100 100 100 100 100 100 100 100 100 100 100 100 100 100 100 100 100 98 100 100 100 100 100 100 100
38 100 100 100 100 100 100 100 100 100 59 5 0 3 29 10 62 72 100 100 100 100 100 100 100 98 98 100 100 100 100 100 100 100 100 100 100 100 100 100 100 100 100 100 100
7 100 100 100 100 100 100 100 100 100 12 2 0 5 5 77 96 100 98 100 100 100 100 100 100 96 100 100 100 100 100 100 100 100 100 100 100 100 100 100 100 100 100 100 100
36 100 100 100 100 100 100 100 100 100 20 1 3 26 53 100 100 100 100 100 95 100 100 90 97 100 100 100 100 100 100 100 100 100 100 100 100 100 100 100 100 100 100 100 100
100 100 100 100 100 100 100 100 100 99 5 0 5 34 48 95 98 100 100 100 100 100 100 100 100 100 100 100 100 100 100 100 100 100 100 100 100 100 100 100 100 100 100 100 100
100 100 100 100 100 100 100 100 100 11 4 0 2 5 64 99 100 100 100 94 76 100 100 100 100 100 100 100 100 100 100 100 100 100 100 100 100 100 100 100 100 100 100 100 100
100 100 100 100 100 100 100 100 57 2 0 0 0 6 5 47 98 100 100 100 95 100 100 100 100 100 100 100 96 100 100 74 100 100 100 100 100 98 100 100 100 100 100 100 100
100 100 100 100 100 100 100 82 4 0 0 0 0 5 82 42 99 100 100 97 100 100 100 98 98 100 100 96 100 100 100 100 100 100 100 100 100 100 74 100 100 100 100 100 100
100 100 100 100 100 100 100 7 3 0 0 0 0 5 72 62 80 100 100 70 100 96 84 46 50 100 39 17 83 100 99 55 100 100 100 100 100 100 99 17 100 100 100 100 92
100 100 100 100 100 100 87 5 0 0 0 0 2 5 95 27 5 74 79 100 64 99 75 5 80 100 39 88 100 100 100 100 100 100 100 92 100 100 100 100 8 97 68 22 17
100 100 100 100 100 100 13 5 0 0 0 0 5 5 5 5 5 5 80 52 90 98 84 5 5 26 43 25 5 5 8 78 56 58 94 99 100 100 100 35 82 18 5 5 59
100 100 100 100 100 47 5 5 0 0 0 0 0 3 5 5 5 5 5 5 5 0 0 0 3 1 5 0 0 2 3 0 2 4 3 27 88 67 33 93 43 24 36 22 6
100 100 100 100 100 20 5 5 0 2 0 0 0 0 3 5 5 5 5 5 5 3 0 0 5 5 5 5 0 0 0 0 0 1 4 4 4 5 3 17 46 100 88 6 11
100 100 100 100 45 5 41 5 0 4 4 5 0 0 0 3 5 5 5 0 4 5 0 0 8 4 5 5 0 0 5 0 0 0 0 0 0 0 5 5 5 5 5 50 100
100 100 100 100 62 66 66 54 4 0 5 0 2 0 0 0 4 5 5 5 5 5 1 0 4 5 5 5 5 2 0 1 0 0 0 3 0 4 2 5 9 7 23 25 75

GFSSW_prec_cloud_075.txt.gz
Cloud_Cover
98 100 100 100 100 100 100 100 47 29 5 68 70 100 33 13 3 5 58 40 5 6 48 79 0 3 0 1 2 0 28 5 3 24 4 100 100 98 64 34 5 63 5 100 100
50 88 100 100 100 100 100 100 85 99 57 8 98 100 100 5 5 35 20 5 13 13 4 0 85 38 58 19 0 16 16 2 0 3 3 100 100 100 97 77 5 5 13 100 100
100 71 100 100 100 100 100 100 97 100 100 96 98 100 16 5 6 78 5 5 6 3 0 0 0 2 62 67 6 1 21 0 0 1 26 100 100 100 100 93 17 39 62 100 100
100 90 100 100 100 100 100 100 100 100 100 100 100 99 6 5 5 5 5 5 5 0 0 0 2 6 36 40 9 4 0 2 2 0 72 100 100 100 100 26 44 6 89 100 100
100 75 99 100 100 100 100 100 100 93 100 100 100 35 43 5 84 5 95 32 0 0 0 0 5 10 60 15 25 13 0 5 1 5 43 100 100 71 100 96 79 25 19 100 100
99 100 99 100 100 100 100 100 100 74 100 95 100 35 21 64 81 71 49 6 0 1 2 0 2 4 55 80 100 5 1 5 5 3 6 100 100 100 100 100 100 57 90 100 100
95 32 100 100 100 100 95 100 100 100 100 51 100 60 5 58 80 53 44 1 0 0 0 0 5 64 35 100 100 81 36 3 6 3 100 100 100 59 100 100 98 100 100 100 96
100 78 100 100 100 99 100 100 100 100 55 100 100 59 15 32 33 34 5 3 1 0 2 5 5 100 100 100 100 99 50 88 4 3 64 100 94 100 100 100 87 100 100 100 100
80 53 100 100 100 100 100 100 100 100 96 100 100 55 76 5 5 3 0 1 4 2 5 5 29 23 68 100 100 96 100 96 100 5 99 100 100 100 100 90 99 100 100 100 100
10 40 90 100 100 92 100 100 100 100 100 97 100 96 20 5 4 5 5 5 5 5 11 12 31 95 100 100 100 100 100 98 93 68 98 100 100 100 100 100 100 100 100 100 100
100 28 69 100 100 100 100 100 100 100 100 100 100 94 93 5 5 5 5 5 16 27 10 12 97 100 100 100 100 100 100 97 100 100 100 100 100 100 100 91 100 100 100 100 100
100 100 100 100 100 100 100 100 100 100 100 100 100 100 18 5 22 5 40 29 5 17 84 93 98 98 100 100 100 100 98 95 100 100 100 100 100 100 100 100 100 100 100 100 100
2 81 12 100 100 100 100 100 100 100 100 100 100 95 5 5 8 5 75 76 100 98 100 100 100 100 100 100 100 100 100 100 100 100 100 100 100 100 100 100 100 100 100 100 100
3 54 50 100 100 100 100 100 100 100 100 100 100 39 7 5 88 65 69 100 100 100 100 100 100 100 100 100 99 89 98 100 100 100 100 100 100 100 100 100 100 100 100 100 100
5 6 4 100 100 100 100 100 100 100 98 100 99 5 12 34 88 98 100 100 100 100 100 100 100 98 100 100 100 100 100 100 100 100 100 100 100 100 38 100 100 100 100 100 100
41 51 1 100 100 100 100 100 100 100 100 100 31 5 98 100 100 100 77 100 100 100 100 100 100 56 100 100 100 100 100 100 100 100 100 100 100 100 80 100 100 100 100 100 100
95 58 95 100 100 100 100 100 100 100 100 100 5 5 5 37 99 90 100 99 100 100 100 100 99 100 100 100 100 100 100 100 100 100 100 100 100 100 100 98 97 100 100 100 100
97 50 95 100 100 100 100 100 100 100 100 6 5 5 5 8 100 100 100 100 100 100 100 100 100 100 100 100 100 100 100 100 100 100 100 100 97 100 100 100 100 100 100 100 100
99 100 100 100 100 100 100 100 100 100 77 4 5 5 5 5 83 100 100 100 100 100 100 100 100 100 100 100 100 100 100 90 100 100 100 67 100 100 100 100 100 100 100 100 100
98 100 100 100 100 100 100 100 100 100 0 0 1 0 5 86 98 96 73 92 100 100 100 100 100 100 100 100 100 100 100 100 97 97 100 100 100 100 100 100 100 100 100 100 100
100 100 100 100 100 100 100 99 98 10 0 0 1 5 5 100 40 81 100 100 100 100 100 100 100 99 100 100 100 100 100 100 100 100 100 100 100 100 100 100 100 100 100 100 100
100 100 100 100 100 100 100 100 7 2 0 0 5 5 46 87 64 100 100 97 97 94 100 93 100 68 79 97 74 33 76 100 100 100 100 100 100 100 75 100 100 100 100 100 100
100 100 100 100 100 100 100 68 3 4 0 0 5 45 5 5 50 8 79 67 42 5 5 5 5 46 5 6 5 5 6 80 71 29 97 100 55 100 99 100 66 75 100 100 100
100 100 100 100 100 63 100 73 4 0 0 0 5 23 1 67 99 65 84 34 5 2 0 1 5 1 5 2 0 0 4 0 0 13 7 80 63 9 100 75 52 5 20 5 57
100 100 100 100 100 100 100 5 0 0 0 0 1 0 2 3 5 5 5 5 3 2 0 0 4 5 5 1 0 0 1 4 4 0 0 5 14 6 11 1 7 5 0 0 0
100 100 100 100 100 100 100 5 0 2 0 0 0 0 0 3 4 5 2 0 4 0 0 0 5 3 5 5 0 0 0 0 2 3 5 5 5 5 5 35 45 5 19 95 6
100 100 100 100 91 100 100 4 0 0 1 0 0 0 1 0 5 3 5 2 5 1 0 0 5 5 5 2 0 2 5 5 4 0 0 0 0 4 17 43 28 32 28 57 98

GFSSW_prec_cloud_078.txt.gz
Cloud_Cover
98 80 100 74 100 100 100 100 72 68 71 70 10 5 38 13 5 5 5 5 5 5 46 84 27 51 10 2 3 7 98 5 5 2 0 2 4 0 1 74 44 2 1 38 98
99 84 85 76 94 100 100 100 99 83 17 9 98 17 5 81 14 5 5 5 8 13 35 92 64 12 85 31 0 2 5 5 2 0 0 5 5 1 4 67 44 5 6 4 75
96 100 80 29 23 100 100 100 98 6 22 5 13 100 63 57 83 98 10 5 16 5 5 22 81 5 8 96 83 6 5 5 5 5 5 7 5 5 34 14 78 17 5 43 97
100 92 100 100 87 100 100 100 81 92 65 5 5 29 84 93 98 76 8 5 5 5 17 60 6 38 34 5 9 67 19 5 3 18 12 4 18 82 5 26 100 80 67 90 100
100 100 91 10 100 100 100 100 100 68 70 88 53 24 5 5 91 48 86 6 5 5 5 25 14 5 5 5 16 21 3 18 12 6 58 30 32 19 66 99 100 71 5 8 100
100 100 100 5 47 100 100 100 100 100 100 60 9 82 32 38 54 99 6 4 0 5 3 4 5 18 16 40 48 5 6 10 99 64 38 4 3 49 95 100 100 100 63 95 100
100 100 100 100 96 100 99 100 99 100 13 84 100 28 84 52 15 100 6 5 0 2 5 4 3 19 76 95 33 96 36 96 60 76 6 4 32 24 100 100 100 100 81 56 100
100 100 100 100 100 100 100 100 95 100 96 76 53 100 59 2 96 95 2 5 5 5 5 0 5 34 99 24 58 77 99 100 30 65 9 22 1 65 100 100 100 87 99 67 100
77 100 100 100 100 100 100 100 100 100 100 58 88 57 6 5 98 13 3 1 2 3 0 5 18 58 73 99 99 97 100 90 73 32 6 20 18 100 100 100 100 93 93 80 100
100 100 100 100 100 100 100 100 100 100 100 27 20 70 87 93 35 5 5 5 14 72 20 39 94 95 99 100 90 100 96 80 73 6 5 81 84 100 100 100 100 29 11 81 100
100 100 100 100 100 100 100 100 100 100 87 64 74 98 100 75 40 5 5 5 18 31 52 58 86 64 44 100 100 100 100 100 94 73 13 40 85 100 100 100 100 30 95 100 100
26 32 65 100 100 100 100 100 100 100 71 87 100 100 100 50 6 6 5 38 26 45 30 84 81 96 100 98 100 100 100 100 100 65 44 100 100 100 100 100 100 67 93 100 100
55 22 4 46 100 100 100 100 100 100 78 95 100 100 100 92 33 17 18 14 55 62 18 97 88 99 100 100 100 100 91 100 100 100 100 100 100 100 100 100 100 100 100 100 100
78 100 5 78 100 100 92 100 100 96 72 100 100 100 100 42 86 74 99 44 94 87 98 100 100 100 100 100 100 100 94 100 100 100 100 100 100 100 100 100 100 100 100 100 100
100 100 100 5 92 100 100 100 76 90 100 98 100 100 100 83 82 87 95 84 100 99 100 100 100 100 100 100 99 100 100 100 100 100 100 100 100 100 100 100 100 100 100 100 100
100 100 76 52 90 100 100 100 100 96 100 100 100 100 100 100 91 100 99 91 100 100 100 100 100 100 100 99 89 100 100 100 100 100 100 100 100 100 100 100 100 100 100 100 100
99 81 96 100 93 85 100 100 97 100 100 100 100 100 100 100 84 91 100 92 88 100 100 90 100 100 100 100 100 100 96 100 100 100 100 100 100 100 100 100 100 100 100 100 100
100 100 100 100 94 100 100 100 100 100 100 100 100 100 100 94 100 100 100 100 100 100 100 100 100 100 100 100 100 100 100 100 100 100 100 100 100 100 80 100 100 100 100 100 100
100 100 90 100 100 100 100 100 100 100 100 100 99 99 20 14 26 100 100 89 100 100 100 100 100 100 100 100 100 100 100 100 100 100 99 100 100 100 94 100 100 100 100 100 100
78 93 100 100 100 100 100 100 100 100 100 100 65 16 6 5 8 67 63 94 100 100 100 100 100 100 100 100 100 100 100 100 100 100 97 99 100 100 32 93 100 100 100 100 100
86 100 100 100 100 100 100 100 100 100 100 47 2 5 5 25 96 100 100 100 100 100 100 100 100 100 100 96 100 100 100 92 100 100 91 82 100 99 100 100 100 100 100 100 100
100 100 100 100 100 100 100 100 100 81 5 4 3 5 4 33 100 100 81 100 95 100 100 100 34 91 100 64 66 91 100 100 100 100 90 36 24 31 71 100 96 100 100 100 100
100 100 100 100 100 100 100 100 12 3 5 10 5 4 5 22 10 22 84 76 15 75 32 92 23 14 6 43 99 23 4 1 5 6 100 93 52 45 68 100 100 100 100 100 100
100 100 100 100 100 100 99 25 4 5 5 20 5 1 5 5 5 29 5 5 5 5 1 0 4 4 4 42 14 2 8 1 5 34 84 19 55 34 77 69 53 4 20 99 100
100 100 100 100 100 78 87 9 5 5 5 5 2 0 0 5 5 5 5 5 3 0 0 1 5 5 5 4 0 0 0 4 23 50 45 7 6 0 0 0 4 5 0 30 56
100 100 100 96 73 100 65 5 4 5 5 0 0 0 5 0 5 5 5 5 0 0 0 0 4 0 0 0 0 4 0 0 0 3 5 6 5 5 5 5 5 5 5 5 67
98 67 40 52 38 98 32 5 0 0 1 0 0 0 0 2 0 1 0 0 0 0 0 0 3 3 4 0 0 0 0 3 3 0 0 3 0 0 1 2 2 5 5 5 5

GFSSW_prec_cloud_081.txt.gz
Cloud_Cover
100 100 97 86 70 40 100 100 100 100 93 2 0 2 6 56 98 71 4 2 3 5 3 100 32 4 0 1 4 5 81 9 27 5 5 4 5 54 26 14 100 19 100 92 23
100 96 62 100 99 66 83 100 100 100 78 4 2 0 0 1 2 99 34 1 4 5 18 51 94 64 59 4 4 5 5 5 5 15 5 5 5 5 84 76 100 86 100 69 15
100 100 100 100 97 95 92 100 100 100 85 5 5 0 1 0 0 0 1 4 11 31 61 68 5 5 6 81 68 5 2 4 5 5 5 49 11 44 91 37 100 95 47 95 18
100 100 100 100 78 82 100 100 100 100 38 8 0 5 5 4 0 0 0 0 3 0 93 100 90 53 5 12 5 16 7 51 5 5 68 24 6 5 78 72 6 44 37 82 87
100 100 100 100 100 100 98 100 100 100 68 41 5 5 5 5 3 1 0 0 1 0 14 100 100 77 5 5 5 25 28 5 5 55 5 10 30 42 47 5 4 50 94 92 6
100 100 100 100 100 100 96 100 100 100 100 5 5 5 4 3 1 0 0 0 2 3 5 100 97 23 24 2 5 5 6 63 83 74 96 38 5 74 5 37 96 100 8 100 42
100 100 100 100 100 100 100 100 100 100 100 24 5 5 10 2 0 0 0 0 3 4 5 68 9 77 27 63 12 44 63 5 5 57 57 100 74 53 0 93 88 5 50 7 51
100 100 100 100 100 100 100 100 100 100 100 44 5 45 11 0 0 0 0 0 1 0 5 10 5 75 100 94 60 67 77 93 5 8 6 100 17 0 1 5 26 70 33 21 99
100 100 100 100 100 100 100 100 100 100 100 100 85 94 9 0 0 0 1 4 6 48 5 21 57 97 75 99 100 97 63 80 55 72 89 76 6 5 8 14 48 98 100 8 98
100 97 98 94 100 100 100 100 100 100 100 100 100 49 3 3 4 0 47 5 11 89 100 99 100 100 100 100 99 93 100 100 86 69 100 82 38 25 16 65 53 99 100 65 83
5 5 5 0 100 100 100 100 100 100 100 100 100 18 5 5 5 2 5 23 58 100 100 98 100 95 73 64 78 95 100 90 95 100 100 72 98 95 9 5 98 100 100 96 89
99 100 73 1 78 100 100 100 100 100 100 100 94 39 5 5 5 14 5 55 57 98 90 72 98 90 100 100 95 100 100 96 95 86 57 97 84 100 12 100 100 100 100 47 52
14 21 100 100 92 99 100 100 100 100 100 81 66 6 5 5 22 85 6 42 97 100 94 94 99 99 100 100 100 100 100 100 100 12 88 26 76 79 100 100 100 100 99 86 97
100 100 92 86 97 100 92 100 100 100 100 100 24 5 5 51 98 82 76 88 97 96 100 100 100 100 100 100 100 100 92 98 100 88 84 57 98 100 100 99 23 100 100 100 100
100 100 100 100 97 100 100 100 100 100 100 45 30 15 50 100 94 33 99 100 91 100 100 100 100 100 100 100 100 100 100 100 100 100 98 69 100 100 100 96 78 100 100 100 100
100 100 93 100 100 92 100 100 100 99 88 10 19 63 100 72 60 96 81 96 100 100 100 100 97 91 100 85 90 100 100 100 100 100 100 100 100 100 100 100 100 100 100 100 100
100 98 48 100 100 89 96 100 100 100 91 22 100 100 100 88 100 100 86 100 100 100 93 98 98 100 100 100 100 100 100 100 100 100 100 100 100 100 100 100 100 100 100 100 100
100 100 98 90 100 87 100 100 100 92 86 100 100 100 100 100 100 100 96 100 100 100 100 73 99 100 100 100 100 100 100 100 100 100 100 100 100 100 100 100 100 100 100 100 100
100 100 100 96 21 100 100 100 100 100 100 100 100 100 100 87 100 95 91 100 100 100 100 100 100 100 100 100 100 99 100 100 92 100 100 100 100 100 100 100 100 100 100 100 100
100 100 100 100 91 100 100 100 100 100 100 100 100 100 100 47 100 98 99 99 100 100 100 100 100 99 100 100 100 98 100 100 100 100 100 100 100 100 100 100 100 100 100 100 100
37 99 100 100 100 100 100 100 100 100 100 100 91 43 100 69 100 97 99 100 100 100 100 100 100 100 100 100 100 100 100 100 100 100 100 100 100 100 100 100 100 100 100 100 100
100 100 100 100 100 100 100 100 100 100 100 20 6 87 100 100 98 100 100 100 98 100 100 100 100 100 100 100 100 100 100 100 100 55 100 100 100 94 100 99 100 100 100 100 100
100 100 100 100 100 100 100 100 92 76 21 59 18 93 100 98 72 100 97 92 38 29 80 34 99 81 67 95 97 38 28 5 24 16 90 77 100 97 70 83 100 100 100 100 100
100 100 100 100 99 100 100 5 90 100 30 6 28 53 39 15 5 80 5 5 58 96 3 1 5 6 42 28 5 5 5 3 3 0 4 4 5 6 4 24 99 91 100 100 100
100 100 100 100 93 83 22 35 85 34 5 5 5 22 37 33 10 9 5 5 2 1 2 5 4 3 4 4 0 1 0 0 4 2 1 2 5 7 11 5 4 12 71 100 100
55 58 100 40 93 18 5 80 5 5 45 5 5 5 5 5 5 5 3 3 2 1 0 0 4 0 0 0 4 5 3 0 0 0 0 0 2 0 0 0 0 10 14 92 100
50 5 38 94 60 46 43 5 5 5 4 38 31 5 4 3 1 0 0 0 0 0 0 0 2 2 3 0 0 1 0 3 1 0 0 4 0 0 0 0 0 0 0 1 43

GFSSW_prec_cloud_084.txt.gz
Cloud_Cover
46 48 100 75 96 89 40 86 100 100 100 13 3 90 3 0 0 0 14 2 16 5 5 5 94 27 12 3 0 5 44 8 5 0 0 0 0 0 5 12 30 37 83 63 57
100 100 100 100 16 76 100 98 100 100 100 10 2 0 0 4 3 0 0 0 0 4 34 32 96 87 9 4 4 1 5 4 0 2 3 2 0 0 4 72 34 100 6 84 91
100 100 100 100 100 79 96 93 100 100 100 92 4 0 0 1 0 0 0 0 0 0 0 0 0 14 5 11 4 7 3 0 0 5 27 2 5 5 5 5 84 91 12 0 11
100 76 100 100 100 100 100 100 100 100 100 100 56 5 5 1 0 0 0 0 0 0 0 2 2 4 5 5 8 5 5 4 4 4 2 5 1 5 5 4 52 96 7 24 0
66 37 100 100 100 100 100 100 100 100 100 100 66 6 82 100 53 2 0 0 0 0 0 2 3 5 5 5 5 53 16 5 69 6 5 2 2 5 0 3 61 72 3 78 54
98 100 100 100 100 100 100 100 100 100 100 100 98 61 99 82 100 5 0 0 0 0 0 3 5 5 18 2 4 1 5 5 22 26 32 27 5 4 0 4 5 5 5 1 16
100 100 100 100 100 100 100 100 100 100 100 100 100 89 100 100 100 26 5 0 0 2 2 11 14 5 5 5 5 32 17 5 2 0 0 5 3 5 4 5 0 0 30 5 7
100 100 100 100 100 100 100 100 100 100 100 100 88 56 100 100 100 82 5 0 0 0 0 4 5 5 8 32 9 6 6 5 0 1 0 2 11 0 0 0 0 0 5 12 5
100 100 100 100 100 100 100 100 100 100 100 100 100 96 99 100 100 88 5 1 3 11 38 31 50 63 87 66 74 42 78 5 64 96 68 66 2 0 0 10 0 5 6 46 47
32 44 97 100 100 100 100 100 100 100 100 100 94 91 100 100 100 95 9 2 4 25 84 70 100 100 65 100 74 6 76 85 92 95 100 17 4 0 38 42 1 0 1 83 9
60 5 3 5 100 100 100 100 100 100 100 100 100 39 100 100 100 6 5 1 16 100 60 78 77 66 51 9 5 79 24 29 59 95 100 57 5 0 100 93 66 5 98 12 10
100 96 96 100 53 90 100 100 100 100 100 100 100 66 100 99 72 48 4 3 14 7 12 75 96 76 53 100 95 88 78 48 66 98 100 100 8 2 52 91 36 36 3 4 86
100 100 100 100 100 100 100 100 100 100 100 100 97 98 100 100 70 100 5 9 9 5 27 84 95 79 99 100 98 89 100 97 100 100 78 100 46 59 78 98 22 16 6 58 100
100 100 100 100 100 100 100 100 100 98 100 76 98 100 100 97 62 100 5 9 5 86 79 96 100 100 100 98 100 100 100 100 100 100 40 51 55 86 58 5 4 87 100 96 100
100 100 100 100 100 100 100 100 100 97 99 79 100 100 100 70 84 75 6 99 27 70 100 96 84 72 100 98 100 100 100 100 96 91 100 29 100 100 98 82 100 100 100 100 100
100 100 46 100 100 100 100 100 100 100 98 100 100 100 89 64 72 55 100 98 15 87 99 96 86 98 78 97 100 100 100 100 100 100 100 100 96 100 100 100 98 100 100 100 100
100 100 34 100 100 100 100 100 100 100 93 100 97 98 96 71 77 100 100 100 92 100 96 84 99 92 100 100 100 100 100 100 100 100 100 100 92 100 100 100 100 100 100 100 100
100 100 39 92 100 100 83 98 100 100 98 17 81 83 100 100 99 100 96 58 98 100 99 100 100 100 100 100 100 100 100 100 100 100 100 100 100 100 100 100 100 100 100 100 100
37 100 99 86 100 100 100 100 100 100 96 100 100 100 100 100 88 75 48 100 95 99 100 100 100 100 100 100 100 100 100 100 100 100 100 100 100 100 100 100 100 100 100 100 100
100 100 100 86 7 97 100 100 100 100 100 100 100 100 99 16 42 79 95 100 94 100 100 100 100 100 100 99 100 100 99 100 100 100 100 100 100 100 100 100 100 100 100 100 100
57 82 92 98 97 100 100 100 100 100 100 100 100 99 5 67 93 82 100 100 100 100 100 100 100 100 94 93 100 100 100 100 100 100 100 99 100 100 100 100 100 100 100 100 100
55 100 90 100 100 100 100 100 100 100 90 22 53 70 42 40 97 98 100 100 97 100 100 100 100 100 99 98 100 100 97 32 100 100 100 100 100 100 100 100 100 100 100 100 100
100 100 100 100 100 100 100 96 73 19 17 38 41 97 100 100 100 100 100 100 100 100 100 51 93 75 100 100 95 98 18 44 62 100 96 90 100 100 100 100 100 99 91 100 100
100 100 91 100 100 99 40 42 44 89 100 96 75 71 99 88 93 80 70 95 100 50 91 87 12 6 30 12 93 12 5 4 5 89 62 5 18 10 57 61 99 88 44 100 100
79 100 86 91 7 41 82 79 78 9 5 5 5 39 66 100 73 5 4 1 2 0 1 1 2 4 1 2 3 1 1 1 5 28 17 5 10 4 19 94 100 90 39 100 100
12 8 5 5 5 24 7 17 4 5 23 6 5 38 49 25 22 5 5 0 0 0 0 0 0 0 0 0 0 0 0 0 0 0 0 0 0 0 0 0 1 26 4 35 100
0 5 4 5 5 4 3 4 2 5 5 6 77 5 5 4 0 0 0 0 0 0 0 0 1 2 4 0 0 1 0 0 0 0 0 4 0 0 0 0 0 0 0 0 3

GFSSW_prec_cloud_087.txt.gz
Cloud_Cover
100 100 100 100 26 100 95 100 65 99 100 91 5 3 0 1 1 0 1 0 0 0 0 0 0 0 2 0 0 0 31 12 4 0 0 0 0 0 0 0 0 5 5 41 100
100 100 100 100 100 100 99 100 96 24 100 46 55 5 0 0 0 0 2 0 0 0 0 0 0 0 1 0 0 0 4 5 1 0 0 0 0 0 0 0 0 0 77 5 12
100 100 100 100 100 100 100 100 98 92 97 97 63 29 9 0 9 0 0 0 0 0 0 0 0 2 2 0 3 3 2 0 0 0 0 0 0 0 0 0 0 0 4 12 5
100 100 100 100 100 100 100 100 100 75 100 100 98 91 9 5 25 0 0 0 0 0 0 0 0 1 0 2 0 4 0 0 0 0 0 0 0 0 0 0 0 3 2 3 5
100 100 100 100 100 100 100 100 84 100 100 100 100 100 55 10 14 7 1 0 0 0 4 0 0 0 5 0 0 3 3 2 5 5 5 4 0 0 0 0 0 1 5 5 5
100 100 100 100 100 100 100 100 100 100 100 98 100 100 100 94 32 80 5 0 5 3 5 2 0 3 3 0 2 0 0 0 0 0 0 0 0 0 0 0 0 0 5 90 5
100 100 100 100 100 100 100 100 100 100 100 100 100 100 100 100 100 83 8 7 4 3 5 5 2 1 0 0 0 3 5 0 0 0 0 0 0 0 0 0 0 0 0 6 5
100 100 100 100 100 100 100 100 100 100 100 100 100 100 100 95 100 100 87 10 18 5 12 5 2 2 1 0 1 1 4 8 0 0 1 8 5 0 0 0 0 0 1 4 5
77 100 100 100 100 100 100 100 100 100 100 100 100 100 100 100 100 73 12 5 5 5 17 27 48 5 3 40 13 12 55 5 0 6 9 71 16 0 0 0 0 0 0 5 1
100 91 98 99 100 100 100 100 100 100 100 100 100 100 100 99 97 16 9 5 6 6 78 12 6 47 64 68 46 18 55 5 5 81 6 19 19 5 8 63 0 0 0 1 0
100 100 100 51 13 36 100 100 100 100 100 100 100 100 100 100 100 51 5 5 8 98 100 37 66 100 12 5 62 78 5 5 5 44 97 19 23 0 1 50 2 0 0 0 0
95 100 100 55 100 100 100 100 100 100 100 100 100 100 100 100 96 5 34 10 70 100 69 67 90 4 5 5 60 67 100 71 35 23 96 100 64 1 28 98 98 68 24 0 5
96 93 98 96 97 100 100 100 100 100 100 100 100 100 100 100 92 72 79 11 100 88 5 13 2 0 5 13 77 99 100 78 92 100 98 65 99 4 73 55 83 100 41 5 20
82 100 84 6 19 100 100 100 100 100 100 100 100 100 100 98 96 100 86 81 96 25 5 5 4 5 5 32 89 100 100 100 100 100 86 11 40 3 9 58 57 70 35 97 86
100 100 96 5 99 100 100 100 100 100 100 100 100 100 100 100 100 87 38 38 5 56 22 6 4 5 32 100 100 100 100 100 100 89 100 77 98 90 14 10 12 83 100 99 100
79 100 56 23 57 100 100 100 100 85 88 95 100 96 98 100 100 84 72 5 8 13 41 51 36 11 100 98 99 100 100 100 100 100 98 23 96 96 100 96 100 100 100 100 100
100 100 11 5 23 100 89 100 100 100 100 100 85 84 100 100 88 84 33 52 67 92 73 26 78 100 95 91 100 100 100 100 100 100 100 100 97 100 99 100 100 100 100 100 100
100 83 5 46 99 100 49 23 66 98 98 99 91 100 100 100 100 36 68 65 52 23 96 100 84 100 100 100 100 100 100 100 100 100 97 89 100 100 100 100 100 100 100 100 100
68 25 100 91 68 97 100 100 100 100 100 100 100 98 97 87 99 96 98 100 43 96 100 100 99 98 100 100 100 100 100 100 100 100 94 100 100 100 100 100 100 100 100 100 100
3 4 63 25 100 100 94 100 100 100 88 98 100 85 100 97 86 73 100 95 62 100 100 94 100 69 100 100 95 100 100 95 100 100 100 100 100 100 100 100 100 100 100 100 100
5 79 96 99 95 84 100 100 100 100 100 100 100 100 62 12 64 100 100 100 100 100 100 47 100 100 99 100 100 100 100 100 100 100 100 100 100 100 100 100 100 100 100 100 100
100 100 44 60 100 96 100 100 97 100 100 96 90 5 37 35 100 100 19 100 95 100 100 64 95 73 100 100 100 100 100 100 100 100 100 100 100 100 100 100 100 100 100 100 100
100 100 100 64 83 99 100 85 61 35 33 21 5 16 84 100 90 48 90 94 100 100 100 95 93 83 100 98 92 100 99 100 100 100 100 100 100 99 100 100 100 100 100 100 100
100 100 83 90 47 69 48 5 36 14 51 40 18 54 100 33 56 9 97 81 89 31 16 71 100 99 89 26 5 5 11 20 82 100 11 19 76 8 50 100 100 100 99 100 100
59 18 7 70 18 50 5 31 5 5 5 6 6 7 8 6 10 22 94 69 67 6 5 2 6 56 10 5 4 2 0 0 5 6 2 6 5 5 5 10 93 23 7 100 100
0 1 1 4 11 5 5 5 0 5 5 5 5 5 3 3 0 0 0 0 0 0 0 0 0 0 0 0 0 0 0 0 0 0 0 0 0 0 0 5 4 18 8 56 80
0 4 5 4 5 3 4 4 2 0 5 0 3 0 0 0 0 0 0 0 0 0 0 0 0 4 4 0 0 0 0 0 0 0 0 0 0 0 0 0 0 0 0 3 73

GFSSW_prec_cloud_090.txt.gz
Cloud_Cover
100 100 100 100 100 100 94 100 100 100 41 97 99 38 0 0 1 5 0 0 0 0 0 0 0 0 0 0 0 0 4 91 100 99 66 4 0 0 0 1 0 4 4 5 51
100 100 100 100 100 100 90 100 92 100 100 92 100 100 1 0 0 0 0 0 0 0 0 0 0 0 0 0 0 0 3 2 18 85 32 19 3 0 0 0 0 0 0 0 13
100 100 100 100 100 100 100 100 100 100 100 54 85 100 24 4 0 0 0 0 0 0 0 0 0 0 0 0 0 0 0 0 0 0 2 5 1 0 0 0 0 0 5 4 0
100 100 100 100 100 100 100 100 100 100 100 100 95 100 22 0 2 0 0 0 0 0 0 0 0 0 0 0 0 4 0 0 0 0 0 0 0 0 0 0 0 0 4 2 5
100 100 100 100 100 100 100 100 100 100 100 100 100 100 86 14 4 0 0 0 0 0 0 0 0 0 0 0 0 0 0 0 0 0 0 0 0 0 0 0 0 0 0 0 5
100 100 100 100 100 100 100 100 100 100 100 100 100 100 83 34 22 5 5 14 32 8 8 0 0 0 0 0 0 0 0 0 0 0 0 0 0 0 0 0 0 0 0 0 0
100 100 100 100 100 100 100 100 100 100 100 100 100 100 100 92 78 100 44 100 84 72 80 3 0 0 0 0 0 0 0 0 0 0 0 0 0 0 0 0 0 0 0 1 0
82 100 100 100 100 100 100 100 100 100 100 100 100 100 100 55 100 100 100 71 39 17 5 26 4 0 0 0 0 0 1 21 0 0 0 1 1 0 0 0 0 0 0 0 4
81 100 100 81 100 100 100 100 100 100 100 100 100 100 100 100 100 52 95 61 72 25 6 4 3 2 4 2 20 6 73 5 4 0 3 34 4 0 2 5 2 0 0 0 0
100 98 90 60 28 32 100 100 100 100 100 100 100 100 100 100 100 74 60 76 69 38 19 15 5 5 5 59 36 16 81 12 5 12 4 5 2 5 4 5 5 0 0 0 0
36 100 100 100 46 100 100 100 100 100 100 100 100 100 100 100 100 100 94 84 5 5 48 5 23 70 5 5 5 5 20 42 5 5 99 5 5 5 2 0 3 2 0 0 0
8 68 100 99 100 100 100 100 100 100 100 100 100 100 100 100 100 100 100 76 12 5 42 33 81 5 5 5 5 14 98 62 11 5 82 47 14 5 3 1 5 4 5 1 0
72 86 25 24 100 97 100 100 100 100 100 100 100 100 100 100 100 100 96 67 40 7 5 59 4 5 4 5 34 40 74 43 100 99 98 69 80 4 0 4 5 5 6 0 2
100 76 35 5 68 100 100 100 100 100 100 100 100 100 100 100 100 88 99 100 97 39 68 71 5 5 15 97 99 100 87 100 100 89 76 79 17 12 4 89 5 30 82 98 52
100 57 92 0 100 100 100 100 100 100 100 100 100 100 100 100 100 100 100 100 74 59 92 5 5 5 14 82 100 100 100 100 100 100 99 63 100 6 58 88 98 100 100 100 80
91 39 6 99 100 100 100 100 100 100 100 100 100 100 100 100 65 100 100 5 7 78 26 46 28 58 79 94 66 98 99 100 100 100 98 66 97 85 61 59 99 100 100 100 100
80 19 52 83 99 99 100 100 100 100 100 100 99 100 100 100 100 100 18 58 88 94 73 97 100 92 100 93 93 83 100 100 100 100 100 93 91 74 100 94 100 100 100 100 100
12 98 100 100 100 77 100 55 43 80 92 100 100 74 95 69 22 83 10 82 82 81 100 100 100 88 100 100 98 100 100 100 100 95 100 100 100 100 100 100 100 100 100 100 100
1 3 5 42 93 100 89 93 94 80 88 80 86 87 90 99 85 74 100 100 100 100 100 100 100 81 100 74 100 100 100 100 100 100 100 99 100 100 100 100 100 100 100 100 100
5 11 22 5 6 91 100 100 100 95 96 100 100 100 100 100 100 97 63 67 100 100 100 100 100 100 100 84 100 100 100 100 100 100 100 100 100 100 100 100 100 100 100 100 100
71 27 5 85 100 100 100 100 100 100 100 100 99 100 100 100 99 70 87 100 100 100 100 78 88 100 100 100 100 100 100 100 100 100 100 100 100 100 100 100 100 100 100 100 100
100 100 100 100 96 100 100 100 100 100 100 100 100 100 64 100 83 100 100 100 97 100 95 100 60 100 100 100 87 98 100 100 100 100 100 100 100 100 100 100 100 100 100 100 100
94 47 80 100 80 84 78 42 21 10 5 53 19 40 40 100 100 100 88 15 95 98 86 100 100 99 87 95 100 100 100 74 100 35 94 100 100 100 100 100 100 100 100 100 100
0 8 2 5 54 43 5 10 5 5 5 19 81 100 33 88 73 100 100 100 83 31 11 7 31 33 42 11 6 43 84 100 97 66 76 64 89 100 100 100 100 100 100 100 100
0 3 7 60 5 71 9 5 5 5 24 80 39 32 91 16 5 32 12 6 49 69 44 41 72 10 5 2 4 8 5 5 6 3 7 3 4 14 100 87 100 78 100 100 100
0 2 4 5 5 5 5 0 4 0 0 0 0 0 0 1 0 1 0 0 0 0 0 0 0 0 0 0 0 0 0 0 0 0 0 0 0 0 3 21 10 19 46 37 20
0 0 0 1 1 0 0 0 0 0 0 0 5 4 1 0 0 0 0 0 0 0 0 0 0 4 1 0 0 0 0 0 0 0 0 0 0 0 0 0 2 1 3 70 81

GFSSW_prec_cloud_093.txt.gz
Cloud_Cover
100 100 100 100 100 100 100 22 49 100 100 70 100 100 5 4 5 5 25 20 43 100 12 6 5 5 2 5 2 2 4 5 12 30 13 10 86 100 100 100 41 1 0 0 0
100 100 100 100 100 100 100 100 97 57 100 100 70 100 61 89 1 1 9 1 5 5 17 88 6 4 3 4 2 0 0 0 0 0 26 92 7 10 43 49 5 10 0 0 0
100 100 100 100 100 100 100 100 100 100 100 100 100 100 100 22 6 0 0 0 0 1 4 3 0 0 6 5 5 0 0 0 0 0 0 6 38 5 1 36 10 5 5 0 0
99 100 100 100 100 100 100 100 100 100 100 100 100 100 100 23 3 0 0 0 0 0 0 0 0 0 0 0 0 0 0 0 0 0 0 0 0 0 0 2 5 16 5 5 5
65 71 100 100 100 100 100 100 100 100 100 100 100 100 100 100 28 3 1 0 0 0 0 0 0 0 0 0 0 0 0 0 0 0 0 0 0 0 0 0 0 0 0 0 0
100 38 92 100 100 100 100 100 100 100 100 100 100 100 100 100 100 77 10 21 31 4 5 2 0 0 0 0 0 0 0 0 0 0 0 0 0 0 0 0 0 0 0 0 0
40 100 100 100 100 100 100 100 100 100 100 100 100 100 100 100 100 100 100 84 16 5 5 1 0 0 0 1 0 0 0 0 0 0 0 0 0 0 0 0 0 0 0 0 0
78 100 100 100 100 100 100 100 100 100 100 100 100 100 100 100 100 100 100 100 94 19 31 36 4 0 1 0 0 0 1 13 0 0 0 1 1 0 0 0 0 0 0 0 0
5 86 100 100 100 100 100 100 100 100 100 100 100 100 100 100 100 100 99 97 100 46 42 23 5 1 2 2 5 5 80 17 4 0 2 3 6 0 0 0 0 0 0 0 0
5 11 100 100 100 42 100 100 100 100 100 100 100 100 100 100 100 100 90 87 54 29 10 5 5 5 5 5 3 5 38 5 6 1 5 5 4 0 1 4 3 0 0 0 0
94 5 5 100 93 96 88 100 100 100 100 100 100 100 100 100 100 100 100 96 76 9 24 38 14 20 5 3 3 5 5 16 5 5 90 9 5 0 0 1 0 0 5 0 0
98 96 5 4 86 100 100 100 100 100 100 100 100 100 100 100 100 100 100 100 41 8 5 16 34 3 3 5 5 12 100 69 7 14 84 86 21 5 0 0 0 3 2 5 5
78 100 48 1 100 100 100 100 100 100 100 100 100 100 100 100 100 94 100 99 84 32 22 45 31 54 11 6 53 79 100 96 83 51 18 83 41 5 3 2 4 32 100 100 43
100 100 4 93 100 100 100 100 100 100 100 100 100 100 100 100 100 100 100 62 95 100 95 26 50 12 27 100 100 100 83 100 100 100 63 38 64 5 9 35 99 98 100 100 94
100 69 0 100 100 100 100 100 100 100 100 100 100 100 100 100 95 86 82 100 91 84 51 8 5 9 58 29 89 100 74 71 100 100 98 74 90 90 100 100 100 100 100 100 100
5 1 29 100 100 100 100 100 100 100 100 100 100 100 100 100 100 100 36 12 5 7 15 19 39 65 79 96 100 92 100 100 100 100 100 100 30 26 100 98 97 94 100 100 100
1 0 97 100 100 100 100 100 100 100 100 100 100 100 100 100 100 93 26 14 99 88 51 100 63 100 100 99 95 100 100 100 100 100 80 100 92 97 100 100 100 100 100 100 100
19 11 90 70 100 73 55 46 20 100 99 100 100 100 49 17 7 16 96 100 8 79 100 99 100 100 96 98 100 100 100 100 100 100 100 100 100 100 100 100 100 100 100 100 100
1 5 3 21 92 97 100 100 99 98 100 100 100 100 100 100 100 96 77 98 100 100 100 100 99 93 100 100 100 100 100 100 100 100 100 100 100 100 100 100 100 100 100 100 100
5 9 43 62 36 22 100 100 97 60 89 91 96 78 14 65 84 46 94 100 100 100 100 91 99 100 100 100 100 100 100 100 100 100 100 100 100 100 100 100 100 100 100 100 100
34 30 18 5 5 5 97 100 100 100 100 70 79 96 100 100 100 100 100 100 100 100 97 100 100 100 100 93 100 100 100 95 100 100 100 100 100 100 100 100 100 100 100 100 100
31 5 36 100 100 98 100 100 100 100 100 100 100 100 81 23 97 100 100 100 96 97 100 100 100 100 100 97 100 100 100 100 100 100 100 100 100 100 100 100 100 100 100 100 100
0 2 4 5 42 85 100 99 100 100 98 100 100 100 100 100 93 96 100 84 61 72 100 100 100 100 100 100 100 95 97 100 100 100 100 100 100 100 100 100 100 100 100 100 99
0 1 0 0 18 8 30 5 5 63 88 59 99 24 7 9 100 83 17 100 57 72 16 73 100 90 100 100 100 100 61 62 48 90 100 100 100 100 100 100 100 100 100 91 14
8 1 2 37 0 3 0 0 57 5 5 22 8 5 16 5 4 5 21 5 19 7 4 2 1 1 4 4 15 29 14 5 5 3 14 95 100 19 99 84 32 100 100 93 43
0 0 0 0 0 0 0 0 5 5 4 4 0 5 1 3 11 5 0 0 0 0 0 0 0 0 4 0 0 0 0 0 0 0 0 0 1 4 5 19 26 23 32 71 5
0 0 0 0 0 0 0 0 0 0 0 0 0 0 0 0 0 0 0 0 0 0 0 0 0 5 1 0 0 0 0 0 0 0 0 0 0 0 0 2 10 19 86 27 4

GFSSW_prec_cloud_096.txt.gz
Cloud_Cover
4 9 95 100 100 100 100 100 100 75 94 100 99 100 100 43 0 0 1 6 75 28 68 90 6 46 14 37 36 5 32 58 19 79 7 1 4 5 5 4 86 79 100 20 5
5 5 3 33 100 100 100 100 100 100 100 100 100 100 100 72 1 0 0 0 0 0 16 53 8 4 5 38 100 78 30 15 54 29 5 3 3 4 1 1 0 16 13 35 21
5 14 5 1 100 100 100 100 100 100 100 100 100 100 100 100 80 4 0 0 0 0 0 1 5 3 0 5 6 48 6 4 5 0 0 0 0 0 3 5 6 4 1 0 1
0 5 5 5 5 100 100 100 100 100 100 100 100 100 100 100 75 0 3 4 0 0 0 0 0 0 4 4 0 1 5 67 5 1 0 0 0 0 0 0 0 3 2 0 0
5 5 5 98 45 100 100 98 100 100 100 100 100 100 100 100 99 38 58 15 1 0 0 0 0 0 0 0 4 5 0 2 5 2 0 0 0 0 0 0 0 0 0 0 0
2 3 2 53 22 100 100 100 100 100 100 100 100 100 100 100 100 100 100 83 9 4 0 0 0 0 0 0 0 0 0 0 0 0 0 0 0 0 0 0 0 0 0 0 0
5 3 0 4 100 100 100 100 100 100 100 100 100 100 100 100 100 100 100 100 100 91 54 5 2 0 0 0 0 0 0 0 0 0 0 0 0 0 0 0 0 0 0 0 0
18 6 5 32 100 100 100 100 100 100 99 100 100 100 100 100 100 100 100 100 99 100 100 100 91 4 5 6 0 1 0 3 0 0 0 0 0 0 0 0 0 0 0 0 0
100 99 2 90 100 100 100 100 100 100 100 100 100 100 100 100 100 100 100 100 100 100 100 89 40 42 10 5 28 28 38 5 2 0 0 2 1 0 0 0 0 0 0 0 0
100 95 5 79 100 93 100 100 100 100 99 99 100 100 100 100 100 100 100 100 100 100 100 100 99 49 88 49 12 6 21 5 5 0 5 5 1 0 0 0 0 0 0 0 0
100 52 5 5 44 100 100 100 100 100 100 100 100 100 100 100 100 100 100 100 100 100 100 96 84 47 5 8 5 5 6 8 5 5 50 5 5 5 2 5 2 0 0 0 0
25 16 5 0 100 100 100 100 100 100 100 100 100 100 100 100 100 100 100 100 100 100 100 100 97 99 48 49 5 6 95 64 7 5 92 23 77 0 5 0 33 100 100 63 69
97 33 5 99 100 100 100 100 100 100 100 100 100 100 100 100 100 100 100 100 100 100 100 100 100 33 35 6 10 13 90 35 91 70 13 55 16 0 2 46 88 20 77 94 55
97 1 43 100 100 100 100 100 100 100 100 100 100 100 100 100 100 100 100 100 92 77 74 20 6 8 5 22 38 100 69 95 100 100 97 64 58 3 7 37 23 85 100 96 100
3 100 100 100 100 100 100 100 100 100 100 100 100 100 100 99 99 99 100 100 100 100 68 22 7 5 45 10 85 57 100 100 100 100 100 73 98 8 100 100 100 100 100 100 100
4 82 100 100 100 100 100 100 100 100 100 100 100 100 100 95 65 37 12 15 10 5 6 5 5 5 19 42 63 99 100 88 100 100 98 20 91 26 100 100 100 100 100 100 100
70 85 100 100 99 90 95 100 100 100 100 100 100 100 100 45 83 50 5 5 35 71 32 5 5 94 92 94 100 100 100 98 100 100 100 100 100 100 97 100 100 100 100 100 100
7 26 54 92 100 96 100 100 100 100 100 100 100 100 100 100 95 85 11 8 8 91 89 44 5 72 97 100 100 100 100 100 100 100 100 100 100 100 100 100 100 100 100 100 100
1 37 74 14 14 31 97 100 100 100 100 100 100 100 100 94 61 5 9 100 95 95 48 68 88 100 100 100 100 100 100 100 100 100 100 100 100 100 100 100 100 100 100 100 100
0 0 4 5 5 43 76 100 39 62 34 58 81 78 54 47 75 100 100 69 71 100 99 100 100 100 82 88 93 100 98 100 100 100 100 100 100 100 100 100 100 100 100 100 100
0 0 3 0 4 16 75 89 30 82 100 100 98 95 49 73 100 66 8 88 100 100 100 100 100 81 96 70 100 100 94 100 100 100 100 100 100 100 100 100 100 100 100 100 100
0 0 5 4 6 31 95 67 38 18 61 61 5 82 100 64 38 100 100 100 100 100 100 100 99 51 100 100 100 100 100 100 100 97 100 100 100 100 100 100 100 100 100 100 100
0 0 3 4 15 81 78 40 15 88 99 66 65 50 5 98 100 100 100 100 100 100 100 92 100 98 91 100 100 100 100 100 100 100 100 99 100 100 100 100 100 100 100 100 100
0 0 0 0 5 4 47 5 5 26 33 5 20 59 58 95 52 62 100 100 71 63 25 56 62 82 35 5 12 38 76 90 100 34 8 85 84 99 100 100 100 84 90 94 76
6 0 2 5 0 0 0 2 0 5 5 5 5 5 3 6 4 4 3 6 4 10 20 2 4 12 4 6 3 0 1 4 5 11 5 5 6 44 46 19 65 80 52 7 10
0 0 0 0 0 0 0 0 4 4 5 0 0 0 0 0 0 0 0 0 0 0 0 0 0 0 0 0 0 0 0 0 0 0 0 0 0 3 5 5 40 75 48 17 43
6 0 0 0 0 0 1 0 0 0 0 0 0 0 0 0 0 0 0 0 0 0 0 0 1 5 3 0 0 0 0 0 0 0 0 0 0 0 0 0 0 0 0 0 0

GFSSW_prec_cloud_099.txt.gz
Cloud_Cover
4 11 12 2 2 14 56 99 100 100 100 60 100 84 100 100 6 5 1 83 98 100 68 15 5 6 5 32 33 32 6 23 5 25 99 37 63 46 7 5 5 40 76 5 48
66 5 12 6 2 4 6 80 99 100 100 100 100 100 100 100 100 16 0 0 0 68 99 100 95 23 54 30 21 82 96 72 44 72 13 24 32 5 5 5 5 5 12 7 5
52 44 96 5 4 1 10 43 98 100 100 100 100 100 100 100 100 44 4 0 0 0 1 5 92 100 100 100 86 23 15 6 18 53 16 8 5 2 5 47 5 0 5 3 0
5 92 61 5 10 5 5 37 100 86 100 100 100 100 100 100 100 99 20 18 0 0 0 0 0 0 1 6 99 94 26 72 10 5 5 5 5 1 4 22 6 2 0 1 0
5 5 5 25 5 5 5 99 100 100 22 100 100 100 100 100 100 96 72 99 2 0 0 0 0 0 0 1 2 3 67 56 89 5 0 0 0 5 5 4 0 0 2 2 0
56 0 0 0 0 5 10 100 100 100 100 80 100 100 100 100 100 100 100 100 92 6 5 0 2 0 0 0 0 0 0 0 0 3 5 0 0 0 0 0 0 0 0 0 0
100 41 5 5 5 3 96 98 100 100 100 100 100 100 100 100 100 100 100 100 100 100 77 4 5 36 2 0 0 0 0 0 0 0 0 0 0 0 0 0 0 0 0 0 0
100 79 5 5 5 6 100 100 100 100 100 100 100 100 100 100 100 100 100 100 100 100 100 100 50 5 70 39 11 1 0 0 0 0 0 0 0 0 0 0 0 0 0 0 0
93 94 87 100 5 43 100 100 100 100 100 100 100 100 100 100 100 100 100 100 100 100 100 100 100 80 76 63 79 8 0 2 0 2 0 2 3 2 0 0 0 0 0 0 0
100 100 100 96 4 45 100 100 100 100 80 100 100 100 100 100 100 100 100 100 100 100 100 100 100 100 100 93 38 59 28 5 4 4 23 7 4 0 0 1 0 0 0 0 0
94 100 60 5 4 85 100 100 100 100 98 100 100 100 100 100 100 100 100 100 100 100 100 100 100 100 87 42 100 100 97 100 5 17 5 5 5 0 0 0 7 100 100 97 97
5 9 75 2 88 100 100 100 100 100 100 100 100 100 100 100 100 100 100 100 100 100 100 100 98 83 96 42 26 11 96 82 85 5 14 5 4 0 2 40 100 100 97 98 57
4 8 4 82 100 88 100 100 100 100 100 100 100 100 100 100 100 100 80 100 100 100 100 100 100 92 100 100 37 26 45 18 27 36 5 10 29 0 2 54 22 29 100 96 81
100 100 100 97 100 100 100 100 100 100 100 100 100 100 100 100 100 100 71 73 100 100 100 100 100 100 100 100 99 24 5 78 88 100 97 94 60 5 2 5 5 6 100 100 100
95 100 100 100 100 100 100 100 100 100 100 100 100 100 100 100 100 96 75 59 97 100 83 100 100 100 100 64 5 5 14 20 78 100 100 97 100 0 5 5 6 100 91 100 100
100 100 100 100 100 100 100 100 100 100 100 100 100 100 100 100 100 100 100 100 89 25 41 62 79 60 6 5 6 9 36 79 98 100 96 85 69 74 44 44 70 83 100 100 100
25 97 95 100 99 100 100 97 76 100 100 100 100 100 100 100 100 100 100 77 5 5 7 5 5 5 11 73 93 74 100 74 88 99 97 99 98 100 100 100 100 100 100 100 100
5 12 14 9 97 100 100 100 100 100 95 71 84 100 100 99 82 100 23 6 6 12 94 48 5 21 9 6 87 100 100 96 92 100 100 100 100 100 100 100 100 100 100 100 100
4 2 5 100 79 74 88 100 100 100 99 91 64 5 88 8 9 5 47 5 5 5 60 82 33 48 10 80 100 100 100 100 100 100 100 95 100 100 100 100 100 100 100 100 100
0 12 2 4 99 84 100 93 94 12 30 85 100 100 100 98 16 5 5 22 70 65 43 93 97 90 74 72 67 99 78 97 99 100 100 99 100 100 100 100 100 100 100 100 100
0 0 0 0 2 100 47 86 82 95 74 70 62 47 50 53 16 11 70 47 85 31 79 79 93 49 100 100 100 100 100 26 100 100 100 100 95 100 100 100 100 100 100 100 100
0 0 0 0 3 36 99 63 5 5 5 6 65 81 6 62 100 100 13 22 48 88 100 75 90 100 100 100 100 5 15 100 100 100 65 100 94 100 100 100 100 100 100 100 100
0 0 0 0 9 23 4 5 5 5 5 5 5 5 5 98 97 100 98 66 94 93 99 100 100 100 100 47 100 100 93 100 100 100 89 100 74 98 100 100 100 100 100 100 100
0 0 0 0 0 0 3 0 4 5 5 5 5 5 14 5 6 58 18 60 5 5 5 5 5 5 31 77 38 7 5 5 32 63 91 33 65 100 72 100 98 80 80 91 86
3 0 2 0 0 0 0 3 2 5 5 1 0 0 1 5 4 4 0 0 0 0 2 4 1 4 2 0 1 1 2 4 4 6 5 37 5 5 5 5 5 18 17 33 44
0 0 0 0 0 0 0 0 0 0 0 0 0 0 0 0 0 0 0 0 0 0 0 0 0 1 0 0 0 0 0 0 0 0 0 2 2 0 0 0 0 2 2 0 0
22 0 0 0 0 0 0 0 0 0 0 0 0 0 0 0 0 0 0 0 0 0 0 0 0 5 3 0 0 0 0 0 0 0 0 0 0 0 0 0 0 0 0 0 0

GFSSW_prec_cloud_102.txt.gz
Cloud_Cover
100 96 26 6 6 1 1 45 76 100 100 100 85 3 42 100 79 4 0 0 1 5 70 64 33 22 96 100 98 100 74 39 5 16 88 70 94 100 100 87 11 4 5 5 5
99 100 100 51 96 51 4 1 32 48 100 100 100 100 41 100 100 60 3 0 0 0 0 13 5 24 50 72 67 81 55 91 78 14 5 5 21 19 35 90 100 60 5 2 3
100 100 100 100 90 100 5 0 8 66 95 100 100 100 98 98 100 100 30 4 0 0 0 0 0 0 5 59 96 58 7 17 35 5 5 5 4 3 5 4 10 46 67 5 5
79 100 97 100 100 99 100 6 5 47 98 33 100 100 100 100 100 100 100 64 1 0 0 0 0 0 0 74 99 47 42 6 5 5 5 4 5 5 4 5 3 1 5 5 5
69 12 100 100 99 98 100 70 38 61 99 43 100 100 100 100 100 100 96 94 99 4 0 0 0 0 0 0 20 20 26 6 7 15 28 8 11 5 5 3 0 0 2 2 1
100 35 46 97 100 100 93 42 66 100 100 75 52 100 100 100 100 96 99 100 100 96 2 0 0 0 0 0 0 0 5 7 5 5 68 95 41 5 6 3 0 0 0 0 0
100 100 69 5 100 100 91 6 5 84 100 98 27 100 100 95 99 100 100 100 100 100 100 79 25 2 0 0 0 0 0 0 0 0 0 6 20 0 5 28 5 3 0 0 0
100 100 13 4 5 14 14 4 24 100 100 61 84 100 100 100 100 100 93 100 100 100 100 100 100 100 31 0 0 0 0 0 0 0 0 0 0 0 0 0 0 0 0 0 0
100 100 96 26 5 5 5 54 62 100 86 37 99 100 100 100 100 100 57 97 100 100 100 100 100 100 100 88 4 1 0 0 0 0 0 0 0 0 0 0 0 0 0 0 0
34 100 100 87 5 5 40 100 98 97 74 76 100 100 100 100 100 100 97 88 100 100 100 100 100 91 100 99 85 27 5 0 0 2 5 4 2 0 0 0 0 0 0 1 3
49 9 24 2 1 4 100 100 100 100 100 100 100 100 100 100 100 100 100 100 100 100 100 100 100 100 100 100 99 100 100 59 30 3 7 8 4 3 0 0 0 83 100 90 46
8 0 0 2 3 18 92 100 100 100 100 100 100 100 100 100 100 98 100 91 70 95 100 100 100 100 100 100 67 84 75 100 100 68 23 6 5 5 0 0 0 6 28 87 72
92 45 78 88 88 100 100 100 100 100 100 100 100 100 100 100 100 100 69 72 53 33 100 100 100 100 100 91 39 6 35 5 10 7 17 5 2 0 0 5 5 47 81 98 100
100 100 100 100 100 100 100 100 100 100 100 100 100 100 100 100 100 100 100 95 73 58 88 100 100 100 100 99 83 59 41 5 38 89 70 30 30 5 5 5 7 44 97 42 100
56 100 92 100 100 100 100 100 100 100 100 100 100 100 100 100 100 100 100 98 24 47 74 100 100 100 97 99 100 97 12 51 97 100 100 72 92 6 0 5 13 69 100 96 100
36 97 98 100 97 100 100 100 100 100 98 100 100 100 100 100 100 100 100 37 5 17 54 90 94 5 6 5 5 5 32 100 99 100 81 5 54 95 5 31 86 95 100 100 100
53 100 98 85 100 100 100 100 100 100 100 100 100 100 96 100 100 99 100 39 19 24 36 5 6 5 5 30 38 54 100 62 70 92 70 11 96 8 26 100 100 100 100 100 100
9 98 6 91 100 100 100 100 100 100 100 100 100 100 100 100 86 57 5 10 5 14 80 42 47 6 5 15 84 100 99 79 98 90 94 98 80 95 100 100 100 100 100 100 100
0 19 14 5 6 22 42 100 96 100 100 100 100 100 100 100 100 81 79 40 28 5 53 63 51 5 5 34 61 100 100 97 100 100 96 98 100 100 100 100 100 100 100 100 100
0 2 4 5 62 91 99 60 21 6 8 13 43 18 20 34 44 19 12 5 88 7 16 28 46 5 19 35 50 60 71 92 100 94 77 98 88 100 100 100 100 100 100 100 100
0 0 0 0 6 12 18 57 30 92 68 55 7 5 4 5 5 5 5 6 8 21 90 45 9 5 6 46 37 82 100 93 64 100 96 94 100 100 100 100 100 100 100 100 100
0 29 0 0 7 40 59 5 5 5 5 5 5 5 5 5 5 5 5 6 5 28 7 19 100 89 60 27 87 100 100 100 72 100 58 93 62 66 100 100 100 100 100 100 100
0 0 0 0 4 5 5 5 5 5 5 13 85 99 99 39 5 10 5 5 6 95 90 98 91 100 94 97 100 30 29 33 74 47 36 29 55 58 78 100 100 100 100 98 100
0 27 0 0 0 0 2 5 5 5 2 3 2 2 2 2 4 3 3 3 11 11 82 36 47 5 5 5 5 32 44 17 60 99 61 56 16 100 100 81 84 71 42 60 85
0 0 0 0 0 0 0 0 0 0 0 0 0 0 0 0 0 0 0 0 0 0 0 4 5 0 0 0 0 0 0 1 5 2 3 6 7 3 4 11 15 4 11 27 17
0 0 0 0 0 0 0 0 0 0 0 0 0 0 0 0 0 0 0 0 0 0 0 0 4 2 4 0 0 0 0 0 0 0 0 0 0 0 0 0 0 0 0 0 0
0 0 0 0 0 0 0 0 0 0 0 0 0 0 0 0 0 0 3 5 5 5 5 5 5 5 5 2 1 0 0 0 0 0 0 0 0 0 0 0 0 0 0 0 0

GFSSW_prec_cloud_105.txt.gz
Cloud_Cover
93 74 100 100 72 14 6 5 98 100 100 100 100 88 100 100 88 54 100 72 100 100 56 16 5 5 14 76 98 100 28 5 5 5 91 100 100 89 100 95 100 97 24 39 57
15 5 16 100 100 92 50 79 3 88 100 100 100 100 97 98 96 28 3 90 100 100 78 1 3 13 43 41 78 100 100 98 100 15 5 8 93 100 100 100 100 100 100 100 100
5 50 93 100 94 100 100 100 91 3 29 100 100 100 100 100 99 63 10 2 87 100 48 5 5 21 63 5 43 100 100 100 100 95 18 5 5 5 5 4 34 100 100 100 100
98 28 65 86 100 100 100 100 100 30 5 45 100 100 100 100 100 100 100 9 5 1 50 92 7 16 58 10 37 72 20 19 88 95 99 100 100 100 26 5 5 5 13 88 77
100 100 100 100 99 100 100 100 100 100 3 5 56 100 100 100 93 100 100 100 74 53 9 1 1 80 57 5 5 82 84 54 60 6 8 38 88 96 96 70 49 5 5 5 5
100 100 98 100 100 100 100 100 100 100 78 83 86 95 100 100 96 100 100 100 100 89 98 14 2 0 0 0 0 0 30 53 70 28 12 10 5 5 5 5 5 5 5 3 1
100 84 18 100 20 98 100 100 100 100 100 18 19 99 100 100 98 100 100 100 100 100 100 99 87 72 3 0 0 0 0 1 1 0 0 1 5 5 5 6 5 0 0 0 0
100 100 57 87 66 5 100 94 16 55 100 100 17 90 100 88 100 100 100 100 100 100 100 100 100 100 74 6 2 0 0 0 0 0 0 0 0 1 1 0 0 0 0 0 0
100 100 98 66 10 5 3 28 5 66 100 100 97 94 100 99 100 100 100 100 100 100 100 100 100 100 65 25 11 5 0 0 0 0 0 0 0 0 0 0 0 0 0 0 0
98 100 100 100 97 5 4 5 7 100 100 85 100 100 100 100 100 100 100 72 100 100 100 100 100 100 100 97 68 100 71 26 3 0 0 0 0 0 0 0 0 4 0 0 0
5 4 37 100 9 4 41 97 73 100 100 100 100 100 100 100 100 98 100 94 100 100 100 100 100 100 100 100 100 100 100 100 75 18 23 3 0 0 0 0 3 0 0 2 19
100 100 78 13 13 67 100 100 100 99 96 100 100 100 100 100 100 100 100 86 76 98 100 100 100 100 100 100 100 100 100 100 77 66 34 5 4 5 5 3 1 2 2 2 44
100 100 100 100 100 100 100 100 100 100 100 100 100 100 100 100 100 99 100 100 100 100 100 100 100 100 100 100 100 100 100 16 17 5 5 7 0 0 0 0 3 2 18 23 98
100 100 100 100 100 100 100 100 100 100 100 100 100 100 100 100 100 100 100 100 98 100 91 100 100 100 92 100 100 100 100 100 97 84 5 6 5 4 3 5 7 35 46 100 98
100 100 100 100 98 100 100 100 100 100 100 100 100 100 100 100 100 100 85 87 66 79 64 86 99 99 100 100 100 100 83 41 69 100 85 36 77 5 0 5 18 34 62 71 100
100 100 100 100 100 99 99 100 99 92 98 100 100 100 100 100 100 100 100 87 95 77 70 54 5 5 26 100 99 41 46 80 100 100 88 14 36 6 38 5 6 62 100 100 100
100 100 100 100 100 100 100 100 100 89 100 100 100 100 100 100 100 100 100 77 15 58 58 10 14 5 5 91 57 93 98 88 100 99 64 20 8 2 11 11 92 100 100 100 100
0 25 95 100 100 100 100 100 100 100 99 100 100 100 100 100 98 100 88 14 5 22 23 87 32 24 5 93 100 100 96 93 96 87 74 15 46 14 24 70 100 100 100 100 100
0 0 0 5 44 94 100 100 100 100 100 100 100 100 100 100 100 100 100 88 32 21 54 91 74 5 13 93 78 78 98 73 100 83 88 31 35 100 69 100 100 100 100 100 100
0 0 0 0 4 45 100 34 68 93 99 100 100 100 100 99 98 65 70 12 7 5 42 16 78 17 21 11 39 58 45 89 100 100 99 100 100 100 100 100 100 100 100 100 100
0 0 0 0 3 3 75 46 5 2 12 28 6 5 5 5 68 59 18 3 16 8 30 58 44 7 3 18 74 68 91 74 88 100 100 100 74 100 96 100 100 100 100 100 100
0 29 0 0 60 67 71 52 20 5 5 4 5 5 15 12 76 65 51 44 5 47 70 4 9 98 100 96 100 100 92 100 81 92 100 100 66 100 84 97 100 100 100 100 100
0 0 0 0 26 5 5 5 5 6 2 4 3 5 4 5 4 5 6 40 5 41 33 12 8 68 94 23 18 97 56 49 17 26 14 5 48 61 97 80 82 86 90 98 99
0 29 0 0 0 4 5 5 4 0 1 3 0 0 4 5 4 5 5 2 5 5 4 23 53 85 23 2 8 43 16 4 50 16 54 4 12 5 5 2 5 48 43 41 12
0 0 0 0 0 0 0 1 1 1 0 0 0 0 0 0 0 0 0 0 0 0 0 1 5 2 0 0 0 0 0 1 5 0 0 0 0 0 0 0 0 0 0 0 0
0 0 0 0 0 0 0 0 0 0 0 0 0 0 0 0 0 0 2 2 1 3 2 2 5 3 5 5 5 5 4 0 0 0 0 0 0 0 0 0 0 0 0 0 0
0 0 0 0 0 0 0 0 0 0 0 0 0 0 0 0 0 0 0 0 0 0 0 0 3 3 1 1 1 3 2 0 1 1 1 1 0 0 0 0 0 0 0 0 0

GFSSW_prec_cloud_108.txt.gz
Cloud_Cover
99 100 100 100 100 96 11 14 6 39 86 100 100 99 100 100 99 31 0 28 96 46 62 10 100 100 100 100 100 92 99 80 99 100 100 100 70 87 97 60 5 22 71 100 99
5 32 39 48 64 47 78 20 17 26 9 58 100 100 100 100 100 73 14 0 95 100 87 26 86 100 100 96 81 27 15 76 78 92 83 100 100 100 100 100 68 72 51 78 71
100 100 25 5 5 5 17 96 100 96 19 5 88 100 100 100 100 100 8 2 0 5 5 10 79 19 40 100 57 5 6 10 12 32 56 100 99 74 13 14 87 100 100 100 91
100 100 100 37 4 46 18 100 23 98 100 6 99 100 100 100 100 100 100 50 7 0 24 100 100 100 15 99 100 18 5 5 2 5 24 94 100 100 95 46 67 55 8 66 98
100 100 41 21 68 10 100 100 91 83 73 59 45 92 100 100 100 100 100 100 100 6 0 10 100 100 98 72 77 99 33 5 1 5 5 64 60 100 100 100 96 26 5 14 6
99 79 42 23 100 96 100 100 100 71 66 100 67 64 100 100 100 100 100 100 100 92 56 4 2 91 100 100 96 95 62 1 0 2 5 20 56 74 60 99 81 100 100 99 99
100 20 42 100 100 100 100 100 75 99 100 100 100 34 100 100 88 100 100 100 100 100 78 10 6 5 4 26 100 68 66 5 5 4 5 5 6 26 5 5 2 0 6 7 12
100 100 81 100 100 96 13 100 100 96 100 100 100 92 99 100 100 100 100 100 100 100 100 100 80 93 60 3 5 14 62 26 86 5 11 16 8 4 0 5 13 5 5 1 0
100 100 98 100 100 100 37 100 48 58 100 100 100 100 100 100 100 100 100 100 100 99 100 100 100 100 99 48 7 5 4 2 0 0 1 8 2 0 0 0 1 4 5 4 0
8 94 100 100 100 22 4 33 32 100 100 100 100 100 100 100 100 100 100 100 95 84 98 100 100 100 100 100 76 73 11 5 0 0 0 0 0 0 0 0 0 0 0 0 0
85 58 33 100 100 26 83 13 73 100 100 100 100 100 100 99 100 100 100 100 78 66 100 100 100 72 100 100 100 100 88 14 5 23 36 45 83 69 0 0 0 0 0 0 0
14 89 55 11 18 70 58 95 100 100 100 100 100 100 100 95 94 94 100 97 95 100 100 100 100 100 100 100 100 100 100 93 98 85 97 79 5 5 1 0 0 0 0 0 14
100 34 98 100 100 100 95 78 84 99 100 100 100 100 100 96 98 92 100 99 100 100 94 44 98 100 100 100 98 27 30 97 100 71 5 52 3 5 1 3 1 1 3 0 0
100 94 53 19 100 100 44 84 72 100 99 100 100 100 100 100 96 100 94 82 95 96 98 63 46 82 100 100 100 100 100 100 88 84 99 33 13 17 72 5 0 5 4 1 0
100 100 100 28 74 98 95 100 100 96 96 100 100 100 100 93 99 100 100 100 100 100 98 79 71 34 100 92 43 98 100 100 57 100 89 89 35 10 2 0 4 2 0 2 5
100 97 100 100 71 74 75 75 84 93 93 100 100 100 100 100 100 99 100 90 90 54 73 20 6 6 34 48 57 89 100 100 100 87 97 77 7 3 3 0 0 1 0 8 55
100 100 100 100 100 100 100 76 99 51 98 97 100 100 94 100 100 100 90 77 58 46 82 74 18 5 3 51 50 67 100 69 67 77 18 5 5 2 1 0 1 5 41 17 99
22 48 100 84 100 100 100 100 100 100 96 100 100 100 100 100 100 100 100 88 73 34 23 77 56 14 5 57 41 100 100 95 32 55 8 5 4 0 0 71 86 98 100 98 100
0 3 0 91 100 100 96 100 100 100 100 100 100 100 100 100 100 100 100 95 14 5 38 45 70 5 16 100 87 79 98 89 84 10 18 4 4 92 18 93 53 100 100 56 100
0 0 0 4 84 100 100 70 94 97 99 100 99 93 100 100 100 100 92 10 6 5 5 20 67 23 7 5 17 100 38 87 73 94 74 95 52 98 100 89 96 100 100 100 100
0 0 0 0 5 0 20 5 73 100 100 100 100 100 100 43 94 24 20 4 46 5 29 47 86 42 5 17 75 91 64 65 87 92 97 92 77 81 93 69 78 100 100 100 100
0 27 0 3 3 4 5 5 5 5 2 5 5 5 6 70 100 33 77 13 6 11 86 3 17 56 22 10 35 32 5 55 28 100 88 76 5 28 22 23 41 33 93 100 98
0 0 0 0 3 5 1 0 4 5 2 4 5 5 11 28 9 5 5 1 0 2 4 3 9 4 2 25 73 82 59 11 5 6 5 15 4 5 5 0 1 0 1 7 98
0 11 0 0 0 2 0 0 0 0 0 0 0 2 2 1 2 5 3 4 11 5 5 10 5 5 3 5 5 20 5 5 5 5 3 2 0 0 0 0 0 0 0 0 0
0 0 0 1 0 0 0 0 0 0 0 0 0 0 0 0 0 0 0 0 0 0 0 1 3 1 0 0 0 0 0 0 0 0 0 0 0 0 0 0 0 0 0 0 0
0 0 0 0 0 0 0 0 0 0 0 0 0 0 0 0 0 0 0 0 0 0 2 4 2 0 4 0 0 0 0 0 0 0 0 0 0 0 0 0 0 0 0 0 0
1 0 0 0 0 0 0 0 0 0 0 0 0 0 0 0 1 0 0 0 0 1 1 0 0 1 4 1 1 1 2 3 5 5 4 2 3 0 3 4 4 4 5 5 5

GFSSW_prec_cloud_111.txt.gz
Cloud_Cover
100 100 97 100 100 100 100 47 9 5 75 87 100 100 100 100 99 5 1 0 0 3 100 100 100 100 100 100 74 62 44 79 21 100 100 100 98 70 99 20 5 17 100 59 5
100 100 100 100 100 100 100 100 40 4 84 52 100 100 100 100 100 43 36 5 0 0 23 100 100 100 100 100 100 55 20 80 100 100 21 98 100 100 100 100 61 10 10 19 5
100 100 100 100 97 100 100 100 100 11 3 100 62 100 100 100 100 100 95 17 2 0 0 100 100 100 100 94 100 73 79 100 54 31 86 100 100 100 100 100 100 100 87 19 44
100 100 98 54 57 100 100 100 100 44 9 68 97 99 100 100 88 100 85 100 38 2 0 5 11 95 98 99 100 16 22 96 5 76 100 100 95 99 45 99 100 100 100 100 100
100 100 20 5 7 39 97 100 81 22 5 27 100 42 92 100 98 100 100 92 100 50 3 0 2 50 5 5 10 98 45 100 67 54 64 95 78 33 52 7 13 12 14 5 9
100 48 13 5 5 5 5 56 96 73 5 93 19 90 66 78 100 100 100 86 97 100 40 2 0 0 0 3 39 7 5 5 12 44 92 100 100 84 10 5 5 5 5 23 5
98 76 5 5 8 81 79 100 100 100 70 30 100 100 94 92 100 100 100 95 17 100 100 96 53 5 4 0 5 5 5 5 9 5 5 6 8 44 5 4 0 0 5 5 6
97 55 97 11 100 100 100 100 100 84 25 5 14 98 95 64 98 100 100 87 98 100 100 100 100 100 61 2 0 1 0 8 16 36 10 5 37 46 5 5 2 0 0 4 5
96 100 68 16 100 100 100 100 66 73 92 21 64 83 97 100 86 100 100 97 100 100 100 100 100 100 100 8 4 0 0 1 13 44 83 5 6 5 5 15 6 3 5 0 0
4 95 100 16 97 100 100 100 99 95 98 95 99 100 100 100 100 100 98 100 100 92 98 100 100 100 100 94 28 4 5 0 0 0 5 21 9 5 5 10 12 5 2 1 0
100 2 79 5 5 4 34 100 99 88 100 100 100 100 100 100 100 100 100 100 100 70 100 100 100 100 100 100 98 17 5 4 0 5 5 10 92 83 2 0 0 0 0 0 0
100 98 5 0 5 5 60 98 100 92 100 100 100 100 100 100 100 100 86 100 100 100 96 71 99 100 100 100 100 100 31 19 43 100 99 45 95 95 12 5 2 0 0 0 0
65 59 5 1 5 14 70 79 68 94 100 100 100 100 100 100 100 100 100 90 97 86 98 100 64 45 95 100 100 96 94 100 57 95 74 100 41 79 20 5 4 0 0 0 0
5 5 5 5 3 5 58 88 100 100 100 100 100 100 100 100 100 100 100 100 99 100 100 57 5 5 5 21 96 100 100 100 97 70 5 5 9 58 70 5 5 0 0 0 0
36 5 5 62 81 28 26 99 100 100 100 100 100 100 100 98 97 97 69 77 100 100 90 8 5 5 5 5 44 98 90 96 100 100 100 100 92 100 96 5 3 0 2 0 0
100 100 70 24 40 6 5 21 92 78 95 100 100 100 100 98 58 49 49 28 100 70 5 5 4 5 5 5 5 5 5 63 80 77 62 5 5 5 5 4 1 0 0 5 0
20 96 95 100 100 100 95 96 97 43 100 100 100 100 100 100 100 100 100 90 32 5 20 28 22 62 5 5 4 4 5 43 33 78 25 5 5 2 0 0 0 0 0 2 28
5 6 8 26 67 100 100 100 100 100 100 100 100 100 100 100 100 100 100 72 6 5 14 6 9 6 5 17 13 64 52 11 5 62 10 5 4 0 0 0 0 0 5 43 100
3 5 5 75 100 100 100 98 100 100 100 100 100 100 100 100 100 100 100 100 54 5 6 33 48 5 48 100 76 16 92 36 10 12 22 5 0 0 8 7 2 5 28 40 100
0 0 0 0 45 90 100 45 55 100 100 100 100 92 100 100 100 100 91 17 4 1 5 5 5 22 5 10 55 100 81 86 88 52 64 4 2 4 9 5 5 5 15 75 86
0 0 0 0 0 0 4 4 45 80 90 100 99 100 100 100 100 94 10 4 5 0 4 36 8 58 24 7 8 58 26 7 5 13 10 6 6 5 5 5 8 8 5 16 58
0 0 0 0 0 0 0 5 4 1 0 5 5 6 9 24 5 5 5 3 1 2 5 5 24 12 2 4 5 5 1 4 5 6 14 14 4 4 5 5 4 0 0 4 68
0 0 0 0 0 0 0 0 0 0 4 0 0 1 5 4 2 2 0 0 1 2 2 1 3 5 5 5 5 3 1 2 5 5 5 8 3 0 0 0 0 0 0 0 0
0 1 0 0 0 1 0 0 0 0 0 0 0 0 0 0 0 0 0 0 0 0 0 0 3 1 4 0 0 0 0 0 0 20 3 1 1 0 0 0 0 0 0 0 0
0 0 0 0 0 0 0 0 0 0 0 0 0 0 0 0 0 0 0 0 0 0 0 0 5 0 0 0 0 0 0 0 0 0 1 0 0 0 0 0 0 0 0 0 0
5 4 0 0 0 0 0 0 0 0 0 0 0 0 0 0 0 0 0 0 0 0 0 0 2 0 1 0 0 0 0 0 0 0 2 5 2 0 0 0 0 0 0 0 0
5 4 0 0 1 0 0 0 0 0 0 0 2 5 5 5 11 4 2 1 0 0 0 0 0 2 2 0 0 0 0 0 0 0 0 0 0 0 0 0 0 0 0 0 0

GFSSW_prec_cloud_114.txt.gz
Cloud_Cover
49 100 99 100 100 100 100 100 100 98 5 77 56 98 100 100 95 6 0 0 0 0 4 7 17 40 93 96 100 100 100 54 5 5 100 100 54 33 98 87 6 5 5 4 1
100 100 100 100 100 100 100 100 100 100 13 94 100 100 100 100 100 57 4 1 0 0 0 0 5 5 40 100 100 100 100 98 97 93 88 19 3 5 56 96 100 23 3 5 7
20 75 100 100 100 100 100 100 100 100 62 36 100 100 98 73 100 91 6 5 0 0 0 0 0 3 5 5 87 100 100 100 100 78 5 5 6 7 5 5 11 15 73 66 58
100 100 56 91 100 100 100 100 100 100 35 26 100 100 94 92 100 100 30 2 61 2 0 0 0 0 0 17 52 100 100 100 72 58 35 44 5 5 5 5 5 34 82 100 56
95 80 83 8 57 100 100 100 100 100 100 5 50 93 78 81 100 100 92 7 47 100 2 0 0 0 0 4 98 100 100 100 100 100 34 5 5 5 4 5 5 6 8 64 50
100 89 74 5 5 24 100 100 100 100 100 96 36 100 100 61 100 100 100 78 55 98 63 1 2 0 0 0 58 86 100 100 100 100 66 32 5 5 1 4 5 5 5 9 64
100 100 5 5 0 4 41 100 100 100 100 99 99 91 100 98 100 100 100 64 98 77 100 95 5 5 5 1 0 6 65 100 100 100 100 48 97 22 5 5 5 5 5 5 54
99 97 5 44 67 100 40 100 100 100 69 83 97 99 99 100 100 93 100 100 96 100 85 100 94 5 0 0 0 0 8 18 9 83 61 54 82 42 6 5 7 78 98 71 10
92 75 6 95 100 100 98 100 100 100 100 81 18 100 100 100 100 100 100 100 100 100 100 91 100 60 3 0 0 0 0 0 0 0 1 0 4 86 98 55 48 70 63 7 5
6 0 4 10 100 100 100 100 98 100 78 97 66 95 100 100 100 100 100 100 95 97 72 55 83 100 25 5 4 4 0 0 0 0 0 0 0 5 20 17 12 6 5 5 2
1 0 5 31 100 98 96 100 100 89 100 100 100 100 100 100 100 100 100 75 96 100 100 100 89 100 100 17 5 5 5 1 0 0 0 0 0 0 0 1 4 0 0 1 4
5 5 6 98 100 100 100 100 100 100 100 100 100 100 100 100 100 100 100 100 100 100 100 96 100 90 100 100 24 5 5 5 5 5 1 1 4 1 4 4 2 3 5 2 0
5 59 26 100 100 100 100 100 100 100 100 100 100 100 100 100 100 100 100 100 100 100 100 100 99 91 21 76 90 87 76 100 96 100 100 93 90 48 46 5 2 4 1 0 0
1 1 5 14 53 61 71 94 100 100 100 100 100 100 100 100 100 100 100 51 100 100 100 47 12 31 10 5 5 8 52 96 85 35 62 95 22 100 7 5 5 2 4 4 5
5 5 5 12 51 78 47 49 100 100 100 100 100 100 100 100 100 93 100 100 100 100 61 24 5 5 3 5 5 3 5 6 60 99 99 89 50 100 5 5 5 5 3 0 0
5 7 14 84 100 100 100 100 69 31 83 100 100 100 100 99 100 100 100 100 100 100 100 17 5 1 0 0 0 0 2 5 5 5 5 5 5 5 5 8 5 0 1 0 0
0 6 100 100 100 100 100 100 100 90 90 100 100 100 100 74 90 100 100 100 80 93 29 5 5 2 5 4 0 0 4 15 4 61 5 5 5 0 3 0 0 0 0 0 0
0 1 54 88 100 100 100 100 100 100 100 100 100 93 100 78 99 26 6 28 57 63 51 9 3 5 5 4 4 5 5 5 4 50 5 5 10 0 0 0 0 0 0 0 5
0 1 0 5 98 100 100 100 100 100 100 100 100 100 100 100 100 100 91 5 5 5 5 5 25 5 17 67 7 5 7 8 5 10 70 13 1 0 0 0 0 0 0 1 19
0 0 0 0 3 71 89 46 100 100 100 100 100 100 100 100 100 100 100 100 62 5 4 3 19 13 23 40 10 5 14 19 78 33 5 4 4 5 0 0 0 0 0 0 4
0 0 0 0 0 0 3 5 5 12 100 100 100 100 100 100 100 100 100 100 92 6 5 5 4 54 84 6 4 5 5 5 5 5 7 6 1 0 0 0 0 0 0 0 0
0 0 0 0 0 0 0 3 2 4 0 1 2 12 28 62 19 12 6 3 0 0 5 4 5 29 3 5 5 5 5 0 5 4 5 5 12 0 0 0 0 0 0 0 0
0 0 0 0 0 0 0 0 0 0 4 0 4 5 4 5 2 2 3 3 1 2 3 0 4 5 6 3 5 32 5 5 4 5 5 12 5 0 0 0 0 0 0 0 0
0 0 0 0 0 0 0 0 0 0 0 0 0 0 1 0 0 0 0 0 0 0 1 0 1 1 3 0 0 19 1 1 4 4 5 4 1 0 0 0 0 0 0 0 0
0 0 0 0 0 0 0 0 0 0 0 0 0 0 0 0 0 0 0 0 0 0 0 0 4 0 0 0 0 0 0 0 0 0 3 0 0 0 0 0 0 0 0 0 0
0 0 0 4 0 0 0 0 0 0 0 0 0 0 0 0 0 0 0 0 0 0 0 0 0 0 0 0 0 0 0 0 0 0 0 1 2 0 1 0 0 0 0 0 0
0 0 0 0 0 0 0 0 0 0 0 0 0 0 0 0 0 0 0 0 0 0 1 0 0 1 4 0 3 18 5 5 1 5 5 4 76 98 100 39 5 5 5 5 5

GFSSW_prec_cloud_117.txt.gz
Cloud_Cover
4 69 100 100 100 82 87 100 100 98 6 0 100 100 100 100 100 30 4 5 7 5 5 18 28 100 100 100 100 100 26 5 5 5 5 5 34 21 5 57 25 22 5 1 0
5 5 6 94 100 100 100 100 100 100 100 42 20 100 100 100 100 100 4 1 2 5 5 32 6 13 63 98 97 100 100 100 84 42 5 5 5 3 5 37 18 5 5 5 4
66 43 100 100 100 100 100 100 100 100 100 100 5 51 100 100 100 100 26 0 0 0 5 5 5 8 69 93 100 92 100 100 100 100 34 5 4 2 5 5 5 5 5 5 5
100 75 5 66 100 100 100 100 100 100 100 100 45 66 100 100 100 100 28 63 0 0 0 4 5 0 4 10 69 97 26 61 100 99 47 5 5 5 5 5 5 5 5 5 5
100 18 22 5 100 100 100 100 100 100 100 100 84 9 100 100 100 100 94 5 0 0 0 0 0 4 3 5 3 41 43 95 33 19 13 19 6 5 5 5 5 5 5 2 2
100 100 9 5 100 100 100 100 100 100 100 60 50 55 57 93 100 100 87 5 2 1 2 2 0 0 0 0 5 5 5 32 52 27 54 68 27 5 5 5 5 5 5 4 0
100 6 0 2 6 100 100 100 100 100 100 25 5 96 23 100 100 100 86 46 5 5 5 23 13 0 0 0 0 2 0 0 0 5 40 81 43 46 60 11 5 5 5 5 5
1 2 71 99 8 6 98 100 100 100 100 74 8 96 100 65 100 100 100 88 5 6 5 100 100 24 0 0 0 0 0 0 0 4 36 71 10 70 47 25 23 9 8 5 5
8 6 99 12 56 39 59 100 100 100 100 41 76 73 100 89 100 100 100 100 100 86 37 40 58 80 2 0 0 0 0 0 0 0 2 4 5 5 10 70 90 86 67 18 5
5 98 9 23 100 46 86 100 100 100 100 25 94 100 99 100 100 100 100 100 98 100 73 4 5 28 17 1 0 0 0 0 0 0 0 0 0 0 4 9 14 46 53 23 5
100 98 94 100 100 100 98 70 100 100 100 100 100 100 100 100 100 100 100 100 65 89 89 7 5 5 78 10 5 0 0 0 0 0 0 0 0 0 0 0 0 0 0 0 0
6 21 14 64 100 100 100 100 82 96 100 100 100 100 100 100 77 100 100 85 56 90 100 53 5 5 14 55 89 12 4 1 0 0 0 0 0 0 0 0 0 0 0 0 0
5 5 5 5 100 100 100 100 100 100 100 100 100 100 100 100 100 100 100 93 86 100 100 99 44 92 41 5 8 90 68 5 2 0 0 0 0 0 0 0 0 0 2 5 5
83 21 13 5 31 98 100 100 100 100 89 100 100 100 100 100 100 100 100 83 82 100 98 91 60 70 5 5 5 5 8 38 6 16 4 6 5 5 5 3 5 5 5 4 0
5 62 64 94 100 100 89 64 100 100 97 100 100 100 100 100 100 100 100 100 100 100 83 27 36 5 5 5 0 0 0 5 5 5 5 5 5 77 47 17 12 5 5 5 5
19 7 84 91 13 84 61 89 12 99 100 100 100 100 100 100 100 100 100 59 90 76 50 73 56 5 5 3 1 0 0 5 5 5 4 3 5 5 4 5 5 5 5 4 0
4 5 64 81 84 67 14 99 100 67 100 100 100 100 100 100 99 90 76 80 71 17 5 5 6 5 1 0 0 0 4 4 2 8 0 5 13 3 0 0 0 0 0 0 0
0 5 5 91 100 89 93 100 69 100 94 99 100 100 100 74 80 100 100 100 98 74 5 5 3 0 1 3 1 3 0 4 0 17 5 4 24 1 0 0 0 0 0 0 0
0 0 0 4 100 92 99 64 89 100 100 100 100 100 100 100 100 100 100 100 96 100 94 59 6 5 5 5 3 5 5 4 5 26 86 21 1 0 0 0 0 0 0 0 1
0 0 0 0 2 90 94 15 52 97 81 85 74 68 85 100 100 94 66 64 66 5 5 1 17 9 12 31 6 5 5 5 47 25 17 4 5 4 0 0 0 0 0 0 0
0 0 0 0 0 0 11 40 100 100 100 100 100 100 91 10 5 21 6 5 3 3 5 3 4 51 63 5 5 3 5 5 7 5 7 5 1 0 0 0 0 0 0 0 0
0 0 0 0 0 0 0 0 4 5 66 100 100 100 100 100 100 97 98 6 5 3 5 5 5 67 4 4 3 5 5 1 5 2 5 5 15 0 0 0 0 0 0 0 0
0 0 0 0 0 0 0 0 0 0 0 0 0 0 0 1 1 0 3 2 0 5 4 2 4 5 5 2 4 5 2 5 2 4 5 10 1 0 0 0 0 0 0 0 0
0 0 0 0 0 0 0 0 0 0 0 0 0 0 0 0 0 0 0 0 0 0 0 0 0 0 0 0 0 3 0 1 5 5 5 5 2 0 0 0 0 0 0 0 0
0 0 0 0 0 0 0 0 0 0 0 0 0 0 0 0 0 0 0 0 0 0 0 0 0 1 1 0 0 0 0 0 4 3 4 3 0 2 0 0 0 0 0 0 0
0 0 0 0 0 0 0 0 0 0 0 0 0 0 0 0 0 0 0 0 0 0 0 0 0 1 4 0 0 0 0 0 2 5 5 4 4 0 1 4 4 1 4 0 1
20 4 0 0 0 0 0 0 0 0 0 0 0 0 0 0 0 0 0 2 4 1 1 0 4 4 4 0 0 0 1 0 1 4 5 5 5 5 4 5 5 5 19 6 27

GFSSW_prec_cloud_120.txt.gz
Cloud_Cover
4 3 5 5 97 98 100 87 96 100 23 5 0 3 74 100 100 84 100 100 100 100 100 66 75 100 100 100 100 100 51 32 100 61 87 6 5 5 5 5 5 5 9 17 4
3 4 5 99 100 100 100 43 100 100 100 5 0 2 100 100 100 87 37 100 100 100 100 100 46 16 98 100 100 100 100 96 100 92 62 53 8 5 5 5 5 5 5 12 46
20 5 17 100 100 100 100 100 100 100 100 100 38 89 100 100 100 100 100 8 92 100 100 100 100 94 50 90 100 100 100 100 100 100 50 18 11 29 5 5 4 5 4 3 5
83 16 21 5 100 100 100 100 100 100 100 100 63 98 100 100 100 100 100 75 5 46 100 100 100 100 69 52 78 100 100 100 100 74 58 73 65 47 11 19 5 5 5 0 0
17 5 2 5 100 100 100 100 100 100 100 88 58 23 100 100 100 100 45 5 5 2 37 100 100 100 100 99 16 9 73 100 93 100 81 28 25 71 99 77 83 31 5 4 3
2 1 0 5 100 100 100 100 100 100 100 57 100 84 100 100 100 100 98 5 5 5 0 8 90 100 99 68 56 7 4 5 19 69 99 96 45 44 46 92 77 100 72 5 5
0 6 61 3 100 100 100 100 100 100 100 46 100 100 100 100 100 100 96 68 50 6 3 2 5 5 6 9 18 23 5 5 5 6 37 98 96 35 45 64 80 5 5 5 5
6 7 78 5 100 100 100 100 100 100 100 6 79 100 100 100 100 100 100 100 96 85 5 3 5 5 0 2 0 0 3 5 5 3 4 3 5 66 85 90 61 16 6 12 12
8 93 71 13 84 100 100 100 100 100 100 37 18 100 100 100 100 100 100 100 100 82 5 5 3 8 2 0 0 0 0 0 4 2 0 1 5 5 5 6 6 8 5 19 31
52 100 100 32 12 100 100 100 100 100 59 21 91 97 100 100 100 100 100 100 100 98 5 0 0 5 5 3 0 0 0 0 0 0 0 0 0 0 0 0 2 4 4 5 5
4 69 100 57 12 9 96 100 100 100 95 100 100 100 100 100 100 100 100 100 100 100 5 0 1 0 5 5 4 0 0 0 0 0 0 0 0 0 0 0 0 0 0 0 0
8 5 97 35 67 99 44 100 99 94 100 100 100 100 100 100 100 100 100 100 100 100 88 4 3 0 4 5 5 5 0 0 0 0 0 0 0 0 0 0 0 0 0 0 0
1 41 6 100 100 100 49 89 93 100 100 100 100 100 98 100 100 100 100 97 100 100 96 50 1 2 5 5 5 5 5 5 2 0 0 0 0 0 0 0 0 0 0 0 0
5 46 100 5 98 91 42 46 64 87 100 100 100 100 100 100 100 100 100 82 100 100 100 90 3 3 5 5 5 5 3 2 5 5 3 0 0 0 0 0 0 0 0 0 0
6 28 45 98 57 50 16 50 90 100 76 100 100 100 100 100 100 100 100 97 100 100 98 34 19 1 3 4 5 5 0 0 0 5 1 5 4 5 0 0 0 0 0 0 0
6 59 5 6 92 88 99 97 100 100 100 100 100 100 100 100 100 100 95 40 43 72 58 93 49 5 4 0 3 1 0 0 5 3 2 4 5 0 3 0 0 0 0 0 0
4 5 6 5 55 93 23 100 100 100 100 100 100 100 100 100 100 100 100 77 25 5 32 40 5 34 3 0 0 0 2 3 2 5 0 5 17 0 0 0 0 0 0 0 0
0 1 5 56 98 96 59 24 100 100 100 100 100 91 100 100 100 100 34 81 83 100 30 7 3 3 0 0 0 5 0 2 0 3 5 5 37 0 0 0 0 0 0 0 0
0 0 0 5 43 100 100 65 67 69 95 93 83 95 68 78 42 88 94 25 6 23 5 5 32 5 5 1 0 5 4 4 5 67 83 17 1 0 0 0 0 0 0 0 0
0 0 0 0 4 86 73 37 6 36 96 73 62 25 67 20 88 93 100 99 96 5 5 4 35 5 5 4 5 5 4 5 26 2 4 4 4 1 0 0 0 0 0 0 0
0 0 0 0 0 0 5 5 34 100 100 26 67 29 5 53 100 100 100 100 92 83 16 1 2 21 5 5 5 3 5 5 5 5 5 4 0 0 0 0 0 0 0 0 0
0 0 0 0 0 0 1 5 2 10 100 74 7 17 73 49 5 8 44 100 84 59 4 3 3 67 3 3 3 5 5 3 5 1 5 5 18 0 0 0 0 0 0 0 0
0 0 0 0 0 0 0 0 0 0 0 0 44 42 78 77 49 10 5 34 4 1 0 2 4 5 5 3 4 5 0 5 3 5 5 5 0 0 0 0 0 0 0 0 0
0 0 0 0 0 0 0 0 0 0 0 0 0 0 0 0 0 0 0 1 0 1 1 0 0 0 0 0 0 2 0 0 4 19 5 5 3 5 3 0 0 0 0 0 0
3 0 0 0 0 0 0 0 0 0 0 0 0 0 0 0 0 0 0 0 0 0 0 0 0 4 4 4 0 0 0 0 5 5 5 5 4 0 0 4 0 4 5 3 4
5 5 4 0 0 0 0 0 0 0 0 0 0 0 0 0 0 0 0 0 0 0 0 0 0 4 5 0 4 5 2 0 3 0 0 1 0 5 5 5 5 5 5 5 8
79 16 4 5 4 0 0 0 0 0 0 0 0 0 0 0 0 0 0 0 0 0 0 0 0 4 2 0 3 0 1 2 1 0 0 2 3 4 5 5 5 5 44 63 54